Date StartTime U_cm/s V_cm/s W_cm/s Ustd_cm/s Vstd_cm/s Wstd_cm/s Uvar_(cm/s)^2 Vvar_(cm/s)^2 Wvar_(cm/s)^2 KE_(m/s)^2 TurbulentKE_(m/s)^2 HorizWindSpeed_cm/s FrictionSpeec_cm/s DragCoef SpeedOfSound_m/s SonicTemperature_C Pressure_mb 
08/13/2014  00:00:00      -99.578      -58.210        3.033       73.547       60.782       31.000     5409.110     3694.503      961.003        1.169        0.503      115.344       26.961        0.055      345.358       22.830      860.839
08/13/2014  00:01:00      -71.015        9.989        9.021       54.550       34.515       27.135     2975.688     1191.276      736.334        0.506        0.245       71.714       28.968        0.163      345.260       22.662      860.820
08/13/2014  00:02:00     -115.681       41.786       -1.028       39.016       21.151       22.448     1522.209      447.383      503.910        0.880        0.124      122.997       18.817        0.023      345.265       22.672      860.812
08/13/2014  00:03:00      -91.702       94.638      -19.766       40.323       31.889       26.259     1625.983     1016.908      689.550        1.054        0.167      131.778       21.678        0.027      345.363       22.837      860.799
08/13/2014  00:04:00      -97.729       17.143      -13.994       20.798       31.177       16.519      432.553      972.000      272.891        0.586        0.084       99.221        8.722        0.008      345.334       22.790      860.789
08/13/2014  00:05:00     -128.582       22.516      -19.184       21.950       19.110       16.606      481.782      365.178      275.759        0.927        0.056      130.538        7.566        0.003      345.326       22.776      860.787
08/13/2014  00:06:00      -82.526        3.317      -11.599       26.510       29.508       15.842      702.767      870.724      250.955        0.439        0.091       82.593       15.358        0.035      345.409       22.921      860.787
08/13/2014  00:07:00      -85.145       44.939      -13.362       17.167       35.020       17.338      294.691     1226.418      300.610        0.563        0.091       96.276        8.548        0.008      345.310       22.748      860.782
08/13/2014  00:08:00     -162.414      -36.003      -10.798       44.178       39.256       17.685     1951.683     1541.050      312.753        1.580        0.190      166.357       15.891        0.009      345.163       22.498      860.779
08/13/2014  00:09:00     -178.345       10.884      -15.884       78.461       49.180       27.055     6156.092     2418.689      731.987        2.074        0.465      178.676       31.206        0.031      345.092       22.373      860.783
08/13/2014  00:10:00     -191.369      -47.553      -15.257       63.860       68.831       37.615     4078.062     4737.749     1414.879        2.467        0.512      197.189       34.335        0.030      345.112       22.407      860.780
08/13/2014  00:11:00     -196.142       -7.004      -20.592       54.600       50.129       26.458     2981.143     2512.954      700.016        2.257        0.310      196.267       25.911        0.017      345.260       22.660      860.788
08/13/2014  00:12:00     -129.378       19.955       -6.370       50.288       34.753       25.397     2528.925     1207.761      644.994        1.078        0.219      130.908       25.302        0.037      345.191       22.547      860.794
08/13/2014  00:13:00      -89.703       49.437      -20.514       31.584       33.648       19.616      997.550     1132.182      384.802        0.671        0.126      102.424       17.428        0.029      345.143       22.465      860.796
08/13/2014  00:14:00      -85.782       18.335      -14.442       25.665       21.605       14.807      658.696      466.785      219.249        0.462        0.067       87.719        7.177        0.007      345.184       22.533      860.793
08/13/2014  00:15:00      -49.722       51.237       -7.280       35.520       29.532       23.852     1261.673      872.129      568.916        0.393        0.135       71.396       23.242        0.106      345.075       22.345      860.789
08/13/2014  00:16:00      -45.392       10.250       -3.333       27.320       21.712       16.400      746.398      471.409      268.963        0.183        0.074       46.535       13.741        0.087      345.168       22.504      860.778
08/13/2014  00:17:00      -61.219       -3.544        2.207       39.439       43.649       21.721     1555.456     1905.236      471.802        0.385        0.197       61.321       16.364        0.071      345.100       22.389      860.766
08/13/2014  00:18:00      -61.258        3.481        5.236       35.750       38.535       21.649     1278.050     1484.942      468.687        0.351        0.162       61.357       19.508        0.101      344.999       22.218      860.769
08/13/2014  00:19:00       -5.349        3.342        9.068       18.545       14.876       13.134      343.932      221.287      172.510        0.043        0.037        6.307       14.131        5.019      344.967       22.161      860.758
08/13/2014  00:20:00      -30.331       -0.802        6.411       35.463       22.074       20.405     1257.630      487.244      416.379        0.156        0.108       30.342       22.272        0.539      345.008       22.232      860.745
08/13/2014  00:21:00      -47.645       27.129       -9.689       39.068       25.761       27.223     1526.305      663.642      741.109        0.301        0.147       54.827       26.145        0.227      345.127       22.437      860.730
08/13/2014  00:22:00       33.732       57.268       -1.770       15.091       31.419       23.266      227.747      987.169      541.288        0.309        0.088       66.464       11.897        0.032      345.133       22.446      860.709
08/13/2014  00:23:00       12.533       11.807       -2.613       27.264       24.883       17.397      743.300      619.163      302.667        0.098        0.083       17.219        6.115        0.126      345.291       22.717      860.685
08/13/2014  00:24:00        9.436       -2.055       11.037       14.748       14.544       15.751      217.502      211.529      248.102        0.045        0.034        9.657        8.897        0.849      345.219       22.594      860.668
08/13/2014  00:25:00      -49.983      -16.397      -13.728       40.104       13.806       10.300     1608.293      190.596      106.089        0.243        0.095       52.603        8.419        0.026      345.174       22.515      860.649
08/13/2014  00:26:00     -108.816       15.673      -14.185       39.046       36.253       21.408     1524.574     1314.249      458.308        0.779        0.165      109.939       21.692        0.039      345.045       22.297      860.624
08/13/2014  00:27:00     -123.503       -2.666        0.103       49.875       59.905       29.720     2487.559     3588.581      883.269        1.111        0.348      123.532       22.979        0.035      345.008       22.231      860.608
08/13/2014  00:28:00     -215.216       17.056      -21.725      116.611       78.273       44.528    13598.200     6126.684     1982.770        3.439        1.085      215.891       48.419        0.050      344.988       22.194      860.589
08/13/2014  00:29:00     -245.010      -80.634      -24.729      120.551       86.906       55.061    14532.483     7552.611     3031.764        4.613        1.256      257.938       65.209        0.064      345.087       22.364      860.564
08/13/2014  00:30:00     -250.723      -17.443      -15.932      110.766       51.451       48.142    12269.169     2647.223     2317.662        4.032        0.862      251.329       49.403        0.039      345.180       22.523      860.558
08/13/2014  00:31:00     -206.385       14.697      -25.540       79.611       96.257       43.058     6337.834     9265.406     1854.029        3.046        0.873      206.908       40.660        0.039      345.256       22.655      860.560
08/13/2014  00:32:00     -143.788       43.998      -15.007       50.712       47.208       29.274     2571.707     2228.620      856.941        1.425        0.283      150.369       27.069        0.032      345.200       22.558      860.543
08/13/2014  00:33:00      -95.280       15.238      -18.719       30.548       65.747       22.672      933.199     4322.631      514.027        0.771        0.288       96.490       14.307        0.022      345.190       22.543      860.513
08/13/2014  00:34:00     -204.821      -12.145      -21.368       84.495       47.483       31.930     7139.333     2254.663     1019.539        2.648        0.521      205.181       38.293        0.035      345.159       22.488      860.512
08/13/2014  00:35:00     -149.749       26.227      -11.819       56.039       75.950       33.098     3140.406     5768.429     1095.489        1.663        0.500      152.028       23.292        0.023      345.127       22.434      860.493
08/13/2014  00:36:00     -193.136       97.246      -36.088       46.788       65.968       33.685     2189.161     4351.719     1134.702        2.787        0.384      216.237       23.231        0.012      345.140       22.455      860.485
08/13/2014  00:37:00     -163.099      -44.740      -12.853       70.455       45.094       30.100     4963.900     2033.446      905.996        1.833        0.395      169.124       25.404        0.023      345.048       22.300      860.471
08/13/2014  00:38:00     -178.965       31.964      -20.128       93.755       65.363       34.718     8790.023     4272.361     1205.328        2.386        0.713      181.797       14.888        0.007      345.184       22.531      860.454
08/13/2014  00:39:00     -152.325        0.106      -17.793       49.137       45.450       26.898     2414.486     2065.740      723.521        1.436        0.260      152.325       24.207        0.025      345.128       22.436      860.452
08/13/2014  00:40:00      -59.982        4.283        1.178       55.144       37.290       29.101     3040.811     1390.530      846.843        0.445        0.264       60.134       24.978        0.173      345.076       22.350      860.450
08/13/2014  00:41:00     -143.640      -61.940       -9.860      101.495       53.960       28.615    10301.328     2911.730      818.808        1.930        0.702      156.426       39.168        0.063      345.048       22.298      860.454
08/13/2014  00:42:00     -214.556      -48.043      -10.707      100.811       62.931       41.175    10162.817     3960.357     1695.380        3.213        0.791      219.869       49.109        0.050      345.083       22.357      860.447
08/13/2014  00:43:00     -180.520        1.916      -13.581       69.116       76.787       36.600     4776.969     5896.293     1339.526        2.239        0.601      180.530       38.489        0.045      345.158       22.487      860.457
08/13/2014  00:44:00     -241.626      -45.732      -10.612       73.943       90.816       40.144     5467.613     8247.606     1611.565        3.795        0.766      245.915       38.463        0.024      345.086       22.360      860.462
08/13/2014  00:45:00     -342.337       48.968      -30.027      138.226       95.622       42.179    19106.499     9143.645     1779.072        7.526        1.501      345.821       44.831        0.017      345.295       22.719      860.442
08/13/2014  00:46:00     -189.126      128.628      -24.881       78.881       95.112       44.015     6222.177     9046.292     1937.313        3.507        0.860      228.722       20.364        0.008      345.314       22.752      860.442
08/13/2014  00:47:00      -22.996       -0.302      -12.696       42.375       32.659       16.845     1795.604     1066.596      283.762        0.192        0.157       22.998       13.868        0.364      345.321       22.766      860.425
08/13/2014  00:48:00      -40.256       19.780        2.430       54.190       44.725       24.018     2936.509     2000.312      576.852        0.376        0.276       44.853       27.447        0.374      345.152       22.480      860.429
08/13/2014  00:49:00      -10.557       19.275       -4.156       25.225       33.184       15.580      636.292     1101.184      242.735        0.124        0.099       21.977       11.887        0.293      345.181       22.528      860.425
08/13/2014  00:50:00      -19.384       58.352       -0.647       55.163       78.112       35.477     3042.942     6101.489     1258.585        0.709        0.520       61.488       39.587        0.415      345.206       22.570      860.401
08/13/2014  00:51:00       -6.513      112.408       -7.395       58.672       82.035       27.274     3442.412     6729.720      743.846        1.182        0.546      112.596       18.820        0.028      345.128       22.438      860.379
08/13/2014  00:52:00      -25.503       41.347       -7.312       54.045       51.973       30.365     2920.907     2701.177      922.044        0.448        0.327       48.579       22.703        0.218      345.139       22.456      860.369
08/13/2014  00:53:00      -13.018      105.636       -0.648       32.162       52.714       33.889     1034.375     2778.739     1148.443        0.814        0.248      106.435       23.597        0.049      345.190       22.542      860.353
08/13/2014  00:54:00      -18.937       65.386        3.833       31.890       50.542       30.570     1016.977     2554.495      934.545        0.458        0.225       68.073       33.422        0.241      345.120       22.424      860.347
08/13/2014  00:55:00        1.984       43.182       -1.769       18.550       43.387       17.318      344.104     1882.447      299.902        0.220        0.126       43.228       13.377        0.096      345.148       22.472      860.341
08/13/2014  00:56:00       29.896       49.166       -4.435       46.860       26.505       19.769     2195.850      702.493      390.820        0.331        0.164       57.542       11.252        0.038      345.080       22.356      860.324
08/13/2014  00:57:00       15.001       79.901      -11.619       36.135       35.503       24.106     1305.744     1260.470      581.085        0.495        0.157       81.297       15.459        0.036      344.961       22.152      860.308
08/13/2014  00:58:00       10.500       94.131      -14.402       24.394       17.818       11.615      595.043      317.465      134.915        0.511        0.052       94.715        7.569        0.006      345.171       22.513      860.313
08/13/2014  00:59:00       61.623       63.775        2.383       52.519       19.844       22.275     2758.229      393.770      496.169        0.576        0.182       88.683       27.093        0.093      345.121       22.426      860.304
08/13/2014  01:00:00      111.420       69.193       10.599       26.482       24.170       27.062      701.281      584.177      732.364        0.967        0.101      131.157       16.789        0.016      345.090       22.372      860.307
08/13/2014  01:01:00       70.117       47.420       -3.304       40.400       23.022       28.112     1632.166      529.991      790.278        0.506        0.148       84.646       18.132        0.046      344.983       22.189      860.326
08/13/2014  01:02:00       26.360      107.138      -12.905       34.326       36.391       25.026     1178.278     1324.334      626.312        0.773        0.156      110.333       20.106        0.033      345.028       22.267      860.331
08/13/2014  01:03:00       46.074       60.890       17.938       34.817       33.699       32.588     1212.227     1135.639     1062.000        0.478        0.170       76.357       17.881        0.055      345.010       22.236      860.321
08/13/2014  01:04:00       69.138       67.153        3.083       34.158       32.560       26.148     1166.784     1060.149      683.719        0.610        0.146       96.382       21.332        0.049      345.023       22.259      860.313
08/13/2014  01:05:00       71.922       41.280       18.924       33.329       23.470       27.437     1110.789      550.825      752.777        0.482        0.121       82.927       16.028        0.037      344.978       22.181      860.307
08/13/2014  01:06:00       16.688      117.254      -25.522       26.526       49.487       21.616      703.606     2448.927      467.255        0.915        0.181      118.436       19.643        0.028      345.020       22.251      860.315
08/13/2014  01:07:00       18.174      110.914      -21.379       28.240       42.448       14.977      797.497     1801.862      224.321        0.796        0.141      112.393       18.235        0.026      344.943       22.120      860.323
08/13/2014  01:08:00       23.913      132.170      -20.077       26.047       29.015       15.822      678.427      841.863      250.326        1.011        0.089      134.316       14.736        0.012      344.890       22.031      860.327
08/13/2014  01:09:00       23.495      131.981      -22.998       21.273       21.657       14.535      452.543      469.047      211.254        0.982        0.057      134.056        8.067        0.004      345.095       22.380      860.323
08/13/2014  01:10:00      -22.256      147.369      -21.289       26.354       37.767       12.655      694.543     1426.343      160.159        1.247        0.114      149.040       14.685        0.010      345.006       22.228      860.315
08/13/2014  01:11:00        9.986       72.132       -1.771       31.119       42.335       26.809      968.401     1792.258      718.740        0.439        0.174       72.820       25.569        0.123      344.900       22.047      860.303
08/13/2014  01:12:00      -71.888       75.097      -20.454       16.928       34.677       19.089      286.567     1202.482      364.399        0.654        0.093      103.959       18.641        0.032      344.861       21.982      860.307
08/13/2014  01:13:00       10.298      145.611      -27.028       35.511       33.813       18.859     1261.029     1143.331      355.658        1.240        0.138      145.974       19.233        0.017      344.820       21.910      860.302
08/13/2014  01:14:00       -3.647      130.111      -25.398       28.269       23.767       15.541      799.148      564.879      241.532        0.960        0.080      130.162       16.077        0.015      344.785       21.850      860.292
08/13/2014  01:15:00      -49.123      135.807      -20.835       22.260       33.908       19.761      495.512     1149.726      390.513        1.166        0.102      144.418       18.406        0.016      344.815       21.902      860.288
08/13/2014  01:16:00      -67.426      120.112      -15.461       26.548       61.324       23.700      704.790     3760.666      561.707        1.212        0.251      137.743       28.456        0.043      344.868       21.992      860.283
08/13/2014  01:17:00      -47.206      137.862      -19.307       31.812       50.514       18.545     1012.023     2551.658      343.927        1.276        0.195      145.720       17.039        0.014      344.971       22.169      860.278
08/13/2014  01:18:00      -10.542      138.120      -13.984       29.906       47.424       20.054      894.396     2249.065      402.175        1.146        0.177      138.521       23.361        0.028      344.915       22.073      860.270
08/13/2014  01:19:00       29.862      160.803      -16.721       44.605       40.630       25.889     1989.575     1650.831      670.232        1.567        0.216      163.553       24.680        0.023      344.978       22.179      860.248
08/13/2014  01:20:00        8.245       73.819        3.178       29.324       49.895       34.846      859.926     2489.514     1214.238        0.504        0.228       74.279       36.997        0.248      344.893       22.037      860.225
08/13/2014  01:21:00      -80.013      112.477      -26.400       54.487       68.337       25.612     2968.839     4670.004      655.969        1.402        0.415      138.033       32.727        0.056      345.019       22.251      860.209
08/13/2014  01:22:00      -60.970      205.322      -24.291       34.012       53.528       33.319     1156.815     2865.194     1110.173        2.580        0.257      214.183       30.935        0.021      345.332       22.784      860.190
08/13/2014  01:23:00      -72.204      191.801      -26.086       41.191       65.761       33.639     1696.683     4324.551     1131.550        2.492        0.358      204.942       35.697        0.030      345.249       22.641      860.171
08/13/2014  01:24:00     -118.959       81.565      -23.771       45.047       41.683       25.296     2029.259     1737.507      639.878        1.289        0.220      144.237       22.417        0.024      345.221       22.596      860.162
08/13/2014  01:25:00     -126.009      148.838      -31.782       40.468       58.367       29.921     1637.666     3406.740      895.238        2.249        0.297      195.016       21.670        0.012      345.289       22.712      860.154
08/13/2014  01:26:00     -199.030       33.871      -21.396       67.733       54.719       39.083     4587.727     2994.116     1527.463        2.516        0.455      201.892       39.580        0.038      345.319       22.762      860.151
08/13/2014  01:27:00      -98.178       56.458      -15.205       32.893       44.723       26.737     1081.926     2000.142      714.842        0.843        0.190      113.253       18.510        0.027      345.301       22.733      860.153
08/13/2014  01:28:00      -83.368      127.599       -3.582       57.833       98.185       49.690     3344.665     9640.309     2469.052        1.935        0.773      152.420       30.527        0.040      345.300       22.730      860.149
08/13/2014  01:29:00      -69.114      132.562      -19.832       31.471       36.056       15.977      990.394     1300.071      255.273        1.264        0.127      149.497       13.456        0.008      345.395       22.894      860.139
08/13/2014  01:30:00      -77.412       99.499      -14.532       55.400       42.895       27.028     3069.126     1840.005      730.524        1.087        0.282      126.066       25.248        0.040      345.381       22.871      860.126
08/13/2014  01:31:00      -75.849       93.568      -17.429       35.623       40.235       23.564     1269.012     1618.861      555.278        0.913        0.172      120.449       18.799        0.024      345.280       22.698      860.129
08/13/2014  01:32:00      -86.763      130.743      -20.988       48.553       42.375       30.596     2357.414     1795.675      936.133        1.507        0.254      156.913       28.595        0.033      345.176       22.518      860.133
08/13/2014  01:33:00      -49.718      136.579      -24.231       23.643       49.479       19.084      558.985     2448.195      364.196        1.254        0.169      145.347       18.945        0.017      345.162       22.495      860.137
08/13/2014  01:34:00      -29.380      143.032      -15.231       31.431       43.530       20.388      987.907     1894.867      415.682        1.243        0.165      146.018       11.703        0.006      345.123       22.429      860.158
08/13/2014  01:35:00      -61.259      100.140      -12.414       36.188       49.174       30.247     1309.559     2418.121      914.894        0.929        0.232      117.391       30.624        0.068      345.107       22.400      860.188
08/13/2014  01:36:00      -91.896      112.409       -9.446       42.811       71.777       31.312     1832.745     5151.985      980.463        1.457        0.398      145.192       19.130        0.017      345.101       22.390      860.208
08/13/2014  01:37:00     -128.113       82.349      -24.672       34.809       58.542       25.538     1211.655     3427.125      652.208        1.455        0.265      152.297       21.951        0.021      345.249       22.644      860.219
08/13/2014  01:38:00      -80.996      107.170      -24.635       46.973       42.287       22.540     2206.467     1788.152      508.050        1.158        0.225      134.335       26.080        0.038      345.188       22.539      860.221
08/13/2014  01:39:00      -29.543      174.130      -29.246       28.722       25.148       13.978      824.979      632.412      195.373        1.685        0.083      176.619       11.585        0.004      345.250       22.645      860.219
08/13/2014  01:40:00        9.501      178.490      -33.463       35.023       29.173       17.417     1226.635      851.049      303.360        1.772        0.119      178.743        7.512        0.002      345.282       22.700      860.214
08/13/2014  01:41:00      -54.053      150.931      -25.241       41.905       32.560       21.759     1756.048     1060.170      473.475        1.481        0.164      160.318       17.871        0.012      345.135       22.448      860.213
08/13/2014  01:42:00      -78.011       74.548      -16.035       43.067       38.004       20.657     1854.758     1444.290      426.698        0.781        0.186      107.904       14.595        0.018      345.078       22.352      860.216
08/13/2014  01:43:00     -100.902      105.034      -23.412       31.196       35.211       17.661      973.173     1239.808      311.928        1.214        0.126      145.648       13.510        0.009      345.132       22.444      860.219
08/13/2014  01:44:00     -109.173      123.349      -29.306       15.063       17.210       14.455      226.903      296.193      208.942        1.436        0.037      164.723       10.005        0.004      345.120       22.424      860.230
08/13/2014  01:45:00      -84.536       50.386      -18.789       26.952       26.523       18.661      726.396      703.471      348.243        0.591        0.089       98.413       17.783        0.033      345.075       22.344      860.248
08/13/2014  01:46:00      -59.143       74.516      -15.346       14.768       13.790       10.879      218.098      190.173      118.347        0.491        0.026       95.134        7.987        0.007      345.063       22.326      860.259
08/13/2014  01:47:00      -61.638       67.112      -11.894       24.714       22.282       12.772      610.773      496.470      163.136        0.486        0.064       91.122       12.703        0.019      345.031       22.272      860.251
08/13/2014  01:48:00      -73.733       63.102      -13.405       34.994       29.729       20.340     1224.547      883.824      413.719        0.606        0.126       97.049       20.627        0.045      344.942       22.118      860.232
08/13/2014  01:49:00     -107.174       88.673      -15.879       46.675       46.360       24.910     2178.596     2149.246      620.499        1.227        0.247      139.101       27.047        0.038      344.950       22.132      860.221
08/13/2014  01:50:00     -114.355       98.830      -24.760       46.970       39.408       26.043     2206.155     1553.024      678.215        1.395        0.222      151.143       28.847        0.036      344.930       22.098      860.201
08/13/2014  01:51:00     -120.457       94.088      -23.519       35.827       34.747       22.390     1283.571     1207.371      501.302        1.345        0.150      152.848       20.925        0.019      344.905       22.055      860.193
08/13/2014  01:52:00     -109.353       54.806      -23.091       31.327       36.896       22.173      981.408     1361.333      491.659        0.916        0.142      122.318       20.380        0.028      344.919       22.081      860.182
08/13/2014  01:53:00      -73.301      -11.010       -6.889       28.595       28.563       18.271      817.684      815.839      333.820        0.375        0.098       74.123       15.929        0.046      344.846       21.955      860.181
08/13/2014  01:54:00      -88.370       -6.838       -8.921       36.097       49.582       24.326     1303.000     2458.410      591.737        0.614        0.218       88.634       20.234        0.052      344.970       22.167      860.174
08/13/2014  01:55:00     -189.712      -32.418      -10.851       83.378       67.131       39.744     6951.933     4506.540     1579.586        2.510        0.652      192.462       40.189        0.044      345.064       22.324      860.170
08/13/2014  01:56:00      -93.940       15.352      -13.228       51.562       88.904       26.350     2658.659     7903.853      694.314        1.024        0.563       95.187       28.674        0.091      345.340       22.800      860.144
08/13/2014  01:57:00     -111.061       15.591      -14.756       39.323       33.326       24.473     1546.278     1110.619      598.952        0.802        0.163      112.150       15.923        0.020      345.166       22.502      860.112
08/13/2014  01:58:00     -115.992       63.248      -18.504       57.657       50.462       33.314     3324.351     2546.423     1109.794        1.239        0.349      132.115       34.571        0.068      345.195       22.553      860.095
08/13/2014  01:59:00      -67.066        7.531       -8.728       45.913       55.646       24.969     2108.035     3096.488      623.455        0.523        0.291       67.487       17.622        0.068      345.047       22.299      860.087
08/13/2014  02:00:00      -18.318      -11.481        2.384       35.587       24.435       25.793     1266.459      597.061      665.304        0.150        0.126       21.619       19.549        0.818      345.072       22.341      860.072
08/13/2014  02:01:00        0.347      -22.968        9.021       22.791       38.279       17.733      519.414     1465.306      314.465        0.145        0.115       22.970        9.880        0.185      345.029       22.268      860.074
08/13/2014  02:02:00      -30.457       71.435      -10.660       26.137       50.017       21.213      683.117     2501.742      449.974        0.489        0.182       77.657       22.433        0.083      345.071       22.340      860.085
08/13/2014  02:03:00      -48.717       70.938       -7.152       28.564       48.633       18.923      815.883     2365.186      358.075        0.550        0.177       86.055       22.299        0.067      345.021       22.255      860.093
08/13/2014  02:04:00      -55.790       35.841        2.562       39.311       26.970       26.829     1545.335      727.372      719.814        0.370        0.150       66.311       27.101        0.167      344.966       22.160      860.100
08/13/2014  02:05:00      -94.260       18.442       -5.689       20.463       24.597       18.861      418.720      604.988      355.742        0.532        0.069       96.047       10.329        0.012      345.024       22.260      860.112
08/13/2014  02:06:00      -43.082        5.298       -5.477       21.399       18.830       14.222      457.902      354.576      202.260        0.146        0.051       43.407       10.731        0.061      344.992       22.205      860.114
08/13/2014  02:07:00      -18.438       11.377        8.089       27.463       14.896       12.319      754.225      221.878      151.748        0.083        0.056       21.666       15.464        0.509      344.851       21.963      860.127
08/13/2014  02:08:00       14.457       71.990      -10.253       26.844       33.937       19.144      720.583     1151.750      366.495        0.387        0.112       73.427       19.539        0.071      344.863       21.984      860.138
08/13/2014  02:09:00      111.681       50.129        6.165       54.760       35.911       27.309     2998.642     1289.585      745.776        1.003        0.252      122.415        9.661        0.006      344.637       21.597      860.131
08/13/2014  02:10:00      144.892      107.392        9.853       55.394       44.098       33.597     3068.534     1944.610     1128.730        1.938        0.307      180.352       23.686        0.017      344.453       21.282      860.119
08/13/2014  02:11:00      200.447      125.598       23.245       70.949       48.558       43.697     5033.810     2357.889     1909.415        3.290        0.465      236.546       21.604        0.008      344.509       21.374      860.106
08/13/2014  02:12:00       80.953       88.313       11.053       65.885       57.661       44.353     4340.791     3324.790     1967.226        1.205        0.482      119.802       37.570        0.098      344.522       21.400      860.105
08/13/2014  02:13:00      178.767      101.811       29.296       82.217       52.300       47.374     6759.609     2735.241     2244.310        2.746        0.587      205.726       31.382        0.023      344.587       21.509      860.106
08/13/2014  02:14:00       98.674      118.370        0.735       82.351       67.336       49.347     6781.729     4534.119     2435.111        1.875        0.688      154.104       31.005        0.040      344.785       21.848      860.098
08/13/2014  02:15:00       81.778      126.117       -3.068       82.960       71.639       64.994     6882.344     5132.208     4224.239        1.942        0.812      150.311       48.330        0.103      344.810       21.890      860.084
08/13/2014  02:16:00       81.357      104.177       -7.567       72.279       46.891       43.727     5224.191     2198.769     1912.075        1.343        0.467      132.181       24.143        0.033      344.993       22.205      860.076
08/13/2014  02:17:00       18.328      109.878      -17.613       22.188       40.310       20.325      492.315     1624.914      413.093        0.762        0.127      111.396       19.996        0.032      345.136       22.451      860.072
08/13/2014  02:18:00       -3.527       98.851      -12.576       24.213       50.718       18.821      586.269     2572.294      354.224        0.673        0.176       98.914       25.451        0.066      345.042       22.289      860.074
08/13/2014  02:19:00       -7.486      137.811      -21.608       21.472       19.038        9.744      461.031      362.463       94.948        1.022        0.046      138.015        5.515        0.002      344.940       22.116      860.074
08/13/2014  02:20:00      -19.441       96.888      -15.896       27.415       23.527       19.499      751.598      553.505      380.204        0.585        0.084       98.819        6.944        0.005      345.064       22.329      860.074
08/13/2014  02:21:00      -16.278      101.838      -17.200       28.890       37.394       12.213      834.611     1398.290      149.163        0.666        0.119      103.130       17.742        0.030      344.926       22.090      860.070
08/13/2014  02:22:00      -34.823       72.686      -10.707       34.457       24.304       19.216     1187.276      590.682      369.260        0.438        0.107       80.597       17.448        0.047      344.772       21.828      860.067
08/13/2014  02:23:00      -28.156       81.935      -12.143       30.416       31.057       17.319      925.160      964.539      299.939        0.492        0.109       86.638        8.219        0.009      344.761       21.810      860.062
08/13/2014  02:24:00      -10.959      117.018      -14.782       30.297       36.328       21.725      917.911     1319.746      471.996        0.837        0.135      117.530       16.894        0.021      344.790       21.859      860.068
08/13/2014  02:25:00      -60.392       70.755      -19.004       37.410       28.035       19.025     1399.474      785.940      361.955        0.578        0.127       93.024       21.868        0.055      344.819       21.908      860.070
08/13/2014  02:26:00      -41.793       25.978       -9.997       26.679       28.281       18.331      711.769      799.840      336.009        0.218        0.092       49.209       18.608        0.143      344.736       21.766      860.070
08/13/2014  02:27:00      -55.569       12.919       -5.223       36.254       33.080       18.242     1314.369     1094.264      332.765        0.301        0.137       57.051       20.981        0.135      344.714       21.727      860.053
08/13/2014  02:28:00      -58.716       32.552      -11.488       27.156       38.786       24.802      737.422     1504.378      615.160        0.375        0.143       67.136       22.624        0.114      344.678       21.668      860.048
08/13/2014  02:29:00      -39.383       60.642      -15.132       21.660       23.587       13.553      469.141      556.361      183.682        0.333        0.060       72.309       12.680        0.031      344.668       21.651      860.056
08/13/2014  02:30:00      -30.985       61.615      -15.999       24.782       24.228       16.630      614.124      587.013      276.549        0.324        0.074       68.967       12.811        0.035      344.592       21.522      860.058
08/13/2014  02:31:00       28.071      133.220      -21.560       29.841       42.518       21.804      890.467     1807.803      475.423        1.109        0.159      136.146       25.367        0.035      344.587       21.512      860.060
08/13/2014  02:32:00      -31.044       56.226      -16.826       31.554       30.812       11.959      995.639      949.365      143.025        0.325        0.104       64.227       16.923        0.069      344.555       21.457      860.063
08/13/2014  02:33:00      -84.430       19.324      -10.188       14.338       13.256        9.041      205.590      175.714       81.734        0.403        0.023       86.613        6.771        0.006      344.477       21.322      860.063
08/13/2014  02:34:00     -103.330       23.347      -19.643       23.285       28.963       12.911      542.195      838.840      166.688        0.658        0.077      105.934       10.745        0.010      344.446       21.269      860.078
08/13/2014  02:35:00     -105.676       -0.471      -13.331       24.445       28.934       13.507      597.539      837.187      182.438        0.648        0.081      105.677       11.345        0.012      344.369       21.138      860.079
08/13/2014  02:36:00      -70.286      -12.411      -11.514       22.714       29.950       16.433      515.939      897.029      270.033        0.345        0.084       71.373       12.380        0.030      344.315       21.045      860.079
08/13/2014  02:37:00      -55.831      -12.364       -9.875       20.252       22.182       14.270      410.132      492.063      203.642        0.224        0.055       57.184       11.578        0.041      344.216       20.876      860.071
08/13/2014  02:38:00      -18.919      -14.823       -5.048       25.024       16.594       14.636      626.206      275.370      214.200        0.086        0.056       24.034       10.465        0.190      344.212       20.871      860.067
08/13/2014  02:39:00        5.358       36.691       -5.498       16.179       20.076       11.275      261.775      403.047      127.123        0.110        0.040       37.080       11.184        0.091      344.405       21.201      860.066
08/13/2014  02:40:00      -31.402        2.841       -9.493       20.758       28.845        7.934      430.906      832.046       62.948        0.120        0.066       31.531       10.114        0.103      344.301       21.025      860.066
08/13/2014  02:41:00      -53.837       10.395       -9.187       16.522       12.561       11.900      272.992      157.779      141.606        0.183        0.029       54.831       10.281        0.035      344.321       21.056      860.076
08/13/2014  02:42:00      -62.483       18.289       -9.786       23.527       17.145       10.650      553.519      293.967      113.415        0.265        0.048       65.104        9.540        0.021      344.411       21.210      860.075
08/13/2014  02:43:00      -57.805       56.102      -14.183       15.345       24.750        9.466      235.465      612.577       89.601        0.381        0.047       80.554        9.688        0.014      344.549       21.448      860.059
08/13/2014  02:44:00      -45.518       72.965       -9.901       22.676       27.029       11.981      514.188      730.579      143.534        0.444        0.069       85.999       12.028        0.020      344.491       21.348      860.052
08/13/2014  02:45:00      -48.064       78.712      -12.204       20.200       14.058       10.642      408.026      197.634      113.254        0.469        0.036       92.226        7.054        0.006      344.478       21.325      860.045
08/13/2014  02:46:00      -50.177       91.807      -15.403       19.702       27.826       12.566      388.155      774.259      157.907        0.625        0.066      104.624        7.801        0.006      344.468       21.307      860.035
08/13/2014  02:47:00      -59.345       90.660      -13.645       30.857       34.930       20.369      952.136     1220.125      414.913        0.726        0.129      108.356       13.493        0.016      344.613       21.556      860.025
08/13/2014  02:48:00      -38.630      117.356      -18.815       23.691       34.561       14.391      561.240     1194.496      207.088        0.879        0.098      123.551       14.089        0.013      344.615       21.558      860.021
08/13/2014  02:49:00      -47.828      116.581      -18.620       21.971       36.386       15.793      482.742     1323.966      249.406        0.914        0.103      126.011        5.731        0.002      344.587       21.511      860.022
08/13/2014  02:50:00      -35.132      140.347      -17.944       27.436       32.094       22.813      752.760     1030.055      520.429        1.178        0.115      144.677       22.442        0.024      344.726       21.748      860.021
08/13/2014  02:51:00      -30.791      116.451      -17.191       24.304       58.141       18.480      590.684     3380.329      341.494        0.956        0.216      120.452       25.448        0.045      344.632       21.589      860.018
08/13/2014  02:52:00      -28.982       47.768       -3.193       18.599       25.718       17.673      345.916      661.411      312.320        0.223        0.066       55.872        7.476        0.018      344.423       21.231      860.029
08/13/2014  02:53:00      -51.849       58.251      -15.374       26.482       46.066       17.512      701.323     2122.096      306.668        0.472        0.157       77.984       23.332        0.090      344.494       21.352      860.040
08/13/2014  02:54:00      -61.769       28.963       -6.791       23.377       29.264       16.701      546.462      856.358      278.931        0.319        0.084       68.222       12.032        0.031      344.480       21.329      860.047
08/13/2014  02:55:00      -76.202       42.689      -14.072       29.899       20.918       15.071      893.969      437.556      227.146        0.469        0.078       87.345       12.876        0.022      344.512       21.384      860.059
08/13/2014  02:56:00      -47.324       40.373       -7.016       26.800       23.172       15.971      718.230      536.955      255.076        0.271        0.076       62.205       14.982        0.058      344.497       21.357      860.074
08/13/2014  02:57:00      -31.036       45.516       -8.797       20.057       36.590       18.997      402.278     1338.858      360.875        0.261        0.105       55.090       18.008        0.107      344.436       21.253      860.094
08/13/2014  02:58:00       -8.214       25.955        3.882       19.860       18.025       16.737      394.403      324.918      280.113        0.088        0.050       27.223       15.913        0.342      344.431       21.245      860.104
08/13/2014  02:59:00       -8.960        3.801        6.983       23.089       15.718       11.016      533.096      247.069      121.360        0.052        0.045        9.733        7.737        0.632      344.375       21.148      860.115
08/13/2014  03:00:00       13.307       31.223       -4.578       14.831       16.168        9.974      219.960      261.392       99.489        0.088        0.029       33.940        7.723        0.052      344.489       21.345      860.130
08/13/2014  03:01:00       -7.447        5.536       -1.200        9.657       17.244        9.593       93.266      297.350       92.018        0.028        0.024        9.279        9.184        0.980      344.462       21.299      860.145
08/13/2014  03:02:00      -15.649      -10.549       -1.347       14.407       17.266        4.863      207.554      298.100       23.649        0.044        0.026       18.873        4.759        0.064      344.373       21.142      860.162
08/13/2014  03:03:00      -37.416      -23.806       -3.710       12.633        9.221        5.757      159.600       85.026       33.144        0.113        0.014       44.347        5.040        0.013      344.168       20.796      860.179
08/13/2014  03:04:00      -83.424      -35.381       -9.307       18.319       13.901        8.646      335.601      193.238       74.753        0.445        0.030       90.617        4.928        0.003      344.040       20.577      860.194
08/13/2014  03:05:00      -88.803      -42.450       -2.722       35.651       21.077       15.167     1270.964      444.251      230.035        0.582        0.097       98.427       13.488        0.019      343.864       20.276      860.212
08/13/2014  03:06:00      -93.032      -52.214       -0.034       45.090       25.420       20.017     2033.105      646.170      400.696        0.723        0.154      106.683       18.417        0.030      343.838       20.234      860.222
08/13/2014  03:07:00      -97.510      -65.801       -0.760       37.248       30.966       27.801     1387.436      958.866      772.889        0.848        0.156      117.635       21.459        0.033      343.773       20.122      860.238
08/13/2014  03:08:00     -137.698      -62.307       -8.291       25.576       23.203       18.471      654.109      538.383      341.192        1.222        0.077      151.138       14.174        0.009      343.751       20.082      860.255
08/13/2014  03:09:00     -110.948      -38.916       -2.664       47.787       28.819       20.441     2283.583      830.536      417.818        0.868        0.177      117.575       26.958        0.053      343.760       20.097      860.249
08/13/2014  03:10:00     -101.071      -17.403       -8.217       21.760       26.379       11.851      473.490      695.861      140.436        0.595        0.065      102.559       11.043        0.012      343.656       19.920      860.254
08/13/2014  03:11:00      -96.162       10.302      -14.410       32.222       19.071       18.162     1038.274      363.703      329.873        0.565        0.087       96.713        4.720        0.002      343.576       19.785      860.247
08/13/2014  03:12:00      -63.429       15.100      -14.294       16.361       21.011       12.173      267.690      441.458      148.171        0.266        0.043       65.202        9.670        0.022      343.815       20.193      860.234
08/13/2014  03:13:00      -49.644       55.282      -16.563       13.475       22.642        9.851      181.576      512.678       97.036        0.329        0.040       74.301       10.989        0.022      344.145       20.757      860.217
08/13/2014  03:14:00      -40.447       28.143      -10.014       13.502       12.584        9.747      182.302      158.366       95.001        0.148        0.022       49.275        9.265        0.035      344.144       20.754      860.201
08/13/2014  03:15:00      -39.781       30.481      -10.729       14.447       26.325        7.379      208.725      693.029       54.457        0.179        0.048       50.116        8.094        0.026      344.030       20.561      860.186
08/13/2014  03:16:00      -55.893      -19.348       -5.869       16.559       19.449       12.489      274.202      378.258      155.988        0.217        0.040       59.147        7.245        0.015      343.762       20.102      860.186
08/13/2014  03:17:00      -76.391      -15.961       -8.999       29.056       17.360       13.209      844.255      301.373      174.478        0.375        0.066       78.041       10.495        0.018      343.682       19.964      860.192
08/13/2014  03:18:00      -79.180       -1.160       -6.737       29.974       24.180       24.698      898.419      584.678      610.004        0.420        0.105       79.188       19.626        0.061      343.576       19.785      860.186
08/13/2014  03:19:00      -92.962        0.454       -9.114       31.816       27.468       21.018     1012.281      754.509      441.757        0.547        0.110       92.963       17.035        0.034      343.598       19.823      860.183
08/13/2014  03:20:00      -78.715      -47.651       -9.941       26.059       26.778       12.372      679.053      717.055      153.065        0.506        0.077       92.015       11.943        0.017      343.611       19.844      860.176
08/13/2014  03:21:00      -24.970      -28.496        0.614       33.345       16.920       20.467     1111.877      286.283      418.880        0.163        0.091       37.889       16.654        0.193      343.543       19.728      860.175
08/13/2014  03:22:00      -56.053      -38.932      -10.536       27.401       21.304       15.670      750.821      453.871      245.552        0.311        0.073       68.247        9.251        0.018      343.522       19.694      860.185
08/13/2014  03:23:00      -76.015      -22.843      -12.072       11.042       14.696        9.865      121.921      215.967       97.322        0.344        0.022       79.373        6.460        0.007      343.521       19.692      860.197
08/13/2014  03:24:00      -86.988      -17.294      -11.543       13.167       13.342       11.647      173.368      178.017      135.654        0.424        0.024       88.691        7.595        0.007      343.498       19.652      860.196
08/13/2014  03:25:00      -98.605       -9.901      -17.439       14.522       14.163       11.207      210.892      200.577      125.592        0.533        0.027       99.101        4.391        0.002      343.489       19.637      860.188
08/13/2014  03:26:00     -109.167      -49.748      -13.159       22.892       20.310       12.552      524.063      412.508      157.558        0.783        0.055      119.968       13.235        0.012      343.467       19.598      860.191
08/13/2014  03:27:00     -106.091      -60.823       -2.900       25.593       20.337       15.776      655.010      413.612      248.898        0.814        0.066      122.290       13.470        0.012      343.401       19.486      860.200
08/13/2014  03:28:00      -96.574      -60.669        2.706       32.859       24.953       17.890     1079.713      622.657      320.044        0.752        0.101      114.049       15.999        0.020      343.394       19.474      860.223
08/13/2014  03:29:00      -93.511      -65.774        5.073       44.422       34.208       26.683     1973.355     1170.154      712.007        0.848        0.193      114.326       24.066        0.044      343.397       19.481      860.250
08/13/2014  03:30:00     -133.643      -67.356        3.079       66.168       43.432       27.584     4378.192     1886.344      760.866        1.471        0.351      149.657       32.303        0.047      343.436       19.545      860.262
08/13/2014  03:31:00     -117.928      -25.583        9.753       50.469       40.426       25.279     2547.106     1634.288      639.018        0.974        0.241      120.671       20.193        0.028      343.441       19.556      860.263
08/13/2014  03:32:00     -130.246      -37.548        1.257       48.675       30.092       25.005     2369.245      905.526      625.229        1.114        0.195      135.551       28.316        0.044      343.472       19.607      860.261
08/13/2014  03:33:00     -128.484      -20.786       -1.662       52.737       36.101       24.276     2781.163     1303.306      589.319        1.081        0.234      130.154       27.693        0.045      343.427       19.531      860.258
08/13/2014  03:34:00     -157.369       19.046      -14.040       31.056       29.369       18.841      964.476      862.514      354.993        1.375        0.109      158.518       11.691        0.005      343.522       19.693      860.243
08/13/2014  03:35:00     -136.526       20.023      -12.599       35.340       33.405       17.073     1248.925     1115.891      291.493        1.093        0.133      137.987       13.750        0.010      343.502       19.657      860.235
08/13/2014  03:36:00     -108.018       23.938       -3.188       63.499       37.611       30.732     4032.156     1414.580      944.480        0.932        0.320      110.639       36.815        0.111      343.588       19.806      860.235
08/13/2014  03:37:00     -172.765       40.327      -17.192       39.575       36.430       23.693     1566.194     1327.115      561.376        1.761        0.173      177.409       18.997        0.011      343.674       19.954      860.230
08/13/2014  03:38:00      -81.029       18.331      -10.476       38.318       35.160       23.178     1468.233     1236.251      537.231        0.513        0.162       83.076       20.367        0.060      343.563       19.762      860.223
08/13/2014  03:39:00      -71.100      -30.978       -6.307       25.692       26.271       16.976      660.093      690.144      288.176        0.385        0.082       77.555       14.985        0.037      343.570       19.773      860.224
08/13/2014  03:40:00      -46.000      -15.486       -3.496       16.452       16.458       10.181      270.679      270.872      103.656        0.151        0.032       48.537        5.073        0.011      343.491       19.641      860.234
08/13/2014  03:41:00      -72.652      -22.210       -3.778       24.206       17.545       12.385      585.927      307.833      153.400        0.342        0.052       75.971        9.738        0.016      343.531       19.708      860.231
08/13/2014  03:42:00      -62.796      -10.961      -10.846       12.399       15.920        8.794      153.734      253.440       77.332        0.233        0.024       63.745        7.887        0.015      343.512       19.676      860.220
08/13/2014  03:43:00      -42.530      -10.578        0.081       22.773       14.618       13.560      518.595      213.693      183.873        0.142        0.046       43.825       15.214        0.121      343.539       19.721      860.202
08/13/2014  03:44:00      -65.616        5.726      -10.987       30.627       15.215       10.737      937.989      231.482      115.293        0.287        0.064       65.866       13.909        0.045      343.583       19.797      860.189
08/13/2014  03:45:00      -87.740        8.769      -13.963       17.023       15.805       14.217      289.791      249.802      202.131        0.436        0.037       88.177        8.396        0.009      343.646       19.904      860.181
08/13/2014  03:46:00      -60.494        0.024      -10.457       11.604       11.852        9.408      134.659      140.472       88.502        0.207        0.018       60.494        6.587        0.012      343.607       19.838      860.180
08/13/2014  03:47:00      -43.863       -5.655       -9.011       16.258        8.875        6.521      264.336       78.774       42.530        0.121        0.019       44.226        7.520        0.029      343.624       19.867      860.194
08/13/2014  03:48:00       -3.117       -4.183       -2.147       11.982        9.204        8.463      143.559       84.711       71.625        0.017        0.015        5.217        3.625        0.483      343.552       19.743      860.211
08/13/2014  03:49:00       14.622        7.664        1.450       11.342       13.587       11.327      128.631      184.600      128.309        0.036        0.022       16.509        9.340        0.320      343.755       20.089      860.247
08/13/2014  03:50:00      -14.731        1.433        7.495       13.132       10.244       14.156      172.458      104.943      200.401        0.038        0.024       14.800       11.523        0.606      343.742       20.069      860.258
08/13/2014  03:51:00      -50.512      -27.409       -4.533       19.563       14.301       11.918      382.709      204.519      142.039        0.203        0.036       57.469        7.902        0.019      343.723       20.034      860.254
08/13/2014  03:52:00      -76.527      -17.506      -10.006       12.600        8.660        6.046      158.771       74.998       36.559        0.327        0.014       78.504        2.768        0.001      343.491       19.641      860.258
08/13/2014  03:53:00      -79.177       -5.644      -14.863       13.925       11.142       10.894      193.911      124.149      118.681        0.348        0.022       79.378        9.961        0.016      343.449       19.568      860.258
08/13/2014  03:54:00      -77.371        8.315      -10.367       39.058       14.050       15.938     1525.556      197.402      254.012        0.407        0.099       77.817       16.238        0.044      343.457       19.581      860.253
08/13/2014  03:55:00      -36.572       -3.423       -2.072       32.548       27.409       13.971     1059.346      751.240      195.202        0.168        0.100       36.731       14.221        0.150      343.381       19.452      860.249
08/13/2014  03:56:00      -69.388       -8.752       -7.260       30.446       25.930       14.692      926.942      672.354      215.845        0.338        0.091       69.937       13.420        0.037      343.396       19.476      860.249
08/13/2014  03:57:00      -91.108      -13.237      -12.829       27.867       23.409       14.458      776.595      547.971      209.044        0.509        0.077       92.065       10.137        0.012      343.436       19.546      860.243
08/13/2014  03:58:00      -79.386      -28.198       -4.996       15.531       19.679       15.510      241.217      387.275      240.570        0.400        0.043       84.245        6.378        0.006      343.430       19.534      860.245
08/13/2014  03:59:00      -54.645      -33.440       -9.047       22.604       20.394       13.282      510.939      415.918      176.417        0.264        0.055       64.065        7.184        0.013      343.426       19.528      860.261
08/13/2014  04:00:00      -53.609      -28.287       -1.767       25.883       20.445       14.017      669.953      418.014      196.481        0.248        0.064       60.615       13.739        0.051      343.379       19.446      860.266
08/13/2014  04:01:00      -81.763        4.223      -10.887       24.843       24.656       14.486      617.191      607.940      209.842        0.413        0.072       81.872        8.666        0.011      343.334       19.374      860.265
08/13/2014  04:02:00      -76.682       30.350      -14.901       21.219       17.451       11.928      450.225      304.526      142.271        0.396        0.045       82.469        8.652        0.011      343.390       19.468      860.254
08/13/2014  04:03:00      -81.416       63.531      -17.678       26.714       29.055       18.532      713.636      844.176      343.442        0.644        0.095      103.270       13.648        0.017      343.700       19.997      860.252
08/13/2014  04:04:00      -51.137       44.130      -12.078       27.895       33.458       18.631      778.142     1119.441      347.127        0.348        0.112       67.546       21.414        0.101      343.601       19.826      860.269
08/13/2014  04:05:00      -10.017      -15.589       -5.276        8.932       18.529        8.845       79.783      343.337       78.227        0.044        0.025       18.530        5.857        0.100      343.374       19.440      860.280
08/13/2014  04:06:00      -26.943      -28.814      -12.042       18.249       14.678       10.327      333.009      215.438      106.651        0.118        0.033       39.448        5.984        0.023      343.412       19.506      860.285
08/13/2014  04:07:00      -69.436      -25.598      -15.230       20.615       15.252       12.390      424.962      232.618      153.505        0.326        0.041       74.004        8.109        0.012      343.361       19.419      860.273
08/13/2014  04:08:00      -77.420       -8.923      -18.310       11.586       13.338       11.511      134.244      177.913      132.499        0.343        0.022       77.932        5.246        0.005      343.254       19.236      860.259
08/13/2014  04:09:00      -99.396        3.920      -17.312       14.947       11.792        9.508      223.413      139.054       90.399        0.532        0.023       99.473        5.802        0.003      343.220       19.176      860.247
08/13/2014  04:10:00      -53.209       23.399      -15.927       22.194       19.238       13.497      492.595      370.101      182.168        0.234        0.052       58.127        9.829        0.029      343.299       19.313      860.233
08/13/2014  04:11:00      -55.559       11.974      -10.709       24.465       26.911       15.694      598.548      724.195      246.300        0.246        0.078       56.835       16.115        0.080      343.515       19.681      860.232
08/13/2014  04:12:00      -30.854      -11.291       -0.329       19.876       17.303       12.550      395.039      299.405      157.492        0.097        0.043       32.855       11.362        0.120      343.450       19.571      860.225
08/13/2014  04:13:00      -27.998      -32.932      -11.510       22.101       19.202       14.651      488.459      368.704      214.661        0.154        0.054       43.225       11.385        0.069      343.372       19.436      860.235
08/13/2014  04:14:00      -60.374      -28.491       -9.015       35.704       20.481       15.386     1274.767      419.468      236.728        0.323        0.097       66.759       14.599        0.048      343.268       19.261      860.246
08/13/2014  04:15:00      -69.566      -35.467       -5.981       30.297       12.117        9.995      917.892      146.834       99.891        0.365        0.058       78.085       10.069        0.017      343.218       19.174      860.244
08/13/2014  04:16:00       -2.444      -19.634        5.373       15.391       20.236       11.515      236.870      409.487      132.587        0.060        0.039       19.785        8.494        0.184      343.276       19.274      860.235
08/13/2014  04:17:00      -29.969      -13.151       -0.751       14.009       13.249        9.202      196.242      175.548       84.678        0.076        0.023       32.727        9.490        0.084      343.392       19.470      860.219
08/13/2014  04:18:00      -30.797       -9.031       -4.136        7.404        8.914        5.404       54.824       79.464       29.207        0.061        0.008       32.094        4.445        0.019      343.404       19.491      860.203
08/13/2014  04:19:00      -26.250       10.002       -6.845       18.234        8.626        6.229      332.468       74.407       38.798        0.064        0.022       28.091        3.846        0.019      343.581       19.793      860.190
08/13/2014  04:20:00      -12.030       32.628       -5.024       15.594       17.643        8.040      243.164      311.261       64.642        0.093        0.031       34.775        7.847        0.051      343.602       19.830      860.187
08/13/2014  04:21:00       16.724       61.415       -6.827       15.339       12.985        6.823      235.280      168.612       46.555        0.227        0.023       63.652        7.149        0.013      343.807       20.179      860.182
08/13/2014  04:22:00       19.229       30.110       -1.525       14.207       22.731        9.653      201.837      516.704       93.186        0.105        0.041       35.727       10.935        0.094      343.744       20.069      860.182
08/13/2014  04:23:00       21.157        9.585        2.441        9.174        7.939        5.297       84.168       63.031       28.056        0.036        0.009       23.227        4.918        0.045      343.635       19.884      860.194
08/13/2014  04:24:00       12.589       17.178        0.004        8.634        9.696        3.539       74.543       94.013       12.526        0.032        0.009       21.297        3.761        0.031      343.633       19.880      860.202
08/13/2014  04:25:00       13.802       28.960       -7.200       12.912       11.466        6.568      166.723      131.477       43.135        0.071        0.017       32.081        5.340        0.028      343.647       19.905      860.206
08/13/2014  04:26:00        1.743       49.630      -10.960       10.948        7.491        4.974      119.866       56.122       24.741        0.139        0.010       49.661        5.644        0.013      343.756       20.092      860.205
08/13/2014  04:27:00      -42.559       23.026      -13.100       25.090       29.930        7.697      629.522      895.777       59.237        0.205        0.079       48.389        9.086        0.035      343.571       19.775      860.198
08/13/2014  04:28:00      -42.820      -32.787       -8.089       17.185       11.071        9.832      295.339      122.573       96.660        0.174        0.026       53.931        4.414        0.007      343.132       19.028      860.205
08/13/2014  04:29:00      -58.410       -4.696      -10.245       23.218       22.002       10.019      539.053      484.082      100.389        0.233        0.056       58.599        3.832        0.004      343.124       19.015      860.199
08/13/2014  04:30:00      -46.193       25.534      -10.957       28.253       15.663        8.570      798.227      245.322       73.440        0.201        0.056       52.780        6.120        0.013      343.405       19.494      860.185
08/13/2014  04:31:00       37.666       20.443       -1.048       25.202       14.721        8.897      635.118      216.716       79.161        0.138        0.047       42.856        5.867        0.019      343.612       19.844      860.196
08/13/2014  04:32:00       44.507       34.087        4.388       17.656       14.159        8.579      311.748      200.486       73.597        0.187        0.029       56.061        6.537        0.014      343.687       19.974      860.200
08/13/2014  04:33:00       27.131       60.662       -6.810       15.539       17.351        9.545      241.449      301.071       91.107        0.255        0.032       66.453        8.072        0.015      343.932       20.393      860.179
08/13/2014  04:34:00       16.129       73.315      -10.861       17.942       13.472        9.123      321.898      181.493       83.228        0.317        0.029       75.068        7.534        0.010      343.865       20.279      860.170
08/13/2014  04:35:00       12.005       93.495      -13.986       12.673       12.863        7.411      160.616      165.456       54.924        0.473        0.019       94.262        6.013        0.004      343.823       20.207      860.147
08/13/2014  04:36:00       20.258       79.640      -12.156       15.298       19.748       10.065      234.016      389.978      101.298        0.381        0.036       82.176       10.474        0.016      343.896       20.330      860.136
08/13/2014  04:37:00      -44.625       12.977      -10.989       25.028       32.818       10.582      626.423     1077.021      111.980        0.205        0.091       46.473        5.277        0.013      343.602       19.829      860.144
08/13/2014  04:38:00      -69.902      -19.508      -11.664       10.629        9.800        8.426      112.976       96.038       70.995        0.284        0.014       72.573        6.996        0.009      343.196       19.137      860.157
08/13/2014  04:39:00      -77.311       -3.947      -13.714       22.691       22.199       12.182      514.877      492.804      148.399        0.367        0.058       77.412        9.824        0.016      342.972       18.755      860.170
08/13/2014  04:40:00     -105.055       19.382      -22.233       27.025       25.549       15.558      730.324      652.774      242.041        0.677        0.081      106.828       12.798        0.014      342.824       18.502      860.173
08/13/2014  04:41:00      -71.152       62.495      -12.436       35.802       48.678       28.725     1281.776     2369.569      825.147        0.680        0.224       94.701       24.964        0.069      343.149       19.057      860.156
08/13/2014  04:42:00     -112.265       63.039      -14.071       30.137       29.147       20.372      908.209      849.554      415.008        0.947        0.109      128.753       16.155        0.016      343.242       19.215      860.131
08/13/2014  04:43:00      -82.674       25.911      -14.247       27.226       25.474       16.192      741.266      648.949      262.176        0.468        0.083       86.639       13.065        0.023      343.103       18.979      860.111
08/13/2014  04:44:00      -59.054      -16.410      -13.742       16.260       22.468       15.818      264.392      504.831      250.205        0.248        0.051       61.292        4.734        0.006      343.065       18.913      860.112
08/13/2014  04:45:00      -41.161      -14.671       -1.181       29.960       21.430       16.096      897.575      459.240      259.085        0.176        0.081       43.698       10.547        0.058      342.927       18.680      860.118
08/13/2014  04:46:00     -104.120      -24.175      -16.265       25.313       26.938       16.982      640.735      725.648      288.392        0.667        0.083      106.890       13.214        0.015      342.782       18.432      860.124
08/13/2014  04:47:00     -102.612      -15.403      -17.497       20.367       15.813       14.276      414.819      250.045      203.800        0.597        0.043      103.762       10.290        0.010      342.901       18.636      860.117
08/13/2014  04:48:00     -109.633       -4.010      -24.497       25.476       18.007       12.317      649.035      324.248      151.699        0.688        0.056      109.706        6.681        0.004      342.924       18.675      860.082
08/13/2014  04:49:00     -131.066        0.846      -22.771       32.573       24.045       18.874     1061.012      578.141      356.225        0.985        0.100      131.068       19.725        0.023      342.855       18.558      860.078
08/13/2014  04:50:00      -89.160       20.514      -22.431       39.217       44.850       23.988     1537.962     2011.535      575.428        0.650        0.206       91.489       14.960        0.027      342.831       18.515      860.091
08/13/2014  04:51:00      -63.238        7.517      -14.025       30.033       25.996       19.269      902.003      675.786      371.302        0.310        0.097       63.683       12.900        0.041      342.832       18.517      860.104
08/13/2014  04:52:00      -87.256       15.453      -18.521       29.017       23.298       13.515      841.972      542.789      182.645        0.488        0.078       88.614       12.677        0.020      342.876       18.593      860.105
08/13/2014  04:53:00      -69.406        4.612      -12.408       27.853       17.684       16.216      775.815      312.733      262.946        0.317        0.068       69.560       11.929        0.029      342.891       18.617      860.103
08/13/2014  04:54:00      -83.743       -2.542      -17.007       11.783       16.640       10.445      138.843      276.904      109.092        0.392        0.026       83.781        5.568        0.004      342.912       18.653      860.097
08/13/2014  04:55:00      -62.101      -15.449      -10.821       21.657       15.315       13.155      469.021      234.558      173.048        0.254        0.044       63.993        7.093        0.012      342.833       18.519      860.090
08/13/2014  04:56:00      -85.748      -18.057      -10.459       17.488       22.682       15.186      305.836      514.467      230.624        0.442        0.053       87.629        4.742        0.003      342.780       18.429      860.081
08/13/2014  04:57:00      -75.869        1.597      -16.334       24.393       27.354       15.915      595.005      748.217      253.293        0.381        0.080       75.885       12.256        0.026      342.766       18.405      860.084
08/13/2014  04:58:00      -95.553       -8.592        4.093       51.905       34.883       24.743     2694.111     1216.799      612.231        0.687        0.226       95.939       24.054        0.063      342.718       18.324      860.088
08/13/2014  04:59:00     -133.427        2.990      -13.935       36.559       33.519       23.731     1336.528     1123.499      563.175        1.051        0.151      133.460       20.914        0.025      342.725       18.336      860.086
08/13/2014  05:00:00     -136.485      -58.517       -8.206       35.975       37.659       24.276     1294.224     1418.229      589.314        1.271        0.165      148.500       18.671        0.016      342.682       18.262      860.083
08/13/2014  05:01:00     -116.282      -21.643       -9.496       42.026       27.491       17.984     1766.186      755.774      323.412        0.846        0.142      118.279       17.441        0.022      342.623       18.162      860.077
08/13/2014  05:02:00     -114.655        8.553      -14.250       29.366       24.551       17.837      862.364      602.760      318.175        0.760        0.089      114.974       15.561        0.018      342.661       18.226      860.058
08/13/2014  05:03:00      -76.307       -6.481       -8.719       40.115       32.355       19.899     1609.226     1046.829      395.978        0.450        0.153       76.582       17.852        0.054      342.691       18.278      860.039
08/13/2014  05:04:00      -45.054      -25.335      -12.241       31.165       24.037       17.706      971.248      577.768      313.516        0.234        0.093       51.689       14.224        0.076      342.722       18.330      860.037
08/13/2014  05:05:00      -76.373      -17.319      -14.038       16.771       16.035       11.401      281.277      257.107      129.983        0.350        0.033       78.312        5.954        0.006      342.809       18.477      860.042
08/13/2014  05:06:00      -83.291        0.809      -14.843       20.076       28.095       19.810      403.063      789.338      392.424        0.437        0.079       83.295       12.488        0.022      342.921       18.669      860.040
08/13/2014  05:07:00      -88.633      -19.827      -14.243       17.796       19.562       12.820      316.681      382.668      164.350        0.466        0.043       90.823        9.123        0.010      342.793       18.452      860.044
08/13/2014  05:08:00      -96.484       -8.005      -12.461       26.956       27.872       20.342      726.602      776.875      413.785        0.572        0.096       96.815       20.022        0.043      342.776       18.422      860.044
08/13/2014  05:09:00     -113.533       31.487      -13.140       42.496       29.596       17.057     1805.944      875.918      290.929        0.851        0.149      117.818       12.681        0.012      342.946       18.711      860.041
08/13/2014  05:10:00      -90.468       34.335       -1.561       50.272       29.603       25.254     2527.230      876.319      637.743        0.670        0.202       96.764       22.935        0.056      343.062       18.908      860.047
08/13/2014  05:11:00      -71.414       62.202       -6.840       46.312       37.943       31.959     2144.812     1439.634     1021.353        0.681        0.230       94.705       32.412        0.117      343.158       19.073      860.053
08/13/2014  05:12:00      -79.311       45.037       -6.604       31.946       26.535       21.259     1020.528      704.101      451.934        0.527        0.109       91.206       17.483        0.037      343.187       19.123      860.060
08/13/2014  05:13:00      -58.229       58.675       -8.540       34.052       29.785       22.165     1159.541      887.169      491.277        0.472        0.127       82.664       22.519        0.074      343.293       19.303      860.071
08/13/2014  05:14:00      -32.574       66.886       -7.199       29.848       19.343       15.383      890.909      374.170      236.629        0.354        0.075       74.396       14.731        0.039      343.244       19.219      860.085
08/13/2014  05:15:00      -23.839       34.771      -11.503       20.104       37.590       11.538      404.178     1413.045      133.128        0.193        0.098       42.158       10.329        0.060      343.265       19.255      860.094
08/13/2014  05:16:00      -33.649       45.251       -6.063       19.636       24.731       14.215      385.575      611.613      202.061        0.221        0.060       56.391       10.627        0.036      343.128       19.022      860.093
08/13/2014  05:17:00       -5.525       23.879       -7.026       27.704       43.453       15.263      767.504     1888.142      232.946        0.177        0.144       24.510       11.954        0.238      343.243       19.217      860.101
08/13/2014  05:18:00      -35.442      -12.450       -3.483       10.124       10.769        8.699      102.499      115.979       75.671        0.086        0.015       37.565        6.603        0.031      343.094       18.967      860.115
08/13/2014  05:19:00      -49.984      -22.997       -2.275       12.740       11.638       12.207      162.296      135.435      149.008        0.174        0.022       55.020        6.275        0.013      343.006       18.814      860.118
08/13/2014  05:20:00      -41.956      -27.217       -5.178       18.939       22.178        9.085      358.694      491.854       82.534        0.173        0.047       50.011        9.600        0.037      342.893       18.620      860.131
08/13/2014  05:21:00      -24.683       19.276       -6.337       17.487       23.317       10.178      305.812      543.691      103.593        0.099        0.048       31.318        4.441        0.020      343.117       19.002      860.129
08/13/2014  05:22:00      -29.046       57.085       -7.832       21.724       40.978       16.623      471.953     1679.192      276.308        0.330        0.121       64.050       16.658        0.068      343.302       19.319      860.114
08/13/2014  05:23:00      -30.166       92.968      -15.205       17.236       28.145       17.648      297.070      792.129      311.442        0.559        0.070       97.740       16.282        0.028      343.496       19.649      860.089
08/13/2014  05:24:00      -18.019      129.793      -26.069       28.855       23.033       17.846      832.585      530.505      318.488        0.977        0.084      131.038       18.575        0.020      343.653       19.916      860.082
08/13/2014  05:25:00      -42.134       37.387        1.997       63.727       48.961       30.892     4061.143     2397.190      954.290        0.529        0.371       56.330       37.726        0.449      343.409       19.501      860.052
08/13/2014  05:26:00       63.265       76.921        1.564       73.450       30.974       25.761     5394.858      959.362      663.615        0.847        0.351       99.596       21.084        0.045      343.337       19.378      860.045
08/13/2014  05:27:00       33.371      145.289      -20.070       27.509       51.755       19.816      756.769     2678.614      392.684        1.323        0.191      149.072       24.148        0.026      343.517       19.683      860.033
08/13/2014  05:28:00        9.892      176.048      -27.893       20.098       30.819       13.155      403.949      949.812      173.053        1.670        0.076      176.326        9.187        0.003      343.576       19.784      860.019
08/13/2014  05:29:00      -16.853      158.767      -21.325       16.751       17.847        8.132      280.586      318.512       66.130        1.331        0.033      159.659        3.210        0.000      343.561       19.759      860.020
08/13/2014  05:30:00      -10.800      141.133      -17.909       21.225       22.498       13.695      450.510      506.163      187.547        1.075        0.057      141.546       11.626        0.007      343.617       19.855      860.032
08/13/2014  05:31:00       30.175      120.676      -11.859       20.926       33.848       19.882      437.915     1145.696      395.301        0.880        0.099      124.392       19.172        0.024      343.499       19.655      860.040
08/13/2014  05:32:00       32.646      105.384      -12.605       19.267       35.529       23.966      371.222     1262.337      574.389        0.727        0.110      110.325       22.087        0.040      343.382       19.454      860.055
08/13/2014  05:33:00       30.784       83.491       -9.236       22.361       28.280       23.432      500.019      799.763      549.070        0.493        0.092       88.985       20.921        0.055      343.250       19.230      860.061
08/13/2014  05:34:00       11.749      117.668      -19.534       18.618       21.331       12.519      346.645      455.031      156.733        0.766        0.048      118.253       11.063        0.009      343.335       19.374      860.067
08/13/2014  05:35:00        3.616      138.286      -21.698       26.290       20.557       14.041      691.190      422.607      197.142        1.046        0.066      138.333       11.713        0.007      343.518       19.686      860.078
08/13/2014  05:36:00       24.975      129.419      -20.383       14.914       12.893        9.804      222.413      166.221       96.117        0.914        0.024      131.807        4.243        0.001      343.491       19.640      860.096
08/13/2014  05:37:00       10.703      122.322      -17.932       22.143       29.467       11.676      490.310      868.333      136.323        0.845        0.075      122.789       15.173        0.015      343.579       19.790      860.110
08/13/2014  05:38:00      -22.399       98.271      -16.223       24.035       20.894        9.928      577.666      436.543       98.557        0.577        0.056      100.792        5.822        0.003      343.524       19.697      860.120
08/13/2014  05:39:00      -45.731       -1.929       -9.144       18.373       32.490        8.072      337.577     1055.588       65.162        0.182        0.073       45.772       10.407        0.052      343.234       19.202      860.126
08/13/2014  05:40:00      -90.095      -38.321      -15.978       18.649       21.560        9.941      347.803      464.819       98.833        0.538        0.046       97.906       10.179        0.011      343.014       18.828      860.122
08/13/2014  05:41:00     -103.576       -4.545      -14.912       16.068       19.284       11.016      258.186      371.863      121.351        0.586        0.038      103.676        8.564        0.007      342.806       18.474      860.117
08/13/2014  05:42:00     -127.343        3.591      -14.930       43.173       30.267       19.459     1863.883      916.074      378.664        0.980        0.158      127.394       16.915        0.018      342.743       18.366      860.113
08/13/2014  05:43:00     -129.728        7.079      -24.488       30.942       30.706       16.373      957.395      942.865      268.091        0.982        0.108      129.921        4.182        0.001      342.854       18.555      860.118
08/13/2014  05:44:00     -128.826       15.569      -24.960       29.416       24.526       17.354      865.295      601.517      301.157        0.961        0.088      129.763        9.240        0.005      342.954       18.725      860.130
08/13/2014  05:45:00      -46.911      -20.637      -15.007       18.113       21.347       13.435      328.094      455.687      180.501        0.191        0.048       51.250        3.213        0.004      342.791       18.448      860.134
08/13/2014  05:46:00      -48.016       15.908       -9.142       18.201       17.887       12.644      331.270      319.939      159.874        0.173        0.041       50.583        6.314        0.016      342.994       18.794      860.145
08/13/2014  05:47:00      -57.407       49.345      -12.507       19.463       27.161       15.341      378.805      737.701      235.358        0.362        0.068       75.700       15.379        0.041      343.292       19.303      860.141
08/13/2014  05:48:00      -51.255       40.000       -7.762       26.534       34.335       17.374      704.070     1178.917      301.857        0.324        0.109       65.016       17.580        0.073      343.221       19.179      860.126
08/13/2014  05:49:00      -41.012       72.293      -12.650       22.775       23.832       14.299      518.717      567.971      204.470        0.418        0.065       83.116       15.163        0.033      343.510       19.674      860.124
08/13/2014  05:50:00      -37.618       26.423       -6.482       17.305       27.491       11.385      299.474      755.760      129.625        0.167        0.059       45.971        9.827        0.046      343.366       19.428      860.117
08/13/2014  05:51:00      -43.014       78.228      -15.459       18.844       62.665       14.222      355.113     3926.894      202.260        0.635        0.224       89.274       20.962        0.055      343.441       19.555      860.121
08/13/2014  05:52:00      -38.045       99.564      -14.893       24.542       29.969       13.300      602.319      898.122      176.892        0.663        0.084      106.585        8.328        0.006      343.628       19.873      860.110
08/13/2014  05:53:00      -17.595      141.463      -15.483       22.844       27.781       13.234      521.854      771.766      175.147        1.101        0.073      142.553       12.503        0.008      343.787       20.146      860.116
08/13/2014  05:54:00       24.548      159.713      -25.746       30.068       28.575       15.613      904.101      816.556      243.764        1.437        0.098      161.588       13.601        0.007      343.776       20.126      860.126
08/13/2014  05:55:00       12.473      188.318      -29.441       26.220       29.435       11.658      687.502      866.417      135.916        1.909        0.084      188.730       12.193        0.004      344.037       20.570      860.119
08/13/2014  05:56:00       23.294      200.274      -30.505       28.875       25.994       15.030      833.771      675.680      225.909        2.166        0.087      201.624       10.612        0.003      344.026       20.552      860.108
08/13/2014  05:57:00       32.166      195.748      -27.862       24.799       26.269       17.621      614.980      690.067      310.499        2.087        0.081      198.374        5.961        0.001      343.952       20.426      860.101
08/13/2014  05:58:00       28.267      191.092      -33.019       28.314       30.470       18.596      801.669      928.395      345.817        2.024        0.104      193.171       13.438        0.005      343.914       20.360      860.096
08/13/2014  05:59:00       -8.174      189.103      -24.146       21.742       21.615       12.763      472.712      467.193      162.900        1.876        0.055      189.279        9.184        0.002      343.877       20.298      860.103
08/13/2014  06:00:00       -1.878      176.440      -23.181       24.064       30.491       15.401      579.055      929.695      237.181        1.671        0.087      176.450       14.975        0.007      343.828       20.215      860.102
08/13/2014  06:01:00      -35.856      181.424      -22.179       32.127       29.023       20.054     1032.113      842.318      402.158        1.848        0.114      184.933       16.202        0.008      343.909       20.352      860.093
08/13/2014  06:02:00      -38.090      173.733      -21.857       27.413       25.095       16.977      751.451      629.777      288.202        1.689        0.083      177.859       13.647        0.006      343.885       20.312      860.111
08/13/2014  06:03:00      -16.818      184.027      -25.984       25.974       29.018       12.637      674.636      842.070      159.684        1.825        0.084      184.794       10.219        0.003      343.968       20.453      860.123
08/13/2014  06:04:00      -10.070      187.818      -20.636       30.114       22.222       14.516      906.876      493.832      210.723        1.871        0.081      188.087        9.731        0.003      344.006       20.519      860.119
08/13/2014  06:05:00        1.769      190.039      -21.675       31.342       25.344       12.677      982.314      642.342      160.718        1.919        0.089      190.048        4.190        0.000      344.032       20.563      860.131
08/13/2014  06:06:00       12.829      183.484      -22.835       24.676       34.446       16.586      608.917     1186.502      275.108        1.821        0.104      183.932       16.996        0.009      344.108       20.693      860.144
08/13/2014  06:07:00       14.415      192.643      -28.709       33.217       37.389       21.331     1103.389     1397.904      455.030        2.055        0.148      193.181       18.468        0.009      344.113       20.701      860.147
08/13/2014  06:08:00       41.729      213.075      -36.110       27.772       33.034       20.683      771.306     1091.239      427.766        2.537        0.115      217.123       15.838        0.005      343.825       20.206      860.120
08/13/2014  06:09:00       47.165      194.465      -33.909       34.735       39.580       30.018     1206.538     1566.565      901.089        2.243        0.184      200.103       24.460        0.015      343.818       20.197      860.114
08/13/2014  06:10:00       40.575      180.250      -28.059       38.955       49.770       28.845     1517.529     2477.091      832.020        1.987        0.241      184.760       23.445        0.016      343.873       20.290      860.152
08/13/2014  06:11:00       25.811      177.695      -30.394       29.598       26.796       15.281      876.027      718.049      233.515        1.750        0.091      179.560       11.742        0.004      343.878       20.301      860.174
08/13/2014  06:12:00       18.323      182.988      -29.663       31.440       32.077       21.374      988.473     1028.952      456.857        1.859        0.124      183.903       18.666        0.010      343.972       20.460      860.183
08/13/2014  06:13:00       13.179      140.134      -16.950       29.630       34.612       18.229      877.961     1198.019      332.312        1.125        0.120      140.752       20.199        0.021      343.943       20.411      860.211
08/13/2014  06:14:00       37.143      129.998      -23.030       29.449       28.525       16.494      867.242      813.701      272.044        1.038        0.098      135.200       13.889        0.011      343.938       20.401      860.230
08/13/2014  06:15:00       33.350      105.095       -5.967       34.886       28.876       22.372     1217.031      833.805      500.484        0.737        0.128      110.259       18.640        0.029      343.950       20.424      860.236
08/13/2014  06:16:00       36.516      153.912      -19.303       40.231       50.838       29.667     1618.543     2584.491      880.118        1.524        0.254      158.185       32.091        0.041      344.088       20.658      860.234
08/13/2014  06:17:00       40.071      154.262      -13.850       37.393       49.749       32.880     1398.220     2474.926     1081.072        1.527        0.248      159.382       28.580        0.032      343.938       20.403      860.238
08/13/2014  06:18:00       33.897      157.517      -11.060       38.229       55.768       37.979     1461.457     3110.070     1442.406        1.605        0.301      161.122       34.351        0.045      344.043       20.580      860.243
08/13/2014  06:19:00       27.946      170.333      -19.672       39.273       66.785       36.052     1542.384     4460.240     1299.727        1.874        0.365      172.610       37.084        0.046      344.132       20.733      860.240
08/13/2014  06:20:00       22.354      200.008      -27.131       36.291       41.751       21.463     1317.068     1743.173      460.682        2.238        0.176      201.253       12.821        0.004      344.073       20.631      860.248
08/13/2014  06:21:00       36.123       99.109        3.494       35.133       50.114       35.287     1234.315     2511.413     1245.180        0.806        0.250      105.487       35.542        0.114      343.824       20.207      860.276
08/13/2014  06:22:00       45.626       64.727        2.699       30.458       41.980       35.658      927.665     1762.279     1271.496        0.512        0.198       79.192       28.124        0.126      343.877       20.298      860.311
08/13/2014  06:23:00       49.562       59.738        3.426       45.430       43.882       39.645     2063.909     1925.653     1571.745        0.580        0.278       77.620       30.590        0.155      344.000       20.509      860.340
08/13/2014  06:24:00       39.355       42.303        8.633       41.638       28.686       27.393     1733.710      822.859      750.403        0.336        0.165       57.779       18.269        0.100      344.137       20.743      860.372
08/13/2014  06:25:00       22.037       41.823      -12.798       29.187       28.279       14.730      851.890      799.727      216.967        0.213        0.093       47.274       16.086        0.116      344.185       20.825      860.384
08/13/2014  06:26:00      -89.395       -9.824      -11.915       21.463       17.720       11.157      460.673      314.014      124.485        0.456        0.045       89.933       10.137        0.013      343.408       19.499      860.362
08/13/2014  06:27:00      -74.938       -8.050      -11.941        9.884        9.487        6.907       97.690       89.999       47.704        0.303        0.012       75.369        5.006        0.004      343.307       19.325      860.340
08/13/2014  06:28:00      -66.001       15.466      -10.529       26.125       20.070        9.961      682.518      402.798       99.222        0.295        0.059       67.789       11.009        0.026      343.278       19.278      860.307
08/13/2014  06:29:00        3.671       99.743      -18.403       24.272       59.057       19.703      589.139     3487.687      388.206        0.738        0.223       99.810       28.316        0.080      343.948       20.421      860.268
08/13/2014  06:30:00       28.696      177.254      -22.619       28.326       26.706       18.475      802.377      713.209      341.321        1.731        0.093      179.562        9.596        0.003      343.997       20.503      860.238
08/13/2014  06:31:00        8.228      135.917      -19.311       24.175       40.727       17.692      584.435     1658.711      313.005        1.073        0.128      136.166       14.906        0.012      343.793       20.154      860.234
08/13/2014  06:32:00        1.126       76.884      -11.110       25.081       26.748       16.734      629.047      715.454      280.032        0.383        0.081       76.892       16.742        0.047      343.934       20.397      860.249
08/13/2014  06:33:00      -33.162      -27.221        1.097       16.072       19.826       12.957      258.302      393.066      167.878        0.133        0.041       42.904        7.505        0.031      343.160       19.075      860.260
08/13/2014  06:34:00       -6.496      -13.224        0.288       10.894       11.866        9.313      118.684      140.813       86.734        0.028        0.017       14.734        8.266        0.315      343.127       19.018      860.263
08/13/2014  06:35:00      -64.642       -5.018       -8.969       20.247       12.006        9.467      409.946      144.132       89.627        0.246        0.032       64.837        8.598        0.018      343.020       18.838      860.271
08/13/2014  06:36:00      -93.049      -24.323      -11.135       15.490       17.069       10.282      239.951      291.346      105.726        0.501        0.032       96.175        9.197        0.009      342.994       18.793      860.266
08/13/2014  06:37:00      -84.759      -23.315       -2.986       27.716       26.125       15.851      768.188      682.497      251.250        0.472        0.085       87.907       13.724        0.024      342.990       18.787      860.269
08/13/2014  06:38:00      -90.465      -49.113      -11.192       27.695       14.763       15.592      767.034      217.939      243.103        0.597        0.061      102.937       15.602        0.023      343.051       18.889      860.300
08/13/2014  06:39:00     -143.804       26.508      -19.257       53.071       35.225       20.591     2816.488     1240.773      423.984        1.312        0.224      146.227       27.047        0.034      342.984       18.777      860.298
08/13/2014  06:40:00     -210.206       90.569      -26.759       77.644       53.338       43.746     6028.642     2844.938     1913.707        3.194        0.539      228.887       40.865        0.032      343.145       19.048      860.265
08/13/2014  06:41:00     -151.737       71.215      -28.861       63.386       47.608       27.569     4017.725     2266.486      760.057        1.799        0.352      167.618       33.046        0.039      343.976       20.466      860.287
08/13/2014  06:42:00      -77.582        6.981       -9.988       36.908       45.935       19.324     1362.170     2110.018      373.422        0.501        0.192       77.895       20.111        0.067      343.755       20.091      860.320
08/13/2014  06:43:00     -138.509      -52.461      -10.911       57.189       67.153       31.616     3270.612     4509.555      999.592        1.542        0.439      148.111       24.177        0.027      343.160       19.075      860.342
08/13/2014  06:44:00     -177.595      134.816      -29.450       46.626       66.424       34.907     2173.973     4412.186     1218.510        2.919        0.390      222.970       35.589        0.025      343.601       19.824      860.305
08/13/2014  06:45:00      -73.184      139.764      -12.856       39.554       44.352       29.472     1564.511     1967.138      868.586        1.473        0.220      157.765       29.128        0.034      344.183       20.820      860.275
08/13/2014  06:46:00        3.568       39.504       -4.421       52.799       53.772       24.306     2787.741     2891.462      590.776        0.393        0.313       39.665       28.549        0.518      343.802       20.170      860.276
08/13/2014  06:47:00      -14.116      -10.653        8.917       21.766       18.983       12.162      473.765      360.339      147.912        0.069        0.049       17.684        8.027        0.206      343.758       20.094      860.296
08/13/2014  06:48:00      -92.284      -82.056      -11.670       22.912       21.951       12.676      524.943      481.832      160.669        0.828        0.058      123.489        4.581        0.001      343.480       19.621      860.299
08/13/2014  06:49:00      -16.911      -75.583       -6.511       33.379       32.264       15.707     1114.175     1040.970      246.706        0.422        0.120       77.452       16.819        0.047      343.669       19.942      860.316
08/13/2014  06:50:00      -43.862     -121.223       -7.124       46.552       44.403       28.947     2167.063     1971.607      837.950        1.082        0.249      128.914       23.920        0.034      343.604       19.833      860.362
08/13/2014  06:51:00      -38.103      -78.867        2.449       48.658       53.849       34.467     2367.646     2899.717     1187.961        0.707        0.323       87.589       25.893        0.087      343.548       19.737      860.384
08/13/2014  06:52:00     -112.383      -74.296       -8.449       35.290       43.367       27.344     1245.349     1880.678      747.674        1.105        0.194      134.721       14.530        0.012      343.371       19.435      860.356
08/13/2014  06:53:00     -103.676      -43.243       -2.365       28.169       25.730       14.281      793.489      662.045      203.938        0.714        0.083      112.333        9.803        0.008      343.372       19.438      860.334
08/13/2014  06:54:00      -86.550      -34.758       -3.834       33.101       26.381       19.477     1095.661      695.964      379.361        0.544        0.109       93.269       17.996        0.037      343.375       19.442      860.327
08/13/2014  06:55:00     -110.128      -24.766       -6.088       36.648       26.428       21.869     1343.085      698.414      478.234        0.765        0.126      112.879       21.735        0.037      343.383       19.456      860.314
08/13/2014  06:56:00      -92.178      -40.845        3.780       26.523       33.117       19.846      703.448     1096.705      393.860        0.619        0.110      100.822       15.809        0.025      343.356       19.410      860.322
08/13/2014  06:57:00     -128.869      -26.645       -6.319       38.330       28.778       18.315     1469.171      828.164      335.433        0.999        0.132      131.595       17.132        0.017      343.405       19.495      860.328
08/13/2014  06:58:00     -143.153       -8.293      -13.304       45.762       35.204       21.115     2094.131     1239.333      445.844        1.226        0.189      143.393       14.325        0.010      343.352       19.402      860.319
08/13/2014  06:59:00      -79.843      -19.457       15.035       68.149       50.424       28.819     4644.353     2542.565      830.541        0.750        0.401       82.180       33.947        0.171      343.554       19.748      860.336
08/13/2014  07:00:00      -35.741       18.437       15.790       46.346       31.350       21.479     2147.985      982.834      461.342        0.273        0.180       40.217       26.360        0.430      343.858       20.266      860.334
08/13/2014  07:01:00        3.848      -23.395        5.501       14.646       19.771       14.370      214.517      390.901      206.493        0.070        0.041       23.709       13.421        0.320      343.822       20.205      860.321
08/13/2014  07:02:00      -30.045      -34.116        3.679       15.858       27.680       23.544      251.487      766.202      554.329        0.183        0.079       45.460       22.828        0.252      343.834       20.226      860.328
08/13/2014  07:03:00      -25.279       13.988        7.220       15.174       25.711       12.033      230.243      661.077      144.800        0.096        0.052       28.891       14.227        0.242      343.861       20.272      860.339
08/13/2014  07:04:00       17.787       53.619       45.535       27.042       47.222       39.651      731.251     2229.884     1572.199        0.490        0.227       56.492       37.728        0.446      344.006       20.519      860.319
08/13/2014  07:05:00      -19.490       67.528      -24.436       65.573       31.387       19.579     4299.758      985.121      383.332        0.560        0.283       70.285       15.460        0.048      343.857       20.266      860.297
08/13/2014  07:06:00     -120.849      -12.424      -13.544       54.496       60.860       22.771     2969.845     3703.901      518.535        1.107        0.360      121.486       18.571        0.023      343.521       19.690      860.287
08/13/2014  07:07:00       20.365      -52.754        8.884       65.350       30.918       28.809     4270.643      955.928      829.940        0.467        0.303       56.548       14.426        0.065      343.652       19.915      860.291
08/13/2014  07:08:00      -19.764      -52.555       11.437       42.597       50.195       34.118     1814.500     2519.536     1164.004        0.439        0.275       56.148       33.712        0.361      344.101       20.681      860.306
08/13/2014  07:09:00     -138.564      -71.772       10.552       77.409       75.348       36.289     5992.194     5677.349     1316.912        1.872        0.649      156.049       39.580        0.064      343.943       20.410      860.334
08/13/2014  07:10:00      -37.986      -28.986       10.408       62.525       31.216       26.348     3909.393      974.460      694.191        0.398        0.279       47.782       29.925        0.392      343.971       20.457      860.332
08/13/2014  07:11:00     -247.818      -29.495      -11.792       51.162       78.524       40.787     2617.537     6165.969     1663.582        3.643        0.522      249.567       30.723        0.015      344.389       21.170      860.321
08/13/2014  07:12:00      -15.166       10.377        2.531       85.921       90.053       37.219     7382.484     8109.614     1385.237        0.861        0.844       18.376       45.756        6.200      344.722       21.743      860.317
08/13/2014  07:13:00     -144.387      -22.828       -8.866       50.277       64.479       28.288     2527.811     4157.514      800.239        1.446        0.374      146.180       27.058        0.034      344.159       20.778      860.346
08/13/2014  07:14:00     -163.920       -3.466      -12.322       79.559       53.933       32.585     6329.703     2908.721     1061.779        1.866        0.515      163.957       34.016        0.043      344.102       20.681      860.353
08/13/2014  07:15:00      -44.158      -29.749       -4.849       72.768       64.873       36.346     5295.238     4208.561     1321.024        0.684        0.541       53.244       41.703        0.613      345.106       22.399      860.363
08/13/2014  07:16:00      -87.391       -9.274        2.506       33.058       43.485       18.772     1092.802     1890.969      352.393        0.553        0.167       87.881       12.013        0.019      344.650       21.620      860.380
08/13/2014  07:17:00      -67.467       -3.757        5.833       59.851       34.029       21.618     3582.185     1157.987      467.332        0.490        0.260       67.572       24.975        0.137      344.511       21.383      860.386
08/13/2014  07:18:00     -113.084       23.333       -8.389       39.963       40.298       18.970     1597.009     1623.956      359.864        0.849        0.179      115.466       17.435        0.023      344.452       21.282      860.393
08/13/2014  07:19:00      -81.801        7.817       -4.595       35.392       31.393       17.367     1252.586      985.493      301.628        0.466        0.127       82.174       17.623        0.046      344.364       21.130      860.401
08/13/2014  07:20:00     -146.748      -20.854       -6.493       63.188       46.071       31.862     3992.668     2122.534     1015.187        1.457        0.357      148.222       24.204        0.027      344.607       21.544      860.409
08/13/2014  07:21:00     -179.222       12.762      -11.174       61.317       39.465       24.482     3759.803     1557.521      599.392        1.916        0.296      179.676       24.597        0.019      344.523       21.400      860.386
08/13/2014  07:22:00      -69.944       13.758        4.210       59.196       46.306       29.718     3504.168     2144.275      883.171        0.581        0.327       71.285       21.176        0.088      344.680       21.671      860.401
08/13/2014  07:23:00        4.309      -52.696        9.599       33.223       33.133       31.144     1103.753     1097.795      969.979        0.303        0.159       52.872       12.786        0.058      344.756       21.801      860.419
08/13/2014  07:24:00      -59.992      -62.864        2.832       46.657       45.416       23.343     2176.890     2062.627      544.885        0.617        0.239       86.896       20.924        0.058      344.833       21.933      860.423
08/13/2014  07:25:00      -28.495      -59.410        9.915       58.515       42.224       20.875     3424.012     1782.854      435.768        0.504        0.282       65.890       17.327        0.069      344.829       21.926      860.440
08/13/2014  07:26:00      -85.406       -9.505        2.228       40.824       30.639       20.632     1666.558      938.733      425.662        0.521        0.152       85.934       23.194        0.073      344.840       21.943      860.413
08/13/2014  07:27:00      -83.351       27.746       -0.814       37.415       27.842       20.939     1399.910      775.197      438.450        0.517        0.131       87.848        8.912        0.010      344.843       21.950      860.382
08/13/2014  07:28:00      -72.796      -15.721       -7.785       34.614       35.133       15.451     1198.107     1234.319      238.737        0.414        0.134       74.474        9.634        0.017      344.881       22.016      860.400
08/13/2014  07:29:00     -104.335       17.173       -1.767       31.920       37.469       18.582     1018.887     1403.948      345.301        0.698        0.138      105.739       16.613        0.025      344.804       21.882      860.384
08/13/2014  07:30:00     -102.949      -22.176       -3.218       32.924       25.992       18.208     1083.994      675.574      331.542        0.660        0.105      105.311       13.844        0.017      344.764       21.814      860.409
08/13/2014  07:31:00     -127.385      -28.811       -1.506       48.158       30.249       22.007     2319.152      915.023      484.320        1.039        0.186      130.602       25.534        0.038      344.877       22.008      860.429
08/13/2014  07:32:00      -80.496      -71.502       -0.007       52.056       47.808       22.552     2709.798     2285.626      508.576        0.855        0.275      107.667       25.913        0.058      344.915       22.074      860.440
08/13/2014  07:33:00     -108.592      -61.968       -2.980       39.552       26.329       20.830     1564.392      693.197      433.892        0.917        0.135      125.029       22.095        0.031      344.958       22.145      860.431
08/13/2014  07:34:00      -54.834       57.454        1.654       46.159       54.477       27.715     2130.699     2967.731      768.094        0.609        0.293       79.421       32.172        0.164      344.927       22.094      860.407
08/13/2014  07:35:00      -94.900       80.363      -16.678       51.012       53.610       30.793     2602.242     2874.079      948.229        1.108        0.321      124.355       26.517        0.045      344.850       21.961      860.392
08/13/2014  07:36:00      -97.547       -3.795       -8.883       31.558       48.594       17.657      995.905     2361.404      311.779        0.664        0.183       97.621       15.829        0.026      344.833       21.933      860.423
08/13/2014  07:37:00     -115.414      -62.456        2.750       47.710       46.489       24.595     2276.259     2161.235      604.892        1.113        0.252      131.229       17.134        0.017      344.726       21.749      860.428
08/13/2014  07:38:00     -207.003      -68.780       -5.992       54.947       60.571       31.589     3019.138     3668.906      997.882        2.765        0.384      218.131       30.926        0.020      344.764       21.811      860.427
08/13/2014  07:39:00     -174.468      -79.796       -0.024       94.152       64.957       42.772     8864.588     4219.420     1829.468        2.586        0.746      191.850       42.269        0.049      344.885       22.020      860.413
08/13/2014  07:40:00     -164.276       40.616       -1.701      106.438       84.889       36.646    11329.052     7206.141     1342.958        2.425        0.994      169.222       43.342        0.066      345.004       22.225      860.412
08/13/2014  07:41:00     -129.135       13.997      -21.697       82.414      107.463       31.636     6792.124    11548.299     1000.848        1.834        0.967      129.891       45.783        0.124      345.125       22.430      860.396
08/13/2014  07:42:00      -90.442       13.863       -2.729       53.215       30.664       24.292     2831.795      940.274      590.111        0.637        0.218       91.499       18.270        0.040      345.026       22.264      860.387
08/13/2014  07:43:00     -153.571       20.000      -17.919       89.559       48.081       35.065     8020.831     2311.827     1229.522        1.793        0.578      154.868       34.774        0.050      345.133       22.443      860.400
08/13/2014  07:44:00     -109.426       23.793        4.260       48.359       46.226       28.835     2338.639     2136.813      831.465        0.893        0.265      111.983       26.301        0.055      345.264       22.670      860.413
08/13/2014  07:45:00      -53.434        8.479        0.046       38.748       30.337       20.180     1501.418      920.323      407.216        0.288        0.141       54.103       21.536        0.158      345.349       22.815      860.429
08/13/2014  07:46:00      -24.880        9.715       20.975       49.394       18.927       36.437     2439.782      358.248     1327.636        0.264        0.206       26.710       39.704        2.210      345.489       23.056      860.426
08/13/2014  07:47:00       44.715       12.077       46.039       38.973       39.877       19.050     1518.877     1590.188      362.914        0.387        0.174       46.317       18.343        0.157      345.456       22.998      860.419
08/13/2014  07:48:00       40.047       16.617       12.207       28.127       20.086       20.724      791.154      403.430      429.476        0.183        0.081       43.358       13.001        0.090      345.524       23.116      860.396
08/13/2014  07:49:00       63.648       32.176       10.107       19.240       12.260       19.702      370.193      150.296      388.174        0.305        0.045       71.319       13.289        0.035      345.350       22.816      860.397
08/13/2014  07:50:00       42.150       28.124       -0.918       20.364       16.379       16.232      414.677      268.257      263.473        0.176        0.047       50.671       12.027        0.056      345.348       22.815      860.398
08/13/2014  07:51:00       52.892       42.696       16.035       27.258       28.018       21.217      742.987      785.027      450.162        0.343        0.099       67.974       11.557        0.029      345.524       23.116      860.395
08/13/2014  07:52:00        5.589       60.067       -9.064       44.217       26.579       27.090     1955.157      706.447      733.873        0.356        0.170       60.327       25.810        0.183      345.436       22.966      860.402
08/13/2014  07:53:00      -31.764       12.348        3.727       23.547       23.487       16.142      554.484      551.634      260.570        0.127        0.068       34.080       12.682        0.138      345.337       22.795      860.414
08/13/2014  07:54:00      -40.931       33.645       -4.350       27.585       21.081       18.801      760.939      444.408      353.484        0.219        0.078       52.984       16.467        0.097      345.461       23.007      860.385
08/13/2014  07:55:00       13.424       37.387        1.287       21.990       35.067       24.030      483.564     1229.715      577.457        0.193        0.115       39.724       19.322        0.237      345.686       23.395      860.323
08/13/2014  07:56:00      125.863       73.774        8.915       28.757       32.490       33.141      826.984     1055.619     1098.341        1.217        0.149      145.891       21.061        0.021      345.497       23.069      860.321
08/13/2014  07:57:00      100.700       72.954       19.294       27.221       22.378       24.896      741.002      500.770      619.796        0.885        0.093      124.349       11.732        0.009      345.340       22.798      860.352
08/13/2014  07:58:00       10.753       46.296       -7.445       53.554       37.837       25.972     2868.078     1431.633      674.528        0.364        0.249       47.529       23.994        0.255      345.429       22.953      860.362
08/13/2014  07:59:00        6.859       31.264       -0.494       22.556       27.757       23.723      508.773      770.476      562.770        0.143        0.092       32.008       21.178        0.438      345.729       23.468      860.362
08/13/2014  08:00:00      -10.058       11.269       20.295       10.659       24.903       13.383      113.620      620.184      179.114        0.078        0.046       15.104        6.031        0.159      345.991       23.917      860.351
08/13/2014  08:01:00      -22.217        3.245       17.884       11.775       17.060       13.533      138.648      291.051      183.136        0.072        0.031       22.453        9.409        0.176      345.691       23.402      860.331
08/13/2014  08:02:00      -33.372       43.041        2.395       21.923       26.495       20.722      480.640      701.978      429.417        0.229        0.081       54.463       15.836        0.085      345.714       23.442      860.340
08/13/2014  08:03:00      -38.120       23.239       -1.760       22.887       25.321       17.956      523.836      641.167      322.424        0.174        0.074       44.645       14.741        0.109      345.635       23.306      860.364
08/13/2014  08:04:00      -62.490      -35.213       -4.361       34.247       52.660       20.750     1172.840     2773.093      430.582        0.477        0.219       71.728       12.082        0.028      345.349       22.816      860.359
08/13/2014  08:05:00       -4.721       14.644       11.924       29.265       15.537       15.600      856.417      241.396      243.353        0.086        0.067       15.386       10.084        0.430      345.814       23.613      860.326
08/13/2014  08:06:00       16.509       10.131       19.911       18.513       16.666       19.748      342.716      277.770      389.981        0.089        0.051       19.370       10.738        0.307      346.163       24.214      860.321
08/13/2014  08:07:00      -15.382      -54.804       -7.778       30.147       33.891       21.475      908.839     1148.626      461.164        0.291        0.126       56.921       15.659        0.076      345.879       23.726      860.334
08/13/2014  08:08:00      -54.246      -40.907        9.799       30.198       25.309       18.954      911.913      640.540      359.248        0.331        0.096       67.941       19.109        0.079      345.610       23.263      860.342
08/13/2014  08:09:00      -27.601       12.470       18.933       13.500       14.093       19.220      182.257      198.606      369.409        0.101        0.038       30.287       10.485        0.120      346.017       23.961      860.330
08/13/2014  08:10:00      -31.523       23.587       23.058       23.730       21.927       24.223      563.104      480.803      586.749        0.186        0.082       39.371        9.439        0.057      346.098       24.103      860.322
08/13/2014  08:11:00      -15.930      -24.413        2.876       36.827       34.009       21.908     1356.248     1156.638      479.945        0.192        0.150       29.151       19.075        0.428      345.854       23.684      860.318
08/13/2014  08:12:00      -10.259       10.603       23.102       24.737       35.795       34.089      611.908     1281.271     1162.070        0.190        0.153       14.754       14.545        0.972      346.190       24.260      860.328
08/13/2014  08:13:00      -25.886       10.428       38.033       20.186       24.715       16.600      407.480      610.847      275.561        0.176        0.065       27.908       17.043        0.373      346.225       24.319      860.337
08/13/2014  08:14:00       13.971       20.610       56.333       31.357       59.772       25.320      983.267     3572.658      641.106        0.449        0.260       24.899       34.185        1.885      346.149       24.188      860.319
08/13/2014  08:15:00       42.619       31.552       38.424       40.130       23.485       28.894     1610.401      551.561      834.883        0.364        0.150       53.028       19.514        0.135      345.926       23.805      860.279
08/13/2014  08:16:00        2.788       45.127       61.252       30.381       39.308       19.466      923.019     1545.155      378.944        0.432        0.142       45.213       15.575        0.119      346.413       24.643      860.295
08/13/2014  08:17:00       54.873       87.182       83.562       71.156       49.866       41.851     5063.162     2486.609     1751.501        1.345        0.465      103.013       38.431        0.139      345.984       23.904      860.315
08/13/2014  08:18:00       90.025       85.094       68.443       71.929       52.059       43.386     5173.756     2710.158     1882.312        1.490        0.488      123.877       37.506        0.092      345.952       23.850      860.317
08/13/2014  08:19:00      115.698       65.227       43.736       45.567       60.080       37.417     2076.363     3609.629     1400.006        1.332        0.354      132.818       22.152        0.028      345.804       23.596      860.315
08/13/2014  08:20:00       83.196       70.743       52.609       58.631       67.775       58.834     3437.644     4593.421     3461.424        1.309        0.575      109.207       50.680        0.215      346.023       23.971      860.310
08/13/2014  08:21:00      123.109       86.773       68.365      109.444       69.589       53.574    11977.883     4842.685     2870.142        2.352        0.985      150.617       46.052        0.093      346.039       23.996      860.291
08/13/2014  08:22:00       22.993      -69.673        9.399       35.140       65.300       36.152     1234.828     4264.149     1306.992        0.614        0.340       73.369       34.637        0.223      346.095       24.097      860.314
08/13/2014  08:23:00      -10.189       -1.557       54.135       24.113       61.358       51.756      581.453     3764.811     2678.661        0.503        0.351       10.307       43.079       17.468      346.494       24.781      860.300
08/13/2014  08:24:00       11.703       26.488       64.955       24.280       38.960       25.488      589.510     1517.901      649.647        0.391        0.138       28.958       11.895        0.169      346.409       24.635      860.283
08/13/2014  08:25:00       45.449      -32.418       19.607       45.598       63.458       47.887     2079.171     4026.878     2293.127        0.595        0.420       55.826       43.742        0.614      346.151       24.193      860.273
08/13/2014  08:26:00       20.533      -68.774        8.217       44.585       40.465       34.715     1987.853     1637.427     1205.156        0.502        0.242       71.773       26.466        0.136      346.106       24.114      860.268
08/13/2014  08:27:00      -25.082      -54.750      -10.967       30.564       43.749       30.347      934.141     1913.970      920.950        0.376        0.188       60.222       15.569        0.067      346.025       23.977      860.280
08/13/2014  08:28:00      -45.301        4.879       16.390       24.497       41.717       22.253      600.080     1740.283      495.180        0.259        0.142       45.562       17.188        0.142      346.205       24.287      860.292
08/13/2014  08:29:00       -5.335       35.466       22.786       29.300       26.077       25.237      858.468      680.011      636.886        0.199        0.109       35.865       18.890        0.277      346.484       24.765      860.289
08/13/2014  08:30:00      -52.213       -9.158        9.421       37.674       27.748       25.104     1419.293      769.958      630.202        0.286        0.141       53.010       23.412        0.195      346.237       24.340      860.284
08/13/2014  08:31:00      -25.017      -40.263        0.093       28.878       22.247       17.338      833.944      494.922      300.599        0.194        0.081       47.402       12.414        0.069      345.980       23.899      860.279
08/13/2014  08:32:00      -48.938      -58.757      -13.579       34.131       39.561       25.098     1164.946     1565.039      629.908        0.470        0.168       76.468       14.807        0.037      346.059       24.036      860.281
08/13/2014  08:33:00      -43.272       27.566       11.953       29.827       14.313       29.035      889.639      204.852      843.027        0.236        0.097       51.306       15.020        0.086      346.258       24.376      860.262
08/13/2014  08:34:00      -48.831      -23.111        1.838       22.439       34.492       15.293      503.495     1189.717      233.875        0.242        0.096       54.024        8.661        0.026      345.958       23.861      860.268
08/13/2014  08:35:00      -24.078      -19.276        7.183       27.271       33.837       24.046      743.691     1144.914      578.191        0.173        0.123       30.843       16.980        0.303      346.199       24.275      860.266
08/13/2014  08:36:00        0.495      -48.565        6.057       32.998       45.975       35.106     1088.897     2113.656     1232.426        0.341        0.222       48.568       29.103        0.359      346.316       24.476      860.254
08/13/2014  08:37:00      -15.995       14.030       46.215       13.537       26.167       20.715      183.260      684.692      429.104        0.194        0.065       21.276       16.388        0.593      346.910       25.498      860.253
08/13/2014  08:38:00      -53.606      -45.557       14.250       46.478       49.868       26.518     2160.224     2486.788      703.201        0.525        0.268       70.350       26.012        0.137      346.178       24.239      860.274
08/13/2014  08:39:00      -74.694     -100.897       -4.686       37.475       48.688       22.771     1404.348     2370.563      518.529        1.004        0.215      125.536       18.478        0.022      346.006       23.943      860.294
08/13/2014  08:40:00      -50.975      -57.967        1.283       51.852       49.164       33.153     2688.630     2417.059     1099.132        0.608        0.310       77.192       25.099        0.106      346.175       24.233      860.261
08/13/2014  08:41:00      -14.610       -0.402       25.571       35.292       30.829       22.013     1245.547      950.429      484.591        0.177        0.134       14.616       22.165        2.300      347.063       25.763      860.239
08/13/2014  08:42:00      -18.704       34.158       68.663       34.664       47.392       32.352     1201.610     2246.016     1046.637        0.536        0.225       38.944       29.556        0.576      346.904       25.487      860.211
08/13/2014  08:43:00      -18.308       -8.242       16.694       28.617       31.717       25.242      818.952     1005.978      637.167        0.157        0.123       20.078       20.138        1.006      346.812       25.330      860.207
08/13/2014  08:44:00      -57.298       -9.237        9.480       65.436       38.311       27.785     4281.822     1467.712      772.016        0.499        0.326       58.038       33.732        0.338      346.412       24.641      860.211
08/13/2014  08:45:00     -125.264      -93.351       -5.542       45.058       36.072       29.886     2030.217     1301.178      893.155        1.433        0.211      156.223       26.708        0.029      346.076       24.063      860.202
08/13/2014  08:46:00      -48.555      -55.048       16.181       58.293       63.407       44.469     3398.052     4020.427     1977.477        0.752        0.470       73.402       47.382        0.417      346.404       24.628      860.195
08/13/2014  08:47:00      -99.923      -28.853        4.622       59.790       55.664       37.487     3574.898     3098.516     1405.300        0.946        0.404      104.005       31.375        0.091      346.335       24.508      860.170
08/13/2014  08:48:00      -21.554      -22.442       25.117       35.953       41.226       24.917     1292.593     1699.562      620.867        0.261        0.181       31.117       27.002        0.753      346.690       25.120      860.160
08/13/2014  08:49:00      -97.389     -102.686       -4.076       84.494      126.291       41.523     7139.311    15949.352     1724.137        2.242        1.241      141.524       45.737        0.104      346.301       24.450      860.158
08/13/2014  08:50:00     -152.610     -234.293        0.330       88.804      127.863       51.206     7886.198    16349.010     2622.088        5.251        1.343      279.612       41.523        0.022      346.083       24.071      860.186
08/13/2014  08:51:00     -210.815     -120.148      -14.345       69.053       69.064       34.760     4768.328     4769.778     1208.278        3.491        0.537      242.649       30.080        0.015      346.104       24.107      860.168
08/13/2014  08:52:00     -196.410      -90.057      -11.890       68.686       84.720       50.667     4717.723     7177.418     2567.187        3.064        0.723      216.072       45.348        0.044      346.236       24.334      860.182
08/13/2014  08:53:00      -49.685       17.728       30.552      108.345       72.702       38.730    11738.542     5285.645     1499.984        1.112        0.926       52.754       45.067        0.730      346.738       25.202      860.173
08/13/2014  08:54:00       21.621      147.789       50.699       69.926       70.870       82.255     4889.678     5022.599     6765.963        2.078        0.834      149.362       26.013        0.030      346.722       25.171      860.074
08/13/2014  08:55:00     -304.517        0.029       34.680      206.476      141.813      138.003    42632.428    20110.943    19044.961        8.784        4.089      304.517      157.899        0.269      346.391       24.601      859.983
08/13/2014  08:56:00     -144.932     -153.469       13.352      143.766      142.100       70.841    20668.706    20192.445     5018.451        4.530        2.294      211.088       66.391        0.099      346.257       24.371      860.152
08/13/2014  08:57:00     -217.259     -270.588      -16.639      107.833      108.554       56.053    11628.060    11784.020     3141.909        7.362        1.328      347.015       43.755        0.016      346.132       24.156      860.190
08/13/2014  08:58:00     -137.165     -168.586        8.417      101.048      126.498       48.932    10210.714    16001.806     2394.386        3.795        1.430      217.337       40.092        0.034      346.113       24.122      860.198
08/13/2014  08:59:00     -170.795     -191.785        5.858      107.125       70.200       58.130    11475.785     4928.098     3379.125        4.288        0.989      256.811       53.986        0.044      346.194       24.262      860.177
08/13/2014  09:00:00     -115.289     -201.966        1.011      100.550      100.431       49.567    10110.309    10086.342     2456.848        3.836        1.133      232.555       44.521        0.037      346.236       24.335      860.190
08/13/2014  09:01:00     -162.989     -220.681       -7.731      119.762      105.563       57.142    14342.989    11143.495     3265.210        5.203        1.438      274.345       70.656        0.066      346.171       24.223      860.192
08/13/2014  09:02:00     -107.815       20.461       10.269       50.666       63.446       34.606     2567.008     4025.334     1197.541        0.997        0.389      109.739       27.534        0.063      346.275       24.406      860.151
08/13/2014  09:03:00     -191.275      -55.328       -1.617       95.609       96.247       42.932     9140.993     9263.505     1843.168        2.994        1.012      199.116       43.578        0.048      346.308       24.460      860.126
08/13/2014  09:04:00     -119.821      -64.243       11.628       92.712       92.362       49.125     8595.472     8530.767     2413.218        1.908        0.977      135.956       51.356        0.143      346.434       24.677      860.165
08/13/2014  09:05:00     -104.866      -50.700       16.957       69.661       65.902       34.297     4852.715     4343.093     1176.255        1.211        0.519      116.479       42.158        0.131      346.419       24.653      860.141
08/13/2014  09:06:00      -42.575      -56.846       16.659       61.368       71.786       34.935     3765.998     5153.245     1220.426        0.773        0.507       71.022       31.368        0.195      346.801       25.309      860.134
08/13/2014  09:07:00       58.372      -88.093       36.862      104.814      110.580       62.113    10985.996    12227.910     3857.992        1.979        1.354      105.677       60.370        0.326      346.631       25.017      860.082
08/13/2014  09:08:00      -16.397      -27.233       12.752       41.725       44.252       28.062     1740.942     1958.200      787.449        0.283        0.224       31.789       25.843        0.661      346.715       25.162      860.074
08/13/2014  09:09:00      -55.894      -50.799       -1.493       46.032       37.548       18.902     2118.955     1409.829      357.300        0.480        0.194       75.530       13.349        0.031      346.588       24.945      860.074
08/13/2014  09:10:00      -64.168      -66.477       12.653       64.440       48.849       32.956     4152.490     2386.197     1086.096        0.816        0.381       92.394       22.443        0.059      346.594       24.954      860.087
08/13/2014  09:11:00     -216.094     -120.937        3.146      107.199      107.583       64.271    11491.643    11574.046     4130.753        4.426        1.360      247.634       49.697        0.040      346.444       24.692      860.070
08/13/2014  09:12:00      -56.568     -171.709        6.602      135.446       89.012       60.069    18345.619     7923.115     3608.255        3.130        1.494      180.787       52.832        0.085      346.460       24.721      860.067
08/13/2014  09:13:00      -25.346     -105.341       20.054       95.429       93.069       57.752     9106.713     8661.881     3335.289        1.662        1.055      108.347       54.173        0.250      346.753       25.225      860.102
08/13/2014  09:14:00      -40.157     -274.398       14.091      217.530      192.251       88.666    47319.133    36960.532     7861.613        8.460        4.607      277.321       36.512        0.017      346.378       24.578      860.104
08/13/2014  09:15:00     -274.480     -239.162        8.649      209.924      175.521       97.066    44068.054    30807.528     9421.788       10.844        4.215      364.057       84.138        0.053      346.289       24.425      860.034
08/13/2014  09:16:00     -193.467     -149.565       16.873      101.612      134.906       57.029    10324.933    18199.684     3252.302        4.592        1.589      244.539       60.053        0.060      346.373       24.571      860.036
08/13/2014  09:17:00        0.488     -112.384       11.296      120.647      130.379       77.946    14555.766    16998.694     6075.608        2.519        1.882      112.385       74.803        0.443      346.628       25.011      859.996
08/13/2014  09:18:00      -49.668     -124.125       -0.940      138.496       89.673       72.374    19181.072     8041.183     5238.023        2.516        1.623      133.694       43.991        0.108      346.500       24.790      859.989
08/13/2014  09:19:00      -57.570     -159.290       14.019       89.774      198.486       86.760     8059.437    39396.621     7527.365        4.192        2.749      169.374      106.894        0.398      346.637       25.025      860.021
08/13/2014  09:20:00        5.755     -199.060        3.017      186.168      138.232      104.804    34658.407    19108.103    10983.920        5.220        3.238      199.143       76.686        0.148      346.486       24.765      859.991
08/13/2014  09:21:00       76.583     -204.266      -12.711      112.877      161.976       83.231    12741.250    26236.296     6927.472        4.682        2.295      218.150       81.097        0.138      346.724       25.176      859.998
08/13/2014  09:22:00       15.764      -66.947        6.878       94.187       87.034       51.209     8871.222     7574.870     2622.392        1.192        0.953       68.778       54.770        0.634      346.753       25.228      860.001
08/13/2014  09:23:00      -28.197     -105.762       32.564      120.846      115.066       58.437    14603.656    13240.107     3414.892        2.214        1.563      109.456       62.974        0.331      346.872       25.431      860.007
08/13/2014  09:24:00      -16.519     -112.596       10.568      136.567      103.803       57.938    18650.638    10774.983     3356.839        2.292        1.639      113.801       57.850        0.258      346.893       25.468      860.009
08/13/2014  09:25:00       59.497     -250.277      -25.999      110.296      129.885       75.168    12165.266    16870.119     5650.293        5.076        1.734      257.252       65.364        0.065      346.712       25.153      860.051
08/13/2014  09:26:00        3.591      -67.581       16.066       88.298       95.248       58.996     7796.574     9072.088     3480.499        1.259        1.017       67.676       39.396        0.339      346.928       25.529      860.070
08/13/2014  09:27:00       86.414     -347.374      -30.553      170.341      182.142       86.529    29016.025    33175.647     7487.308        9.936        3.484      357.961       76.298        0.045      346.473       24.741      860.044
08/13/2014  09:28:00       55.646     -280.452        7.334      161.772      162.581      104.684    26170.258    26432.677    10958.828        7.267        3.178      285.920       85.695        0.090      346.527       24.835      860.024
08/13/2014  09:29:00      -28.423      -30.881       -3.441       53.268       90.174       54.258     2837.494     8131.344     2943.920        0.784        0.696       41.970       46.557        1.231      346.679       25.100      860.014
08/13/2014  09:30:00      -69.591      -27.367       12.229       79.155       86.412       51.428     6265.528     7467.030     2644.817        1.106        0.819       74.779       48.379        0.419      346.803       25.313      860.023
08/13/2014  09:31:00       12.803     -194.533      -14.562      132.825      148.197       82.541    17642.453    21962.398     6812.961        4.231        2.321      194.954       75.823        0.151      346.621       24.998      860.041
08/13/2014  09:32:00      139.159      -95.044       54.730      176.479      217.763      136.589    31144.828    47420.843    18656.482        6.429        4.861      168.518      153.064        0.825      346.852       25.395      860.014
08/13/2014  09:33:00       71.677     -169.347       43.582      163.923      266.802      162.501    26870.901    71183.545    26406.471        8.006        6.223      183.891      159.538        0.753      346.691       25.117      859.929
08/13/2014  09:34:00       15.808     -127.056       10.334      202.700      169.050      102.017    41087.409    28577.854    10407.488        4.827        4.004      128.036       90.087        0.495      346.744       25.209      859.995
08/13/2014  09:35:00       58.843     -267.803      -11.808      151.744      217.077      108.691    23026.250    47122.492    11813.699        7.862        4.098      274.192      138.500        0.255      346.681       25.100      860.015
08/13/2014  09:36:00       79.728      -63.653      132.671      170.735      229.950      168.262    29150.322    52877.099    28312.083        6.915        5.517      102.020      164.868        2.612      346.829       25.354      859.967
08/13/2014  09:37:00       27.933     -192.325       -3.468      125.342      164.082       87.093    15710.584    26922.914     7585.201        4.399        2.511      194.343       83.680        0.185      346.797       25.301      860.015
08/13/2014  09:38:00       66.917     -240.197        6.304      156.206      178.329       82.639    24400.347    31801.098     6829.203        6.261        3.152      249.345       97.537        0.153      346.782       25.275      860.048
08/13/2014  09:39:00      147.560     -182.778       85.294      181.322      250.029      158.665    32877.547    62514.277    25174.481        9.149        6.028      234.908      175.539        0.558      346.728       25.182      859.976
08/13/2014  09:40:00       82.161     -193.882       33.784      128.046      185.150      105.846    16395.699    34280.472    11203.433        5.367        3.094      210.573      115.443        0.301      346.759       25.234      859.999
08/13/2014  09:41:00      -23.022     -108.655       48.448       83.945      128.617       73.784     7046.795    16542.324     5444.075        2.185        1.452      111.067       67.150        0.366      346.901       25.481      860.032
08/13/2014  09:42:00       66.141      -98.626       74.596       99.794      210.813      118.739     9958.889    44442.093    14099.012        4.407        3.425      118.751      129.387        1.187      346.890       25.460      860.023
08/13/2014  09:43:00      181.328     -231.861       78.926      188.371      244.970      175.308    35483.727    60010.493    30732.944       10.952        6.311      294.346      189.661        0.415      346.585       24.936      860.000
08/13/2014  09:44:00      279.067     -251.706       28.943      181.522      252.197      144.917    32950.177    63603.420    21001.051       12.979        5.878      375.811      146.518        0.152      346.521       24.825      859.946
08/13/2014  09:45:00       36.110      -73.945       38.341      177.089      137.058      105.602    31360.501    18784.946    11151.699        3.476        3.065       82.291       91.044        1.224      346.652       25.051      860.005
08/13/2014  09:46:00      -35.443     -281.883        3.938      111.242      123.783       85.154    12374.776    15322.207     7251.174        5.783        1.747      284.102       59.854        0.044      346.601       24.963      860.037
08/13/2014  09:47:00       40.974     -243.872       -3.473      113.392      120.935       62.880    12857.790    14625.338     3953.913        4.629        1.572      247.291       45.492        0.034      346.605       24.970      860.083
08/13/2014  09:48:00       31.473     -129.238       21.182      129.588      177.386       78.379    16793.085    31465.682     6143.338        3.626        2.720      133.015       70.098        0.278      346.826       25.352      860.126
08/13/2014  09:49:00       43.900     -257.436      -36.662      193.123      221.678      118.911    37296.512    49141.104    14139.769        8.504        5.029      261.152      133.167        0.260      346.698       25.129      860.097
08/13/2014  09:50:00      -17.076      -86.457       60.188      129.913      141.927       92.217    16877.367    20143.255     8504.016        2.845        2.276       88.128       84.181        0.912      346.966       25.592      860.137
08/13/2014  09:51:00       -5.219     -154.752       22.382      109.840      144.860       80.625    12064.843    20984.372     6500.336        3.201        1.977      154.840       79.285        0.262      346.907       25.490      860.168
08/13/2014  09:52:00       29.006     -194.187      -23.647      123.661      175.581       84.666    15292.150    30828.748     7168.254        4.619        2.664      196.342       44.916        0.052      346.704       25.141      860.141
08/13/2014  09:53:00      212.874     -225.032       34.441      268.433      258.200      154.640    72056.528    66667.090    23913.555       12.986        8.132      309.765      162.585        0.275      346.680       25.099      860.051
08/13/2014  09:54:00      184.165     -278.075      -15.628      169.488      229.436      107.127    28726.073    52640.702    11476.238       10.215        4.642      333.530      139.945        0.176      346.765       25.246      860.061
08/13/2014  09:55:00       33.444     -112.614       42.385      151.963      153.612      103.566    23092.641    23596.670    10725.998        3.649        2.871      117.475       94.481        0.647      346.887       25.456      860.042
08/13/2014  09:56:00       45.135     -201.909       19.803      135.165      151.478       70.013    18269.622    22945.446     4901.836        4.465        2.306      206.892       78.546        0.144      346.806       25.316      860.055
08/13/2014  09:57:00      121.697     -255.283       17.925      164.468      229.660      123.451    27049.706    52743.554    15240.268        8.765        4.752      282.807      139.926        0.245      346.702       25.137      860.091
08/13/2014  09:58:00       95.508     -307.513       18.160      114.341      162.442      102.546    13073.883    26387.245    10515.606        7.699        2.499      322.004       93.365        0.084      346.778       25.268      860.081
08/13/2014  09:59:00       69.356     -137.395       19.642      103.280      117.689       77.093    10666.703    13850.800     5943.358        2.726        1.523      153.908       75.216        0.239      346.951       25.567      860.077
08/13/2014  10:00:00      -56.082     -182.163        5.007      124.256       89.519       66.879    15439.497     8013.586     4472.848        3.213        1.396      190.600       49.007        0.066      346.896       25.471      860.122
08/13/2014  10:01:00      -49.641     -111.951        7.111       75.541       88.081       51.694     5706.389     7758.266     2672.295        1.559        0.807      122.463       42.356        0.120      346.990       25.634      860.152
08/13/2014  10:02:00      -11.182     -244.983       14.858      183.125      233.403      101.050    33534.861    54476.794    10211.024        7.927        4.911      245.238      105.166        0.184      346.876       25.437      860.126
08/13/2014  10:03:00      -47.120      -99.350       14.586      141.057       98.469       67.780    19897.214     9696.132     4594.089        2.324        1.709      109.958       66.196        0.362      346.906       25.489      860.154
08/13/2014  10:04:00      -58.004     -254.416       -3.227      145.546      138.688       56.143    21183.710    19234.277     3152.071        5.583        2.179      260.944       41.167        0.025      346.769       25.251      860.169
08/13/2014  10:05:00      172.198     -302.861       -3.793      150.055      201.716      123.088    22516.554    40689.443    15150.642        9.986        3.918      348.392      136.959        0.155      346.867       25.420      860.116
08/13/2014  10:06:00       47.029     -172.267      -18.888      182.717      156.702       99.949    33385.529    24555.519     9989.827        5.007        3.397      178.571      114.388        0.410      346.935       25.537      860.108
08/13/2014  10:07:00     -113.602     -101.263       24.753      156.907       99.183       75.324    24619.887     9837.240     5673.737        3.194        2.007      152.183       55.821        0.135      346.974       25.606      860.048
08/13/2014  10:08:00       54.559     -275.373      -34.908      146.948      164.854       99.228    21593.732    27176.741     9846.245        6.931        2.931      280.726       62.617        0.050      346.886       25.452      860.053
08/13/2014  10:09:00       47.910     -392.691        3.675      183.191      188.605      112.145    33559.004    35571.884    12576.456       11.909        4.085      395.603       98.739        0.062      346.815       25.331      860.113
08/13/2014  10:10:00      148.598     -274.846        8.508      190.216      176.574       86.402    36182.252    31178.520     7465.222        8.624        3.741      312.444       78.288        0.063      346.902       25.481      860.149
08/13/2014  10:11:00       10.937     -248.184       -9.809      118.059      187.868       70.957    13938.006    35294.502     5034.899        5.803        2.713      248.425       75.971        0.094      346.941       25.549      860.207
08/13/2014  10:12:00      -22.509     -109.465        7.575       82.175      117.488       73.291     6752.649    13803.409     5371.505        1.923        1.296      111.755       48.081        0.185      347.160       25.927      860.174
08/13/2014  10:13:00      -36.684     -188.438      -24.775       99.602      121.712       58.355     9920.462    14813.726     3405.301        3.280        1.407      191.976       63.397        0.109      347.027       25.698      860.170
08/13/2014  10:14:00       47.522     -211.706        8.346      136.513      170.041       80.315    18635.831    28914.024     6450.487        5.056        2.700      216.974       79.237        0.133      347.073       25.775      860.172
08/13/2014  10:15:00       36.529     -318.677        8.517      191.385      162.130      118.667    36628.188    26286.235    14081.969        8.996        3.850      320.764      112.669        0.123      346.901       25.477      860.163
08/13/2014  10:16:00      -53.534     -274.047       -1.681      159.585      143.283       73.424    25467.245    20530.008     5391.066        6.467        2.569      279.227       60.421        0.047      346.763       25.241      860.201
08/13/2014  10:17:00       63.618     -143.332       26.296      161.397      225.964      118.058    26049.051    51059.897    13937.692        5.815        4.552      156.816      130.637        0.694      346.992       25.634      860.166
08/13/2014  10:18:00       10.463     -131.691      -11.582       85.146       89.329       73.818     7249.885     7979.591     5449.081        1.913        1.034      132.106       44.496        0.113      346.994       25.641      860.191
08/13/2014  10:19:00      101.577     -192.847        0.777      133.989      189.685       83.600    17953.161    35980.581     6988.884        5.420        3.046      217.963       86.450        0.157      346.960       25.582      860.173
08/13/2014  10:20:00      -30.069     -153.451       11.218      131.354      116.073       72.428    17253.961    13472.966     5245.791        3.027        1.799      156.369       59.789        0.146      346.948       25.561      860.148
08/13/2014  10:21:00       14.873     -210.258        3.578      129.221      187.040       80.141    16698.043    34984.004     6422.544        5.126        2.905      210.784       91.355        0.188      346.992       25.636      860.174
08/13/2014  10:22:00      123.722     -212.500       27.907      149.331      177.120       94.318    22299.842    31371.607     8895.951        6.189        3.128      245.893       99.427        0.163      347.007       25.662      860.126
08/13/2014  10:23:00      127.263     -210.250       31.183      189.061      174.204      102.211    35744.133    30347.159    10446.987        6.894        3.827      245.766       95.955        0.152      347.084       25.792      860.109
08/13/2014  10:24:00       38.236     -184.706       14.854      170.817      131.053       81.485    29178.516    17174.897     6639.884        4.439        2.650      188.622       68.308        0.131      347.172       25.946      860.107
08/13/2014  10:25:00      140.172     -253.859       17.648      251.436      291.490      126.384    63220.229    84966.174    15972.966       12.425        8.208      289.987      138.384        0.228      347.087       25.800      860.097
08/13/2014  10:26:00       83.686     -305.653       -1.729      227.762      151.584      101.686    51875.415    22977.838    10340.026        9.279        4.260      316.903       75.924        0.057      346.951       25.564      860.105
08/13/2014  10:27:00       98.354     -114.894       66.960      136.648      185.177      113.798    18672.624    34290.432    12949.943        4.662        3.296      151.242      130.111        0.740      347.216       26.022      860.122
08/13/2014  10:28:00       70.327     -126.750       55.802      156.325      196.213       93.599    24437.399    38499.613     8760.686        4.790        3.585      144.953      114.811        0.627      347.272       26.118      860.103
08/13/2014  10:29:00       40.683       -9.605      147.641      164.893      215.498      136.118    27189.541    46439.560    18527.992        5.783        4.608       41.802      154.913       13.733      347.293       26.155      860.038
08/13/2014  10:30:00      108.866     -331.922       15.948      189.243      245.290      128.404    35812.969    60167.052    16487.462       11.735        5.623      349.319      128.551        0.135      347.019       25.682      860.068
08/13/2014  10:31:00      183.281     -407.108      -13.002      171.928      186.527      113.766    29559.151    34792.249    12942.621       13.838        3.865      446.463       93.305        0.044      346.826       25.350      860.128
08/13/2014  10:32:00      -36.649     -235.980       -6.728      181.457      130.641       80.892    32926.524    17067.149     6543.513        5.679        2.827      238.809       46.922        0.039      346.819       25.338      860.120
08/13/2014  10:33:00       61.420     -188.934      -19.349       79.230       86.952       54.718     6277.472     7560.565     2994.061        2.833        0.842      198.667       37.116        0.035      347.130       25.874      860.148
08/13/2014  10:34:00      -33.779     -132.361       30.403      109.330      177.811       92.838    11953.090    31616.687     8618.859        3.588        2.609      136.603      111.182        0.662      347.171       25.946      860.121
08/13/2014  10:35:00      -12.515       -8.373      111.917      108.790      125.546      109.587    11835.253    15761.855    12009.215        2.617        1.980       15.058       86.134       32.721      347.380       26.306      860.075
08/13/2014  10:36:00      109.654     -224.651       12.930      140.268      164.595       71.951    19675.154    27091.595     5176.987        5.729        2.597      249.984       67.131        0.072      347.133       25.878      860.039
08/13/2014  10:37:00      105.733     -172.276       72.040      181.567      281.923      129.719    32966.442    79480.773    16827.143        8.764        6.464      202.135      152.892        0.572      347.359       26.270      860.017
08/13/2014  10:38:00      134.374     -362.553       18.272      250.768      235.773      133.246    62884.716    55588.802    17754.481       14.300        6.811      386.654      140.086        0.131      347.089       25.802      860.058
08/13/2014  10:39:00        2.614     -271.635      -16.754      129.939      170.651       90.725    16884.111    29121.675     8231.083        6.414        2.712      271.648       95.145        0.123      347.261       26.099      860.122
08/13/2014  10:40:00      125.566     -358.518      -17.205      188.947      160.841       81.608    35700.901    25869.706     6659.914       10.640        3.412      379.871       80.946        0.045      346.995       25.640      860.163
08/13/2014  10:41:00      -39.858     -246.416       -7.904      144.069      135.296       74.841    20755.791    18305.140     5601.234        5.351        2.233      249.619       40.725        0.027      347.045       25.724      860.193
08/13/2014  10:42:00       89.565     -116.761       -2.767      148.917      116.124       80.669    22176.375    13484.782     6507.501        3.191        2.108      147.156       72.546        0.243      347.384       26.312      860.171
08/13/2014  10:43:00       62.016     -213.391        9.965      174.285      233.014       87.008    30375.228    54295.642     7570.361        7.084        4.612      222.219       99.889        0.202      347.278       26.130      860.175
08/13/2014  10:44:00       92.446     -179.921       12.222      190.182      145.741       92.070    36169.005    21240.499     8476.964        5.346        3.294      202.281       70.426        0.121      347.279       26.130      860.141
08/13/2014  10:45:00        0.782     -295.279       -9.043      145.137      129.725       84.753    21064.611    16828.677     7183.150        6.617        2.254      295.280       38.093        0.017      347.232       26.048      860.169
08/13/2014  10:46:00      -24.740     -230.062      -13.276      167.103      140.874       97.999    27923.290    19845.455     9603.853        5.553        2.869      231.388       78.689        0.116      347.104       25.827      860.188
08/13/2014  10:47:00       -9.765     -319.218       22.986      219.465      234.011       95.045    48164.820    54761.255     9033.576       10.722        5.598      319.367      113.079        0.125      346.944       25.553      860.190
08/13/2014  10:48:00       35.434     -116.241       32.833      137.522      189.152      109.256    18912.327    35778.489    11936.781        4.122        3.331      121.522       93.049        0.586      347.132       25.878      860.124
08/13/2014  10:49:00       62.768     -173.011       40.952      164.880      144.498      102.675    27185.431    20879.659    10542.077        4.707        2.930      184.045      101.188        0.302      347.233       26.052      860.124
08/13/2014  10:50:00      133.652     -212.213       -8.544      129.250      141.345       83.198    16705.434    19978.312     6921.829        5.328        2.180      250.793       80.928        0.104      347.187       25.971      860.132
08/13/2014  10:51:00     -104.787     -172.251        7.592      106.285      114.811       74.696    11296.590    13181.477     5579.546        3.538        1.503      201.621       66.771        0.110      347.339       26.233      860.145
08/13/2014  10:52:00     -151.669     -297.498      -15.575      187.712      192.433       84.886    35235.878    37030.324     7205.632        9.560        3.974      333.929       69.092        0.043      346.985       25.622      860.183
08/13/2014  10:53:00     -251.223     -341.492      -16.243      199.979      150.784       94.739    39991.635    22735.669     8975.444       12.583        3.585      423.945       76.076        0.032      346.873       25.431      860.133
08/13/2014  10:54:00      -64.484      -10.371       87.853      148.633      137.846       91.747    22091.732    19001.417     8417.445        3.074        2.476       65.312       99.860        2.338      347.606       26.695      860.149
08/13/2014  10:55:00      211.424     -179.154       74.549      208.398      262.709      134.626    43429.554    69016.201    18124.048       10.644        6.528      277.121      178.883        0.417      347.366       26.280      860.126
08/13/2014  10:56:00      174.759     -199.417       38.017      145.878      221.466      122.402    21280.407    49047.367    14982.324        7.851        4.266      265.157      144.014        0.295      347.172       25.946      860.002
08/13/2014  10:57:00       92.194      -60.672      148.864      182.126      272.297      188.088    33169.904    74145.614    35376.915        8.849        7.135      110.366      190.680        2.985      347.298       26.163      859.963
08/13/2014  10:58:00       12.580     -346.485      -13.320      165.055      164.890      100.102    27243.153    27188.610    10020.477        9.241        3.223      346.714       98.564        0.081      347.138       25.887      860.147
08/13/2014  10:59:00       60.514     -174.310       34.675      161.255      149.915       84.224    26003.268    22474.619     7093.650        4.540        2.779      184.515       72.411        0.154      347.365       26.278      860.166
08/13/2014  11:00:00       20.909     -188.966       13.800      127.058      171.905       88.566    16143.859    29551.394     7843.970        4.493        2.677      190.119       89.642        0.222      347.471       26.461      860.191
08/13/2014  11:01:00      105.373      -51.158       72.024      135.315      135.258      108.559    18310.278    18294.788    11785.077        3.364        2.420      117.135      104.070        0.789      347.682       26.827      860.208
08/13/2014  11:02:00       -5.214     -225.573       40.729      152.000      257.512      117.552    23103.918    66312.473    13818.579        7.788        5.162      225.633      142.029        0.396      347.166       25.935      860.200
08/13/2014  11:03:00       50.951     -268.798        5.320      177.016      208.405       80.989    31334.774    43432.511     6559.268        7.809        4.066      273.584       68.249        0.062      347.129       25.872      860.183
08/13/2014  11:04:00       84.848     -194.813        0.208      165.205      216.702       72.955    27292.809    46959.719     5322.431        6.235        3.979      212.489       83.856        0.156      347.391       26.324      860.193
08/13/2014  11:05:00       90.261      -63.200       29.249      125.987      117.293       84.655    15872.748    13757.536     7166.390        2.489        1.840      110.187       54.396        0.244      347.739       26.925      860.206
08/13/2014  11:06:00      197.958     -349.093       47.753      183.758      294.686      155.833    33767.145    86839.799    24283.971       15.408        7.245      401.315      176.547        0.194      347.072       25.774      860.144
08/13/2014  11:07:00       11.577     -249.296        0.832      189.852      152.705       86.783    36043.788    23318.785     7531.282        6.458        3.345      249.564       73.179        0.086      347.186       25.971      860.187
08/13/2014  11:08:00      115.525     -272.369      -43.100      251.814      175.387      125.270    63410.488    30760.552    15692.487        9.960        5.493      295.857      112.763        0.145      347.312       26.187      860.159
08/13/2014  11:09:00      -29.090      -69.880       18.288      148.582      204.426      110.700    22076.541    41790.129    12254.428        4.108        3.806       75.693      109.538        2.094      347.394       26.329      860.241
08/13/2014  11:10:00       35.905     -260.398       -1.454      131.655      213.113      102.593    17333.116    45417.018    10525.385        7.117        3.664      262.862      106.736        0.165      347.231       26.046      860.233
08/13/2014  11:11:00        1.155     -224.189       -9.500      127.636      106.626       65.713    16290.942    11369.165     4318.174        4.116        1.599      224.192       30.477        0.018      347.243       26.069      860.233
08/13/2014  11:12:00       32.485     -153.835       28.909      168.365      146.832       77.048    28346.759    21559.622     5936.328        4.069        2.792      157.228       67.991        0.187      347.475       26.468      860.251
08/13/2014  11:13:00       84.260     -211.338        8.359      172.905      234.094      105.262    29896.310    54799.851    11080.096        7.379        4.789      227.516      117.307        0.266      347.548       26.596      860.235
08/13/2014  11:14:00      -44.588       38.186       57.506       73.049      104.771       76.500     5336.116    10977.058     5852.264        1.445        1.108       58.705       66.603        1.287      347.800       27.032      860.269
08/13/2014  11:15:00      -20.137      -88.456       12.514       79.052       84.456       53.013     6249.204     7132.855     2810.383        1.229        0.810       90.719       63.123        0.484      347.708       26.874      860.277
08/13/2014  11:16:00      -42.414     -105.843       13.740       87.088      122.211       65.790     7584.337    14935.577     4328.288        2.001        1.342      114.025       51.441        0.204      347.266       26.109      860.226
08/13/2014  11:17:00      -84.139     -195.491        1.105      130.191      154.416       69.256    16949.661    23844.191     4796.395        4.543        2.280      212.829       71.561        0.113      347.374       26.296      860.237
08/13/2014  11:18:00       61.122     -125.388       59.067      112.274      173.607      120.975    12605.347    30139.322    14634.866        4.015        2.869      139.492      130.209        0.871      347.771       26.980      860.242
08/13/2014  11:19:00      129.976      -81.286      108.587      156.017      185.643      113.232    24341.271    34463.364    12821.405        5.344        3.581      153.301      110.747        0.522      347.660       26.787      860.209
08/13/2014  11:20:00      122.773     -171.755       27.283      159.979      159.940      107.591    25593.404    25580.828    11575.747        5.402        3.137      211.123       95.902        0.206      347.472       26.462      860.168
08/13/2014  11:21:00       66.057     -180.805        1.419      132.003      156.336       77.112    17424.903    24440.918     5946.215        4.242        2.391      192.494       92.115        0.229      347.555       26.607      860.145
08/13/2014  11:22:00      140.410     -231.565       33.363      271.482      260.529      142.614    73702.244    67875.265    20338.692       11.815        8.096      270.808      173.524        0.411      347.606       26.693      860.117
08/13/2014  11:23:00       18.572     -521.187       13.785      183.161      211.518      109.578    33547.867    44739.677    12007.303       18.121        4.515      521.518      102.424        0.039      347.099       25.819      860.273
08/13/2014  11:24:00        3.948     -335.589        8.048      172.212      196.683      105.340    29656.983    38684.351    11096.562        9.605        3.972      335.613       86.371        0.066      347.139       25.888      860.340
08/13/2014  11:25:00       55.688     -342.980      -20.658      159.634      127.334       87.448    25483.163    16213.956     7647.235        8.524        2.467      347.472       54.917        0.025      346.982       25.617      860.407
08/13/2014  11:26:00     -153.693     -166.915       24.334      186.155      167.007       84.476    34653.697    27891.469     7136.214        6.086        3.484      226.897       83.700        0.136      347.154       25.915      860.330
08/13/2014  11:27:00      -56.722     -162.582       14.901      140.311      134.985       75.504    19687.201    18220.865     5700.833        3.673        2.180      172.193       67.791        0.155      347.243       26.067      860.351
08/13/2014  11:28:00       30.025     -235.800       41.497      163.883      148.949       86.508    26857.656    22185.708     7483.567        5.736        2.826      237.704       66.007        0.077      347.296       26.160      860.332
08/13/2014  11:29:00      135.716     -258.829       10.029      124.148      189.051      110.941    15412.811    35740.243    12307.881        7.447        3.173      292.252      110.135        0.142      347.291       26.150      860.333
08/13/2014  11:30:00       -8.835     -155.005       14.440       89.528      141.545       61.377     8015.231    20035.058     3767.089        2.806        1.591      155.257       68.624        0.195      347.437       26.403      860.329
08/13/2014  11:31:00      -59.360     -151.603      -35.055      102.735       89.239       50.313    10554.559     7963.516     2531.423        2.439        1.052      162.810       34.363        0.045      347.324       26.208      860.324
08/13/2014  11:32:00       -6.995      -77.287       15.525      149.829      117.471       63.046    22448.643    13799.345     3974.826        2.324        2.011       77.603       67.971        0.767      347.658       26.786      860.367
08/13/2014  11:33:00      104.627     -166.319        6.509      104.581      121.220       79.542    10937.161    14694.231     6327.000        3.530        1.598      196.492       74.466        0.144      347.845       27.108      860.327
08/13/2014  11:34:00      126.215     -149.231       26.017      136.041      191.886       95.254    18507.275    36820.253     9073.285        5.163        3.220      195.449      115.674        0.350      347.458       26.441      860.280
08/13/2014  11:35:00      -25.232     -113.475       -6.228      113.556      129.578       54.674    12894.917    16790.447     2989.270        2.311        1.634      116.246       58.580        0.254      347.562       26.621      860.291
08/13/2014  11:36:00     -118.115      -81.838       15.837      154.113      104.872       65.691    23750.941    10998.036     4315.284        2.997        1.953      143.696       67.679        0.222      347.721       26.893      860.322
08/13/2014  11:37:00     -250.806     -311.101       -7.546      217.652      149.649       83.791    47372.395    22394.786     7020.976       11.825        3.839      399.609       79.117        0.039      347.348       26.249      860.360
08/13/2014  11:38:00      -43.122     -200.209        7.162      117.148      165.932       65.043    13723.747    27533.321     4230.640        4.373        2.274      204.801       57.687        0.079      347.223       26.034      860.353
08/13/2014  11:39:00       13.340     -200.594        1.820      167.400      127.095       80.552    28022.823    16153.017     6488.618        4.553        2.533      201.037       73.126        0.132      347.337       26.231      860.311
08/13/2014  11:40:00       -1.301     -123.819        2.991       96.114       86.326       49.640     9237.814     7452.123     2464.113        1.724        0.958      123.825       43.444        0.123      347.472       26.465      860.283
08/13/2014  11:41:00     -338.778     -282.875        0.532      209.441      212.562       98.841    43865.515    45182.495     9769.588       14.678        4.941      441.349      109.512        0.062      347.206       26.005      860.289
08/13/2014  11:42:00     -368.520     -241.865       15.351      237.828      179.706       90.430    56562.095    32294.072     8177.524       14.577        4.852      440.801      104.553        0.056      347.131       25.873      860.255
08/13/2014  11:43:00     -179.945     -203.495        1.744      188.584      101.325       67.842    35563.865    10266.770     4602.476        6.210        2.522      271.644       77.122        0.081      347.181       25.961      860.279
08/13/2014  11:44:00      -84.005     -159.296      -13.630       86.716       94.690       54.229     7519.580     8966.188     2940.749        2.602        0.971      180.089       45.008        0.062      347.216       26.022      860.289
08/13/2014  11:45:00      -60.977     -115.304       -1.531      118.919      118.924       67.085    14141.713    14142.849     4500.430        2.489        1.639      130.434       72.970        0.313      347.648       26.767      860.312
08/13/2014  11:46:00       21.989      -54.640       62.564      110.164      135.634       92.083    12136.104    18396.529     8479.251        2.319        1.951       58.898       87.876        2.226      347.937       27.268      860.247
08/13/2014  11:47:00      -63.646     -116.895       27.225      197.007      164.110       72.414    38811.913    26932.177     5243.854        4.471        3.549      133.098       71.613        0.289      347.923       27.243      860.352
08/13/2014  11:48:00       59.894     -144.597       24.311       97.345      146.019       72.288     9476.095    21321.404     5225.489        3.055        1.801      156.510       79.346        0.257      347.606       26.695      860.414
08/13/2014  11:49:00       66.867       44.521       36.861       56.179       60.300       33.522     3156.027     3636.091     1123.698        0.786        0.396       80.333       27.494        0.117      347.786       27.007      860.357
08/13/2014  11:50:00       83.304      -94.820      -16.981       79.460      121.721       42.468     6313.902    14815.906     1803.569        1.957        1.147      126.216       38.953        0.095      347.726       26.902      860.341
08/13/2014  11:51:00      -17.964       32.503       41.673       61.949       70.103       51.177     3837.694     4914.379     2619.135        0.724        0.569       37.137       35.136        0.895      348.130       27.603      860.378
08/13/2014  11:52:00     -216.474      -47.559      -13.468      104.848      102.575       63.732    10993.186    10521.595     4061.724        3.744        1.279      221.637       42.145        0.036      347.418       26.372      860.360
08/13/2014  11:53:00     -108.102      -91.125        2.568      166.426       89.511       66.944    27697.762     8012.158     4481.453        3.009        2.010      141.385       71.590        0.256      347.332       26.225      860.275
08/13/2014  11:54:00       25.711       56.090      107.747       87.740      107.659       83.137     7698.358    11590.487     6911.768        2.080        1.310       61.702       86.000        1.943      348.138       27.614      860.207
08/13/2014  11:55:00     -142.093     -101.862       11.810      171.714      109.117       68.820    29485.784    11906.601     4736.137        3.841        2.306      174.832       60.235        0.119      347.716       26.885      860.283
08/13/2014  11:56:00     -145.326     -237.283       -3.536      195.040      121.027       76.602    38040.449    14647.580     5867.913        6.798        2.928      278.249       67.580        0.059      347.396       26.331      860.277
08/13/2014  11:57:00      148.745     -190.957        3.713      145.641      163.599       80.219    21211.183    26764.757     6435.127        5.650        2.721      242.053       97.121        0.161      347.550       26.597      860.307
08/13/2014  11:58:00       76.712     -143.917       73.658      115.154      237.995       83.839    13260.434    56641.505     7029.019        5.446        3.847      163.086      121.293        0.553      347.401       26.341      860.274
08/13/2014  11:59:00        3.375      -69.106       61.428       72.498      157.342      100.074     5256.022    24756.639    10014.727        2.429        2.001       69.188      110.797        2.564      347.665       26.796      860.247
08/13/2014  12:00:00      -52.971     -137.708      -32.916       68.315       91.746       53.357     4666.887     8417.406     2846.958        1.939        0.797      147.544       49.286        0.112      347.656       26.781      860.296
08/13/2014  12:01:00      -24.633        5.144       44.933      154.407      128.716       74.555    23841.666    16567.761     5558.504        2.430        2.298       25.164       73.051        8.427      348.029       27.427      860.231
08/13/2014  12:02:00     -135.655     -134.613       -0.735      126.536      109.322       68.177    16011.320    11951.291     4648.052        3.456        1.631      191.110       57.313        0.090      347.662       26.789      860.249
08/13/2014  12:03:00      -31.301     -118.380        0.880      136.489      101.679       57.546    18629.315    10338.696     3311.498        2.363        1.614      122.448       36.352        0.088      347.436       26.403      860.282
08/13/2014  12:04:00       14.250      -77.652       14.954       47.432       79.923       44.384     2249.774     6387.632     1969.922        0.853        0.530       78.949       45.038        0.325      347.780       26.998      860.221
08/13/2014  12:05:00       28.704      -94.126       18.407       58.006       80.886       54.719     3364.639     6542.605     2994.210        1.146        0.645       98.406       32.428        0.109      347.829       27.082      860.193
08/13/2014  12:06:00        8.122     -100.491       21.557       82.052      111.326       66.874     6732.588    12393.534     4472.162        1.711        1.180      100.819       57.656        0.327      348.033       27.433      860.175
08/13/2014  12:07:00     -118.377     -238.422        9.696      123.219      151.585       72.550    15183.036    22978.126     5263.456        5.718        2.171      266.192       71.572        0.072      347.826       27.075      860.219
08/13/2014  12:08:00      -22.104       11.996       88.881       77.466      200.453      120.561     6000.916    40181.448    14534.967        3.461        3.036       25.150      138.569       30.358      348.042       27.447      860.189
08/13/2014  12:09:00       19.622       -5.157      126.869       88.473      134.624      102.769     7827.504    18123.536    10561.555        2.650        1.826       20.288       95.726       22.263      347.777       26.990      860.181
08/13/2014  12:10:00      117.946      -88.544       97.646      191.989      236.059      140.270    36859.682    55724.085    19675.635        7.175        5.613      147.483      166.042        1.268      347.421       26.375      860.240
08/13/2014  12:11:00      118.061      -14.022       78.914      106.926      123.017       93.644    11433.193    15133.120     8769.239        2.784        1.767      118.891       75.656        0.405      347.235       26.055      860.144
08/13/2014  12:12:00       60.946      -75.172       49.238      117.335      150.882      101.652    13767.458    22765.367    10333.203        2.932        2.343       96.774      111.985        1.339      347.418       26.370      860.086
08/13/2014  12:13:00     -165.103     -128.821      -13.072      144.907      105.928       55.969    20998.009    11220.734     3132.573        3.968        1.768      209.413       30.450        0.021      347.287       26.146      860.079
08/13/2014  12:14:00     -359.279     -214.952      -22.023      206.864      188.526      105.329    42792.553    35542.001    11094.228       13.258        4.471      418.671      116.393        0.077      347.137       25.886      860.068
08/13/2014  12:15:00     -276.984     -131.551       -3.434      191.616      148.441       80.976    36716.703    22034.610     6557.155        7.966        3.265      306.636       86.058        0.079      347.140       25.889      860.105
08/13/2014  12:16:00     -297.255     -314.308      -23.867      140.984      206.772       68.023    19876.391    42754.823     4627.182       12.748        3.363      432.608       73.960        0.029      347.068       25.766      860.105
08/13/2014  12:17:00     -191.826      -91.739       -1.443      101.319       77.388       55.875    10265.443     5988.963     3121.973        3.229        0.969      212.634       41.592        0.038      347.370       26.288      860.095
08/13/2014  12:18:00     -235.245     -267.017      -11.747      142.459      183.347       52.357    20294.698    33616.057     2741.280        9.170        2.833      355.863       52.133        0.021      347.359       26.266      860.100
08/13/2014  12:19:00     -100.473      -46.823       17.733      109.767       95.539       53.392    12048.774     9127.662     2850.710        1.831        1.201      110.848       55.989        0.255      347.693       26.847      860.085
08/13/2014  12:20:00       37.484     -129.322       16.421      118.945      161.797       96.719    14147.916    26178.348     9354.598        3.403        2.484      134.645      108.475        0.649      347.819       27.062      860.008
08/13/2014  12:21:00     -491.131     -418.223       -9.513      309.785      227.835      110.702    95966.654    51908.906    12254.898       28.814        8.007      645.074      122.101        0.036      347.215       26.021      860.007
08/13/2014  12:22:00     -556.054     -350.112      -27.237      244.728      176.789      113.460    59891.831    31254.425    12873.148       26.825        5.201      657.096       88.446        0.018      347.045       25.725      860.082
08/13/2014  12:23:00     -467.733     -236.849      -20.632      188.468      191.577       85.149    35520.095    36701.608     7250.399       17.737        3.974      524.282       84.539        0.026      347.080       25.787      860.117
08/13/2014  12:24:00     -174.233     -297.034       -8.502      127.840      118.264       65.424    16343.120    13986.394     4280.257        7.663        1.730      344.364       53.823        0.024      347.003       25.655      860.140
08/13/2014  12:25:00     -170.321     -284.297       -0.703      146.263      150.227       80.850    21392.804    22568.144     6536.730        8.016        2.525      331.412       81.386        0.060      346.973       25.602      860.110
08/13/2014  12:26:00      -26.841     -210.588      -19.910      105.970       91.321       45.862    11229.590     8339.509     2103.302        3.356        1.084      212.292       33.906        0.026      347.271       26.116      860.106
08/13/2014  12:27:00      -43.925      -83.751       23.446       78.991       72.729       53.630     6239.551     5289.510     2876.220        1.195        0.720       94.570       45.904        0.236      347.480       26.478      860.135
08/13/2014  12:28:00     -113.728     -231.611       12.038      143.440      144.432       74.771    20574.919    20860.602     5590.641        5.687        2.351      258.027       71.300        0.076      347.120       25.856      860.165
08/13/2014  12:29:00     -168.201     -181.194       -1.891      113.386      109.083       59.743    12856.477    11898.993     3569.198        4.472        1.416      247.231       52.330        0.045      347.173       25.947      860.131
08/13/2014  12:30:00     -106.768      -65.301       21.481      110.334      148.895       66.331    12173.663    22169.734     4399.752        2.743        1.937      125.155       63.427        0.257      347.428       26.389      860.129
08/13/2014  12:31:00     -253.822     -127.460       18.905      219.825      146.002       80.185    48323.003    21316.693     6429.700        7.853        3.803      284.028       93.579        0.109      347.275       26.123      860.147
08/13/2014  12:32:00      -83.478     -106.638       16.169      134.129       88.458       61.067    17990.460     7824.734     3729.230        2.407        1.477      135.426       58.052        0.184      347.423       26.380      860.108
08/13/2014  12:33:00     -137.588     -163.152      -10.602      105.960      121.352       50.001    11227.590    14726.205     2500.114        3.705        1.423      213.422       49.489        0.054      347.460       26.442      860.149
08/13/2014  12:34:00     -138.320     -295.459       10.573      136.448      247.198       80.027    18618.018    61106.723     6404.284        9.632        4.306      326.233       78.248        0.058      347.359       26.268      860.170
08/13/2014  12:35:00     -169.752     -191.241       14.129      145.820      126.593       68.666    21263.432    16025.853     4714.984        5.379        2.100      255.712       63.367        0.061      347.228       26.043      860.144
08/13/2014  12:36:00     -152.695     -175.395        3.719      141.744      104.068       56.040    20091.443    10830.176     3140.477        4.407        1.703      232.549       42.269        0.033      347.200       25.995      860.167
08/13/2014  12:37:00      -91.619     -229.643       -8.247      149.465       85.548       48.607    22339.929     7318.456     2362.648        4.660        1.601      247.244       43.550        0.031      347.208       26.007      860.193
08/13/2014  12:38:00      -43.208     -108.221       -0.545       80.388       93.165       53.142     6462.279     8679.641     2824.065        1.577        0.898      116.527       36.726        0.099      347.471       26.464      860.160
08/13/2014  12:39:00      -13.633     -173.463      -17.551      215.578      124.785       70.138    46473.907    15571.228     4919.316        4.876        3.348      173.998       73.941        0.181      347.509       26.527      860.151
08/13/2014  12:40:00      -33.794      -20.857        3.252       92.003       83.084       58.048     8464.483     6902.869     3369.529        1.016        0.937       39.712       57.111        2.068      347.829       27.081      860.138
08/13/2014  12:41:00     -202.696     -168.184      -12.763      162.957      139.875       63.220    26555.132    19564.982     3996.711        5.982        2.506      263.384       69.171        0.069      347.322       26.205      860.086
08/13/2014  12:42:00     -147.686     -231.212        5.364      104.411      138.663       74.653    10901.688    19227.333     5573.045        5.549        1.785      274.354       73.226        0.071      347.512       26.533      860.110
08/13/2014  12:43:00      103.077     -257.464       -1.279      177.167      164.117      107.597    31388.103    26934.493    11577.025        7.339        3.495      277.332       79.359        0.082      347.537       26.575      860.119
08/13/2014  12:44:00     -205.093     -203.689       24.706      155.635      156.466       74.173    24222.195    24481.726     5501.565        6.917        2.710      289.055       81.616        0.080      347.170       25.942      860.080
08/13/2014  12:45:00     -220.529     -338.743        3.489      145.549      180.030       74.094    21184.404    32410.759     5489.850       11.123        2.954      404.202       82.455        0.042      347.044       25.724      860.064
08/13/2014  12:46:00      -67.388     -162.289       14.864      102.350      122.392       60.953    10475.511    14979.842     3715.327        3.013        1.459      175.724       50.443        0.082      347.382       26.309      860.048
08/13/2014  12:47:00     -215.773      -72.315      -15.515      138.026       93.235       54.279    19051.058     8692.677     2946.260        4.135        1.534      227.568       39.680        0.030      347.353       26.258      860.032
08/13/2014  12:48:00     -121.855     -167.474        9.682      145.046      133.237       70.256    21038.484    17752.022     4935.884        4.335        2.186      207.114       57.519        0.077      347.364       26.275      860.044
08/13/2014  12:49:00     -281.913     -206.074        3.750      236.397      207.591       89.725    55883.370    43093.855     8050.600       11.447        5.351      349.202      101.873        0.085      347.269       26.114      859.981
08/13/2014  12:50:00     -216.095     -313.245      -11.920      170.705      253.799       89.392    29140.159    64413.770     7990.840       12.323        5.077      380.552       89.036        0.055      347.371       26.289      860.014
08/13/2014  12:51:00     -217.811     -206.004       25.064      143.262      184.153       85.385    20524.011    33912.160     7290.550        7.610        3.086      299.799       82.595        0.076      347.419       26.372      860.046
08/13/2014  12:52:00      -43.543     -201.778        3.849      118.466      133.849       65.755    14034.098    17915.487     4323.663        3.944        1.814      206.423       53.329        0.067      347.491       26.496      860.050
08/13/2014  12:53:00      -25.741     -255.662        7.925      169.566      159.524       76.031    28752.691    25448.010     5780.730        6.302        2.999      256.955       74.485        0.084      347.500       26.510      860.089
08/13/2014  12:54:00      -11.742     -113.193       20.611      122.377      181.813       82.996    14976.065    33055.826     6888.269        3.414        2.746      113.800       58.911        0.268      347.781       26.997      860.011
08/13/2014  12:55:00     -171.117     -108.198       33.179      135.160      152.446       86.665    18268.228    23239.701     7510.810        4.554        2.451      202.454       58.873        0.085      347.825       27.072      860.017
08/13/2014  12:56:00      -94.540     -174.112       -5.349      116.228      143.286       83.867    13508.870    20530.748     7033.598        4.017        2.054      198.124       81.474        0.169      347.518       26.542      860.067
08/13/2014  12:57:00     -107.209     -313.250      -24.081      238.319      161.065       62.902    56795.866    25941.814     3956.627        9.843        4.335      331.088       28.493        0.007      347.125       25.865      860.053
08/13/2014  12:58:00     -148.558     -176.262       14.996      150.370      138.503       86.212    22611.148    19182.959     7432.506        5.128        2.461      230.516       95.004        0.170      347.404       26.345      860.026
08/13/2014  12:59:00     -146.823     -289.821       -4.694       99.261      163.195       61.605     9852.781    26632.686     3795.117        7.292        2.014      324.890       61.110        0.035      347.195       25.986      860.001
08/13/2014  13:00:00      -88.313     -148.398        0.448      124.110      109.522       72.288    15403.278    11995.055     5225.574        3.122        1.631      172.688       43.979        0.065      347.673       26.811      859.959
08/13/2014  13:01:00     -118.002     -339.115       -9.225      182.568      160.560       94.728    33330.909    25779.619     8973.350        9.853        3.404      359.059       89.464        0.062      347.414       26.361      860.013
08/13/2014  13:02:00     -135.327     -236.792      -12.073      231.509      145.003       89.751    53596.490    21025.780     8055.232        7.859        4.134      272.734       55.968        0.042      347.444       26.413      859.995
08/13/2014  13:03:00     -224.122     -201.932      -11.159      166.184      153.562       79.083    27617.102    23581.426     6254.160        7.428        2.873      301.675       58.458        0.038      347.465       26.450      860.004
08/13/2014  13:04:00     -148.785      -70.727       -8.426      119.800       94.638       58.498    14352.053     8956.422     3422.051        2.697        1.337      164.740       44.510        0.073      347.457       26.438      859.998
08/13/2014  13:05:00     -147.014     -353.240       -1.436      165.388      199.319       59.630    27353.322    39728.196     3555.719       10.850        3.532      382.611       57.506        0.023      347.252       26.082      860.019
08/13/2014  13:06:00     -382.668     -383.183      -24.522      228.899      210.638      105.427    52394.623    44368.184    11114.840       20.085        5.394      541.538      109.959        0.041      347.230       26.044      859.961
08/13/2014  13:07:00     -489.954     -243.185       13.417      289.290      277.264      115.009    83688.801    76875.080    13226.992       23.655        8.690      546.986      139.725        0.065      347.325       26.207      859.900
08/13/2014  13:08:00     -329.075     -279.277       -8.829      213.217      197.448      108.452    45461.315    38985.781    11761.895       14.127        4.810      431.608      114.162        0.070      347.346       26.245      859.908
08/13/2014  13:09:00     -328.659     -223.537      -24.830      187.280      209.910       81.058    35073.743    44062.368     6570.465       12.214        4.285      397.474       88.452        0.050      347.317       26.193      859.919
08/13/2014  13:10:00     -197.450     -130.576       25.691      175.200      150.095       85.000    30694.962    22528.394     7224.946        5.856        3.022      236.721       94.232        0.158      347.657       26.783      859.973
08/13/2014  13:11:00     -431.910     -283.623        1.903      267.744      232.583      124.000    71686.933    54094.736    15375.887       20.405        7.058      516.709      139.141        0.073      347.532       26.565      859.956
08/13/2014  13:12:00     -461.525     -308.846      -11.858      278.918      248.589      146.750    77795.021    61796.310    21535.505       23.480        8.056      555.330      150.046        0.073      347.440       26.409      859.935
08/13/2014  13:13:00     -418.179     -386.537       -2.289      261.303      228.631      132.866    68279.173    52272.013    17653.478       23.122        6.910      569.460      133.683        0.055      347.385       26.312      859.986
08/13/2014  13:14:00     -238.277     -409.153       -3.848      248.916      239.062      102.607    61959.179    57150.784    10528.161       17.689        6.482      473.479      124.808        0.069      347.436       26.400      860.074
08/13/2014  13:15:00     -160.477     -333.151       -3.143      211.129      191.298       95.062    44575.279    36594.742     9036.825       11.346        4.510      369.787       79.223        0.046      347.224       26.034      860.121
08/13/2014  13:16:00     -319.158     -281.376      -21.544      238.225      232.678       90.763    56751.276    54138.969     8237.957       15.029        5.956      425.482       85.244        0.040      347.162       25.928      860.098
08/13/2014  13:17:00     -393.051     -237.739       13.430      267.361      203.965       96.391    71481.750    41601.803     9291.244       16.676        6.119      459.358      129.270        0.079      347.174       25.949      860.075
08/13/2014  13:18:00     -372.111     -334.128        0.291      236.045      182.114       99.782    55717.112    33165.566     9956.351       17.445        4.942      500.108      101.228        0.041      347.133       25.878      860.054
08/13/2014  13:19:00     -287.545     -220.009        7.720      217.261      170.077      101.825    47202.364    28926.265    10368.347       10.880        4.325      362.058      116.655        0.104      347.407       26.350      860.014
08/13/2014  13:20:00     -474.421     -287.874       11.808      267.474      280.333      106.374    71542.519    78586.399    11315.360       23.473        8.072      554.929      141.908        0.065      347.457       26.437      859.962
08/13/2014  13:21:00     -416.100     -301.100      -11.809      287.846      175.127      108.402    82855.098    30669.448    11751.029       19.458        6.264      513.616      126.701        0.061      347.310       26.183      860.051
08/13/2014  13:22:00     -244.885     -269.937      -10.060      146.849      118.114       58.336    21564.537    13950.818     3403.130        8.592        1.946      364.465       46.553        0.016      347.202       25.996      860.058
08/13/2014  13:23:00     -300.068     -111.071       -5.343      194.671      122.178       82.537    37896.967    14927.472     6812.301        8.101        2.982      319.965      107.589        0.113      347.448       26.422      860.028
08/13/2014  13:24:00     -166.801      -69.783       13.121      144.016       93.266       60.900    20740.671     8698.546     3708.826        3.300        1.657      180.810       54.392        0.090      347.656       26.782      860.033
08/13/2014  13:25:00     -258.399     -113.707      -17.966      107.826       92.707       51.507    11626.378     8594.652     2652.998        5.144        1.144      282.311       50.256        0.032      347.590       26.665      860.043
08/13/2014  13:26:00     -267.322     -197.861       -4.949      246.207      161.810       82.520    60617.777    26182.333     6809.607       10.210        4.680      332.580      107.139        0.104      347.704       26.863      860.044
08/13/2014  13:27:00     -551.492     -333.868      -21.110      250.664      219.553      121.181    62832.263    48203.681    14684.825       27.086        6.286      644.679      130.510        0.041      347.299       26.165      860.044
08/13/2014  13:28:00     -560.023     -335.281      -47.332      223.931      228.016      106.473    50145.277    51991.433    11336.517       27.085        5.674      652.717      112.060        0.029      347.317       26.195      860.082
08/13/2014  13:29:00     -628.409     -370.674      -38.608      326.807      316.162      160.851   106803.008    99958.403    25873.089       38.316       11.632      729.587      181.778        0.062      347.274       26.120      860.016
08/13/2014  13:30:00     -331.485     -160.958        8.805      260.933      171.720      105.737    68086.096    29487.868    11180.228       12.229        5.438      368.497      106.255        0.083      347.401       26.341      860.080
08/13/2014  13:31:00     -306.653     -227.424        6.133      244.611      199.774       98.167    59834.456    39909.846     9636.731       12.757        5.469      381.782      106.682        0.078      347.302       26.170      860.113
08/13/2014  13:32:00     -468.332     -261.547       -9.241      246.102      178.658       98.418    60566.021    31918.734     9686.034       19.498        5.109      536.415      115.822        0.047      347.114       25.845      860.071
08/13/2014  13:33:00     -319.919     -229.279        2.681      234.719      227.788      107.421    55092.970    51887.449    11539.324       13.670        5.926      393.595      122.682        0.097      347.269       26.112      860.037
08/13/2014  13:34:00     -561.626     -343.505       -4.757      290.383      228.903      112.513    84322.564    52396.423    12659.190       29.138        7.469      658.346      134.667        0.042      347.184       25.967      859.956
08/13/2014  13:35:00     -534.326     -332.794       -8.511      230.340      181.726      108.338    53056.704    33024.461    11737.106       24.705        4.891      629.489      113.114        0.032      347.408       26.350      860.037
08/13/2014  13:36:00     -538.872     -309.308      -23.738      308.975      251.490      113.821    95465.512    63247.178    12955.140       27.911        8.583      621.333      127.834        0.042      347.208       26.007      860.051
08/13/2014  13:37:00     -379.205     -181.949      -13.256      237.297      157.143       93.472    56309.971    24693.869     8736.940       13.339        4.487      420.597       94.241        0.050      347.403       26.342      860.096
08/13/2014  13:38:00     -741.386     -440.067      -10.164      410.208      349.276      175.697   168270.649   121993.945    30869.356       53.221       16.057      862.156      217.258        0.064      347.103       25.827      859.987
08/13/2014  13:39:00     -464.075     -293.317       -9.439      251.746      201.715      112.256    63376.269    40688.976    12601.499       20.905        5.833      548.999      136.448        0.062      347.125       25.864      860.031
08/13/2014  13:40:00     -381.254     -252.683       -7.789      283.703      199.924      101.408    80487.524    39969.804    10283.487       16.998        6.537      457.388      130.274        0.081      347.390       26.323      860.048
08/13/2014  13:41:00     -315.651     -327.600        2.268      229.549      261.335      111.723    52692.970    68295.750    12482.126       17.019        6.674      454.926      141.580        0.097      347.363       26.276      860.076
08/13/2014  13:42:00     -297.735     -117.336        5.712      199.402      158.697       91.752    39761.288    25184.776     8418.356        8.789        3.668      320.022      100.838        0.099      347.518       26.543      860.062
08/13/2014  13:43:00     -444.945     -357.320       -3.025      278.908      186.793       97.892    77789.864    34891.728     9582.941       22.394        6.113      570.661      117.307        0.042      347.155       25.917      860.030
08/13/2014  13:44:00     -468.732     -329.306        0.897      293.309      254.036      112.673    86030.402    64534.374    12695.195       24.567        8.163      572.846      141.616        0.061      347.278       26.127      859.950
08/13/2014  13:45:00     -548.180     -249.184      -17.825      311.662      262.396      123.219    97133.373    68851.808    15182.928       27.200        9.058      602.158      131.488        0.048      347.201       25.995      859.927
08/13/2014  13:46:00     -281.635     -152.873       12.082      278.129      159.553      103.634    77355.971    25457.019    10739.969       10.817        5.678      320.451      104.514        0.106      347.553       26.602      859.994
08/13/2014  13:47:00     -297.285     -166.743        4.365      163.508      181.621       87.899    26735.008    32986.108     7726.238        9.181        3.372      340.854       74.474        0.048      347.505       26.519      860.065
08/13/2014  13:48:00     -126.246     -308.131       -2.894      148.854      274.955       80.319    22157.414    75600.477     6451.179       10.753        5.210      332.991       60.563        0.033      347.462       26.445      860.065
08/13/2014  13:49:00     -501.412     -297.050      -10.735      293.024      234.934      107.394    85863.081    55194.213    11533.398       24.615        7.630      582.797      110.155        0.036      347.375       26.294      859.923
08/13/2014  13:50:00     -565.811     -334.132      -13.127      348.712      269.592      120.259   121600.266    72679.633    14462.212       32.031       10.437      657.104      162.930        0.061      347.257       26.091      859.969
08/13/2014  13:51:00     -460.081     -278.009        1.737      318.767      194.454      118.168   101612.618    37812.417    13963.789       22.115        7.669      537.553      130.377        0.059      347.248       26.075      860.008
08/13/2014  13:52:00     -607.925     -397.587      -18.256      280.787      251.374      127.076    78841.548    63188.649    16148.354       34.305        7.909      726.394      153.082        0.044      347.073       25.775      859.953
08/13/2014  13:53:00     -694.277     -325.033      -29.453      317.247      265.654      138.887   100645.788    70572.073    19289.530       38.948        9.525      766.595      163.618        0.046      347.205       26.004      859.871
08/13/2014  13:54:00     -587.905     -374.537        0.104      346.733      212.206      129.397   120223.785    45031.584    16743.554       33.392        9.100      697.073      161.213        0.053      347.276       26.126      859.871
08/13/2014  13:55:00     -396.498     -302.924       -8.572      236.835      272.630      111.668    56090.784    74327.203    12469.705       19.594        7.144      498.972      116.003        0.054      347.251       26.081      859.873
08/13/2014  13:56:00     -325.320     -276.375      -11.226      246.612      203.058       97.524    60817.242    41232.584     9510.981       14.693        5.578      426.868       97.348        0.052      347.417       26.366      859.903
08/13/2014  13:57:00     -397.419     -240.632      -10.695      239.159      222.200      100.278    57197.245    49372.906    10055.620       16.627        5.831      464.592      105.391        0.051      347.472       26.464      859.929
08/13/2014  13:58:00     -402.053     -212.414      -12.731      221.082      188.877       91.291    48877.471    35674.540     8334.067       14.989        4.644      454.716       78.566        0.030      347.381       26.307      859.913
08/13/2014  13:59:00     -492.672     -135.978      -21.005      210.095      220.311      109.501    44139.769    48536.803    11990.411       18.314        5.233      511.093      100.587        0.039      347.285       26.139      859.908
08/13/2014  14:00:00     -289.436     -191.949       -8.307      198.700      194.236       72.927    39481.639    37727.487     5318.307       10.159        4.126      347.300       76.666        0.049      347.352       26.256      859.920
08/13/2014  14:01:00     -159.593     -129.930        7.053      183.471      223.139       68.748    33661.468    49790.831     4726.247        6.527        4.409      205.796       99.475        0.234      347.858       27.130      859.963
08/13/2014  14:02:00     -217.834     -218.970       -1.449      167.061      290.028       80.201    27909.226    84115.978     6432.202       10.691        5.923      308.868       77.797        0.063      347.490       26.495      859.923
08/13/2014  14:03:00     -276.150     -116.719      -15.863      183.550      152.542       81.215    33690.658    23269.141     6595.805        7.683        3.178      299.804       76.918        0.066      347.543       26.586      859.968
08/13/2014  14:04:00     -362.851     -232.336      -23.522      222.984      178.786       90.719    49721.954    31964.317     8229.867       13.804        4.496      430.861      108.340        0.063      347.469       26.459      859.988
08/13/2014  14:05:00     -374.066     -138.568       -6.348      246.353      209.040      114.296    60690.006    43697.744    13063.674       13.829        5.873      398.907      118.735        0.089      347.524       26.552      859.906
08/13/2014  14:06:00     -318.894     -122.994        8.912      221.359      212.518      102.664    48999.651    45163.869    10539.838       11.078        5.235      341.791      115.127        0.113      347.666       26.798      859.964
08/13/2014  14:07:00     -511.990     -399.473      -16.036      221.666      224.461      101.251    49135.898    50382.617    10251.861       26.585        5.489      649.394      100.634        0.024      347.260       26.097      859.988
08/13/2014  14:08:00     -221.024     -206.154      -15.550      169.758      101.435       62.607    28817.948    10288.990     3919.611        6.730        2.151      302.244       60.558        0.040      347.480       26.477      860.046
08/13/2014  14:09:00     -241.701     -122.226       20.468      251.635      170.375      105.414    63320.080    29027.524    11112.144        8.860        5.173      270.848      127.653        0.222      347.783       27.001      860.022
08/13/2014  14:10:00     -216.449     -217.937       -0.470      197.348      167.798       92.366    38946.153    28156.047     8531.398        8.498        3.782      307.159       96.086        0.098      347.575       26.641      860.069
08/13/2014  14:11:00      -52.472     -172.279      -20.649      176.272      122.740       91.567    31071.885    15065.200     8384.478        4.368        2.726      180.093       59.861        0.110      347.399       26.338      860.018
08/13/2014  14:12:00     -100.404     -195.600      -27.189      103.602      131.337       54.521    10733.297    17249.490     2972.490        4.001        1.548      219.864       31.064        0.020      347.306       26.178      859.977
08/13/2014  14:13:00     -316.646     -187.292        4.034      158.672      107.746       70.464    25176.936    11609.267     4965.135        8.855        2.088      367.890       68.882        0.035      347.168       25.939      859.977
08/13/2014  14:14:00     -115.109     -159.138       22.891      131.106      106.207       52.560    17188.826    11279.948     2762.504        3.516        1.562      196.405       55.563        0.080      347.286       26.144      859.991
08/13/2014  14:15:00     -254.482     -155.657       -3.579      206.037      115.749       80.176    42451.061    13397.746     6428.191        7.563        3.114      298.312       98.551        0.109      347.716       26.884      860.029
08/13/2014  14:16:00     -329.420     -164.363        2.097      196.145      141.737       88.080    38472.956    20089.384     7758.106       10.092        3.316      368.148       87.856        0.057      347.553       26.603      860.097
08/13/2014  14:17:00     -119.787     -244.934       -1.207      160.147      126.497       69.231    25647.199    16001.369     4792.973        6.038        2.322      272.657       52.707        0.037      347.684       26.828      860.128
08/13/2014  14:18:00     -207.753     -148.332       -2.910      133.668      134.313       74.366    17867.225    18040.006     5530.353        5.330        2.072      255.272       73.070        0.082      347.645       26.761      860.110
08/13/2014  14:19:00     -176.921     -112.706      -16.514      119.466      103.931       58.379    14272.052    10801.607     3408.066        3.637        1.424      209.770       54.028        0.066      347.744       26.932      860.132
08/13/2014  14:20:00      -58.321      -54.447        7.563      116.168      114.895       56.539    13495.003    13200.825     3196.709        1.815        1.495       79.786       58.631        0.540      347.722       26.898      860.096
08/13/2014  14:21:00      -78.245      -60.440       37.612      122.467      120.666       57.472    14998.251    14560.259     3302.990        2.202        1.643       98.870       54.876        0.308      347.955       27.298      860.044
08/13/2014  14:22:00     -202.928      -32.711      -10.736      110.468      139.594       63.020    12203.099    19486.526     3971.550        3.901        1.783      205.548       55.971        0.074      347.822       27.068      860.022
08/13/2014  14:23:00     -269.137     -141.878       -9.417      102.251      135.696       60.916    10455.168    18413.531     3710.699        6.261        1.629      304.244       58.360        0.037      347.716       26.884      860.033
08/13/2014  14:24:00     -334.113     -123.818      -20.704      196.153      122.077       58.404    38475.822    14902.857     3411.056        9.208        2.839      356.318       71.523        0.040      347.823       27.067      860.011
08/13/2014  14:25:00     -170.097     -107.960       17.921      174.545      147.038       89.742    30465.926    21620.229     8053.542        5.051        3.007      201.465       92.667        0.212      347.976       27.333      859.995
08/13/2014  14:26:00     -281.500     -205.084        1.768      180.208      169.495       78.602    32474.892    28728.407     6178.288        9.433        3.369      348.284       88.133        0.064      347.756       26.954      860.050
08/13/2014  14:27:00     -460.643     -262.251      -13.200      292.649      186.778       86.835    85643.686    34885.925     7540.304       20.458        6.403      530.063      112.016        0.045      347.492       26.498      860.059
08/13/2014  14:28:00     -245.622     -219.962        3.863      194.070      133.783       69.660    37663.025    17897.803     4852.544        8.456        3.021      329.717       89.028        0.073      347.549       26.595      860.073
08/13/2014  14:29:00     -171.295     -243.137       13.591      170.464      256.952       75.111    29058.079    66024.434     5641.707        9.466        5.036      297.418       73.153        0.060      347.608       26.698      860.048
08/13/2014  14:30:00     -352.186      -66.120        2.506      180.834      132.907       73.195    32700.938    17664.340     5357.530        9.206        2.786      358.339       91.639        0.065      347.845       27.106      860.080
08/13/2014  14:31:00     -406.795     -283.707        6.144      233.143      190.053      109.562    54355.441    36120.212    12003.805       17.422        5.124      495.956      108.559        0.048      347.467       26.454      860.095
08/13/2014  14:32:00     -133.538     -209.649       16.585      184.132      172.174       80.850    33904.746    29643.963     6536.755        6.606        3.504      248.566       74.672        0.090      347.769       26.977      860.135
08/13/2014  14:33:00     -231.211     -410.923        1.409      192.603      166.384       87.707    37095.741    27683.610     7692.604       14.738        3.624      471.504       86.210        0.033      347.449       26.423      860.126
08/13/2014  14:34:00     -129.590     -268.231        7.487      195.419      201.486       97.082    38188.642    40596.536     9424.930        8.849        4.411      297.895      112.702        0.143      347.659       26.784      860.127
08/13/2014  14:35:00     -226.506     -277.601      -27.965      204.456      206.529       92.692    41802.191    42654.187     8591.745       11.108        4.652      358.284       95.912        0.072      347.652       26.773      860.141
08/13/2014  14:36:00     -275.706     -170.502       -0.038      232.787      160.596       92.595    54189.773    25790.992     8573.829        9.680        4.428      324.168      114.288        0.124      347.679       26.821      860.084
08/13/2014  14:37:00      -59.431      -91.606       19.739      103.540       95.037       49.718    10720.515     9032.074     2471.908        1.726        1.111      109.196       41.860        0.147      348.069       27.494      860.058
08/13/2014  14:38:00      -57.020     -115.237        5.137      136.279      116.911       72.141    18571.841    13668.276     5204.382        2.699        1.872      128.572       65.842        0.262      347.851       27.118      860.085
08/13/2014  14:39:00       16.808     -146.741       -5.640      117.477      172.291       80.901    13800.778    29684.141     6544.929        3.593        2.501      147.701       68.045        0.212      347.797       27.026      860.035
08/13/2014  14:40:00     -194.240     -252.240       -5.048      241.325      242.969       99.746    58237.963    59033.712     9949.364       11.428        6.361      318.362       60.656        0.036      347.431       26.391      860.068
08/13/2014  14:41:00     -218.031     -275.740       -3.840      181.984      186.366       83.639    33118.105    34732.398     6995.516        9.920        3.742      351.526       77.396        0.048      347.479       26.475      860.015
08/13/2014  14:42:00     -342.373       23.638       10.213      224.273      225.661      101.851    50298.410    50922.932    10373.723       11.472        5.580      343.188      114.434        0.111      347.657       26.782      859.990
08/13/2014  14:43:00     -400.380      -79.242        4.569      272.540      191.471      106.530    74278.272    36661.282    11348.629       14.442        6.114      408.146      124.159        0.093      347.748       26.939      859.960
08/13/2014  14:44:00     -627.856     -131.258      -40.251      260.779      219.771      132.237    68005.515    48299.377    17486.690       27.339        6.690      641.429      130.375        0.041      347.219       26.027      859.955
08/13/2014  14:45:00     -303.224     -203.384       10.247      192.004      156.445       82.465    36865.543    24474.918     6800.463       10.076        3.407      365.116       86.291        0.056      347.172       25.946      859.982
08/13/2014  14:46:00     -172.330     -272.792        9.087      145.986      200.183       71.816    21311.996    40073.160     5157.469        8.536        3.327      322.666       82.195        0.065      347.339       26.233      860.141
08/13/2014  14:47:00     -187.349     -295.031       -2.016      225.743      183.344      115.333    50959.791    33614.933    13301.636       10.999        4.894      349.490       95.699        0.075      347.268       26.111      860.215
08/13/2014  14:48:00     -175.343     -302.362       -6.931      180.658      223.287       94.594    32637.193    49856.986     8947.943       10.681        4.572      349.525       89.482        0.066      347.212       26.015      860.178
08/13/2014  14:49:00     -295.553     -296.445        8.263      205.797      212.616      106.245    42352.337    45205.409    11287.947       13.705        4.942      418.606      105.612        0.064      347.136       25.884      860.071
08/13/2014  14:50:00      -96.180     -164.102      -18.864      235.167      160.906       98.078    55303.511    25890.586     9619.261        6.366        4.541      190.211       77.994        0.168      347.440       26.408      860.018
08/13/2014  14:51:00      -42.367     -283.331      -18.874      255.053      210.071      135.380    65051.945    44129.638    18327.861       10.494        6.375      286.481      115.061        0.161      347.501       26.513      860.047
08/13/2014  14:52:00     -187.022     -154.962       -2.896      144.228      123.834       65.720    20801.716    15334.822     4319.135        4.972        2.023      242.879       54.819        0.051      347.564       26.620      860.098
08/13/2014  14:53:00     -157.325     -387.761       -8.001      157.444      162.321       92.277    24788.690    26348.049     8514.978       11.740        2.983      418.462       79.357        0.036      347.194       25.983      860.129
08/13/2014  14:54:00     -170.781     -324.257      -10.413      211.938      246.210       82.667    44917.730    60619.566     6833.820       12.337        5.619      366.482       93.525        0.065      347.344       26.243      860.088
08/13/2014  14:55:00     -187.948     -363.525      -15.226      177.809      167.251       70.073    31616.056    27973.005     4910.191       11.609        3.225      409.237       46.653        0.013      347.329       26.217      860.041
08/13/2014  14:56:00     -128.647     -220.064      -24.037      149.519      169.620       76.433    22355.862    28771.084     5842.061        6.125        2.848      254.909       85.001        0.111      347.689       26.839      860.014
08/13/2014  14:57:00     -136.886     -143.021        8.219      139.461      128.459       86.050    19449.507    16501.712     7404.536        4.130        2.168      197.972       75.614        0.146      347.748       26.939      860.034
08/13/2014  14:58:00     -407.501     -254.681      -14.625      264.299      174.041       98.034    69853.830    30290.161     9610.619       17.042        5.488      480.540      121.909        0.064      347.254       26.086      860.079
08/13/2014  14:59:00     -403.817     -289.291      -13.394      273.144      206.016       83.345    74607.415    42442.446     6946.337       18.544        6.200      496.747       92.035        0.034      346.839       25.372      860.034
08/13/2014  15:00:00     -261.528     -146.095        4.207      132.742       98.673       51.545    17620.489     9736.305     2656.870        5.988        1.501      299.567       58.513        0.038      347.011       25.668      860.014
08/13/2014  15:01:00     -188.957     -212.008       13.581      178.075      167.049       88.545    31710.628    27905.322     7840.153        7.413        3.373      283.993       82.411        0.084      347.362       26.272      860.025
08/13/2014  15:02:00     -363.891     -218.931      -13.992      204.724      171.753       92.729    41911.994    29498.925     8598.724       13.026        4.000      424.673       91.899        0.047      347.284       26.137      860.020
08/13/2014  15:03:00     -185.086     -204.081       27.963      226.797      165.608      100.593    51436.973    27425.868    10119.025        8.282        4.449      275.510      111.832        0.165      347.458       26.440      859.972
08/13/2014  15:04:00     -219.133     -113.943        5.179      211.098      138.426       71.971    44562.497    19161.849     5179.892        6.495        3.445      246.987       82.628        0.112      347.470       26.459      859.939
08/13/2014  15:05:00     -298.968     -197.868       21.606      245.538      211.296       94.354    60289.070    44646.062     8902.754       12.140        5.692      358.516      116.380        0.105      347.517       26.541      859.918
08/13/2014  15:06:00     -258.362     -197.080        8.897      218.721      147.196       83.263    47838.923    21666.586     6932.702        9.104        3.822      324.949       83.295        0.066      347.758       26.956      860.014
08/13/2014  15:07:00     -146.635     -318.761       -5.766      152.187      141.596       74.667    23160.964    20049.549     5575.154        8.596        2.439      350.871       61.219        0.030      347.601       26.685      860.070
08/13/2014  15:08:00     -160.419     -249.374      -11.761      107.336       92.604       50.738    11521.108     8575.465     2574.360        5.536        1.134      296.516       35.004        0.014      347.386       26.312      860.004
08/13/2014  15:09:00      -42.247     -162.597       -8.519      133.967      143.553       67.560    17947.218    20607.370     4564.290        3.570        2.156      167.996       70.206        0.175      347.644       26.760      859.950
08/13/2014  15:10:00     -252.824     -158.263       -8.211      189.424      102.376       71.210    35881.560    10480.927     5070.825        7.022        2.572      298.274       76.794        0.066      347.657       26.782      859.916
08/13/2014  15:11:00     -448.455      -62.412      -14.146      175.476      171.467       79.215    30791.920    29400.883     6275.027       13.582        3.323      452.777       62.551        0.019      347.413       26.361      859.900
08/13/2014  15:12:00     -550.370     -193.910      -31.205      322.131      215.924      120.063   103768.130    46623.122    14415.099       25.311        8.240      583.531      141.789        0.059      347.337       26.232      859.895
08/13/2014  15:13:00     -622.480     -247.194      -31.529      334.346      250.992      107.520   111787.102    62996.860    11560.546       31.792        9.317      669.766      126.711        0.036      347.143       25.894      859.876
08/13/2014  15:14:00     -363.823     -131.918       -5.993      233.427      143.709       83.011    54487.949    20652.141     6890.889       11.590        4.102      387.000      106.226        0.075      347.143       25.895      859.895
08/13/2014  15:15:00     -161.711     -225.115       19.123      160.321      148.906       81.138    25702.753    22172.992     6583.408        6.582        2.723      277.177       78.138        0.079      347.131       25.876      859.812
08/13/2014  15:16:00     -217.818     -192.358       17.568      155.875      183.278       96.733    24296.878    33590.762     9357.266        7.599        3.362      290.597       96.521        0.110      347.433       26.394      859.839
08/13/2014  15:17:00     -365.045     -216.864       -2.028      198.833      180.327       94.898    39534.600    32517.901     9005.565       13.066        4.053      424.603      106.343        0.063      347.237       26.057      859.852
08/13/2014  15:18:00     -404.522     -183.744      -40.761      218.078      151.457       99.273    47558.220    22939.285     9855.178       13.969        4.018      444.297      107.695        0.059      347.180       25.960      859.814
08/13/2014  15:19:00     -405.300       -9.836      -26.041      206.960      144.544       80.390    42832.325    20892.873     6462.515       11.760        3.509      405.420       76.751        0.036      347.176       25.953      859.799
08/13/2014  15:20:00     -305.021     -160.573       12.928      219.882      176.349       92.754    48348.186    31099.016     8603.331       10.350        4.403      344.705      107.713        0.098      347.410       26.356      859.776
08/13/2014  15:21:00     -366.847     -197.484        6.458      279.821      267.907      133.216    78299.691    71774.302    17746.373       17.069        8.391      416.625      153.249        0.135      347.375       26.296      859.770
08/13/2014  15:22:00     -493.383     -368.034      -16.350      273.453      200.765      128.573    74776.416    40306.654    16531.058       25.535        6.581      615.529      149.447        0.059      347.122       25.859      859.769
08/13/2014  15:23:00     -384.093      -78.079       -5.470      228.594      233.244       97.894    52254.993    54402.840     9583.183       13.492        5.812      391.949      112.296        0.082      347.177       25.953      859.749
08/13/2014  15:24:00     -499.769     -324.901      -15.502      270.577      236.171      112.475    73211.932    55776.635    12650.671       24.858        7.082      596.096      132.491        0.049      347.063       25.758      859.767
08/13/2014  15:25:00     -273.420     -110.654       -8.364      194.294      144.333       76.584    37750.001    20832.020     5865.040        7.575        3.222      294.962       79.023        0.072      347.252       26.083      859.752
08/13/2014  15:26:00     -367.492     -118.837        7.760      186.124      141.481       96.153    34641.979    20016.913     9245.420       10.656        3.195      386.229       93.700        0.059      347.395       26.328      859.743
08/13/2014  15:27:00     -385.146      -23.464       -5.153      272.366      169.149       94.340    74183.223    28611.345     8900.104       13.028        5.585      385.860      126.133        0.107      347.501       26.513      859.763
08/13/2014  15:28:00     -629.390     -134.908      -21.864      276.138      190.430      116.748    76252.209    36263.718    13630.168       27.045        6.307      643.686      131.139        0.042      347.228       26.041      859.738
08/13/2014  15:29:00     -398.967     -282.204        6.998      313.049      235.329      137.661    97999.664    55379.736    18950.544       20.556        8.616      488.685      168.907        0.119      347.156       25.916      859.775
08/13/2014  15:30:00     -672.824     -213.122      -53.029      276.719      223.706      105.079    76573.612    50044.592    11041.620       31.927        6.883      705.772      120.458        0.029      346.999       25.649      859.761
08/13/2014  15:31:00     -274.883     -294.767       21.154      257.112      254.177      111.491    66106.353    64605.843    12430.251       15.299        7.157      403.049      121.035        0.090      347.239       26.063      859.775
08/13/2014  15:32:00     -355.155     -219.229       -0.232      200.314      157.883      108.187    40125.606    24927.060    11704.396       12.546        3.838      417.369       91.520        0.048      347.174       25.949      859.820
08/13/2014  15:33:00     -443.721     -267.676      -19.430      307.693      195.262      101.134    94674.973    38127.133    10228.024       20.595        7.152      518.208      120.995        0.055      346.698       25.128      859.822
08/13/2014  15:34:00     -208.962     -241.034       13.694      165.357      160.305       74.394    27342.991    25697.623     5534.419        8.025        2.929      319.002       66.872        0.044      346.885       25.452      859.773
08/13/2014  15:35:00     -294.704     -293.029        6.494      269.615      201.591      123.316    72692.097    40638.785    15206.899       15.062        6.427      415.592      124.948        0.090      347.045       25.727      859.649
08/13/2014  15:36:00     -453.695     -173.405       13.343      264.827      289.043      113.690    70133.348    83545.689    12925.472       20.131        8.330      485.704      124.741        0.066      347.395       26.328      859.688
08/13/2014  15:37:00     -610.986     -252.106      -22.480      314.202      280.894      125.284    98722.639    78901.389    15696.188       31.530        9.666      660.955      132.864        0.040      347.153       25.913      859.737
08/13/2014  15:38:00     -354.632     -288.508        4.021      291.715      210.943      144.920    85097.847    44496.789    21001.737       17.978        7.530      457.166      153.886        0.113      347.134       25.879      859.688
08/13/2014  15:39:00     -502.690     -238.717       -9.669      269.952      188.247      102.995    72874.109    35436.858    10608.005       21.432        5.946      556.491      107.024        0.037      347.180       25.959      859.687
08/13/2014  15:40:00     -432.478     -242.785       -9.048      353.704      240.222      129.182   125106.781    57706.811    16687.940       22.274        9.975      495.965      165.967        0.112      347.187       25.971      859.661
08/13/2014  15:41:00     -352.713     -158.179       -5.930      235.192      165.696       88.529    55315.512    27455.314     7837.470       12.002        4.530      386.558      107.481        0.077      347.262       26.102      859.700
08/13/2014  15:42:00     -462.032     -173.805       -8.887      273.657      203.769      112.722    74888.408    41521.961    12706.144       18.641        6.456      493.641      120.495        0.060      347.126       25.866      859.671
08/13/2014  15:43:00     -600.226     -238.796      -37.961      281.641      208.427      106.048    79321.560    43441.779    11246.206       27.635        6.700      645.983      128.692        0.040      347.025       25.692      859.685
08/13/2014  15:44:00     -483.871     -131.136      -14.855      307.505      192.568       88.589    94559.201    37082.598     7848.043       19.549        6.974      501.326      114.440        0.052      347.116       25.849      859.722
08/13/2014  15:45:00     -578.710     -259.842      -39.941      273.776      273.762      109.829    74953.205    74945.680    12062.437       28.296        8.098      634.368      125.474        0.039      346.978       25.610      859.777
08/13/2014  15:46:00     -440.265     -141.736       23.312      287.286      190.933      100.577    82533.329    36455.253    10115.736       17.176        6.455      462.517      125.597        0.074      347.035       25.709      859.751
08/13/2014  15:47:00     -410.709     -120.743      -15.756      246.125      217.073      103.667    60577.667    47120.875    10746.819       15.095        5.922      428.089      126.956        0.088      347.032       25.704      859.751
08/13/2014  15:48:00     -314.862      -89.843       20.027      201.778      175.970       95.748    40714.380    30965.525     9167.639        9.421        4.042      327.429       96.283        0.086      347.308       26.179      859.731
08/13/2014  15:49:00     -467.773      -97.779        1.247      275.104      285.536      117.429    75682.194    81530.621    13789.553       19.965        8.550      477.883      120.448        0.064      347.164       25.931      859.746
08/13/2014  15:50:00     -540.121     -166.125       -1.006      287.699      252.236      122.543    82770.950    63622.858    15016.781       24.034        8.071      565.091      146.819        0.068      346.991       25.634      859.765
08/13/2014  15:51:00     -517.866     -348.100      -27.190      265.250      219.311      128.679    70357.349    48097.433    16558.408       26.253        6.751      623.986      138.594        0.049      346.823       25.345      859.824
08/13/2014  15:52:00     -522.433     -272.922       -3.139      276.460      240.047      105.487    76430.155    57622.348    11127.552       24.628        7.259      589.426      129.321        0.048      346.786       25.281      859.836
08/13/2014  15:53:00     -425.787      -69.254      -26.181      312.707      138.254       86.848    97785.465    19114.150     7542.631       15.558        6.222      431.383      124.442        0.083      346.986       25.625      859.834
08/13/2014  15:54:00     -333.271     -188.262        8.181      245.613      164.629       88.310    60325.595    27102.682     7798.739       12.088        4.761      382.769      101.691        0.071      347.109       25.837      859.787
08/13/2014  15:55:00     -378.090     -105.756       -8.352      250.065      206.420       93.263    62532.747    42609.141     8697.932       13.400        5.692      392.602      110.059        0.079      347.206       26.005      859.799
08/13/2014  15:56:00     -539.997     -179.183       -0.729      288.645      311.384      133.743    83315.981    96960.159    17887.081       26.089        9.908      568.949      148.588        0.068      347.063       25.758      859.827
08/13/2014  15:57:00     -503.550     -323.537       -4.037      222.407      238.635      122.671    49465.083    56946.679    15048.130       23.983        6.073      598.531      116.481        0.038      346.747       25.213      859.842
08/13/2014  15:58:00     -264.184      -63.692       11.439      216.226      215.415       98.541    46753.585    46403.557     9710.398        8.840        5.143      271.753      117.601        0.187      347.131       25.876      859.843
08/13/2014  15:59:00     -144.384     -136.505       31.157      164.610      159.563       88.966    27096.308    25460.338     7915.001        5.045        3.024      198.697      103.183        0.270      347.247       26.076      859.868
08/13/2014  16:00:00     -471.335     -316.671       -1.730      290.505      245.369      115.866    84393.387    60205.905    13424.871       24.020        7.901      567.836      125.269        0.049      347.004       25.656      859.923
08/13/2014  16:01:00     -492.228     -270.591       10.568      262.614      217.881      124.397    68965.947    47471.982    15474.520       22.374        6.596      561.701      144.273        0.066      346.867       25.420      859.919
08/13/2014  16:02:00     -447.740     -291.003        2.457      241.341      243.651      110.950    58245.389    59365.570    12309.825       20.751        6.496      533.998      134.654        0.064      346.730       25.184      859.900
08/13/2014  16:03:00     -420.416     -353.105      -17.910      207.806      187.982       94.600    43183.316    35337.369     8949.070       19.459        4.373      549.028       98.219        0.032      346.806       25.314      859.884
08/13/2014  16:04:00     -265.162     -204.136        4.750      251.994      162.694       84.114    63501.153    26469.324     7075.242       10.451        4.852      334.638      102.009        0.093      347.044       25.725      859.892
08/13/2014  16:05:00     -293.615      -43.807       19.461      231.318      130.143       89.696    53507.900    16937.160     8045.345        8.348        3.925      296.865      106.335        0.128      347.156       25.918      859.880
08/13/2014  16:06:00     -372.778      -76.847       -1.639      226.263      167.778       91.223    51195.107    28149.593     8321.680       11.625        4.383      380.617      112.533        0.087      347.194       25.983      859.867
08/13/2014  16:07:00     -555.197     -314.459      -17.664      301.570      213.918      125.207    90944.431    45760.978    15676.908       27.988        7.619      638.066      130.756        0.042      346.770       25.254      859.848
08/13/2014  16:08:00     -612.908     -300.604      -33.057      352.382      293.855      136.704   124172.911    86350.581    18687.887       34.812       11.461      682.656      167.502        0.060      346.729       25.182      859.827
08/13/2014  16:09:00     -482.055     -141.108        5.986      324.595      255.912      122.664   105362.037    65490.895    15046.486       21.908        9.295      502.284      146.339        0.085      346.929       25.526      859.792
08/13/2014  16:10:00     -333.744     -205.791      -16.546      270.628      174.985      100.111    73239.363    30619.796    10022.203       13.392        5.694      392.091      114.826        0.086      347.029       25.699      859.858
08/13/2014  16:11:00     -344.875     -240.138       -2.520      229.965      247.279      124.188    52883.761    61146.810    15422.680       15.301        6.473      420.244      125.923        0.090      347.046       25.727      859.843
08/13/2014  16:12:00     -322.952     -132.597        7.791      222.554      176.315       98.549    49530.432    31086.832     9711.910       10.612        4.516      349.113      112.187        0.103      347.065       25.761      859.893
08/13/2014  16:13:00     -332.370      -93.426       17.043      262.892      183.634      109.057    69112.408    33721.503    11893.413       11.709        5.736      345.251      130.875        0.144      347.101       25.823      859.891
08/13/2014  16:14:00     -484.107     -301.866       17.512      334.265      270.156      147.862   111733.287    72984.156    21863.285       26.614       10.329      570.511      183.550        0.104      346.750       25.220      859.874
08/13/2014  16:15:00     -209.965     -154.093       21.676      271.892      237.610      130.019    73925.465    56458.308    16904.890       10.776        7.364      260.442      153.645        0.348      346.792       25.292      859.789
08/13/2014  16:16:00     -681.012     -208.333       -5.291      342.000      239.381      116.740   116963.968    57303.352    13628.290       34.751        9.395      712.166      147.509        0.043      346.832       25.359      859.803
08/13/2014  16:17:00     -538.961     -181.213      -30.239      245.863      233.959      115.583    60448.675    54736.686    13359.515       22.636        6.427      568.610      122.109        0.046      346.799       25.304      859.817
08/13/2014  16:18:00     -655.764     -361.019      -25.904      332.758      272.013      138.883   110727.586    73990.952    19288.453       38.248       10.200      748.573      171.941        0.053      346.673       25.087      859.804
08/13/2014  16:19:00     -789.405     -347.356      -43.691      327.894      299.976      142.834   107514.240    89985.717    20401.547       48.177       10.895      862.448      176.664        0.042      346.537       24.852      859.822
08/13/2014  16:20:00     -526.620     -279.205        0.569      317.175      244.114      142.483   100600.233    59591.497    20301.264       26.785        9.025      596.057      166.038        0.078      346.653       25.053      859.846
08/13/2014  16:21:00     -530.529     -366.634      -19.542      349.297      251.176      135.778   122008.508    63089.277    18435.725       30.986       10.177      644.889      139.445        0.047      346.731       25.186      859.812
08/13/2014  16:22:00     -604.870     -254.421      -45.929      342.131      257.715      118.073   117053.501    66416.780    13941.318       31.502        9.871      656.199      145.953        0.049      346.651       25.047      859.835
08/13/2014  16:23:00     -422.086     -231.311        4.592      289.485      221.993      122.989    83801.661    49280.860    15126.256       18.992        7.410      481.312      106.402        0.049      346.718       25.163      859.892
08/13/2014  16:24:00     -589.917     -123.861      -18.240      241.003      238.858      110.646    58082.406    57053.308    12242.568       24.550        6.369      602.779      108.206        0.032      346.713       25.154      859.931
08/13/2014  16:25:00     -482.792     -383.654       18.476      295.196      217.040      135.515    87140.487    47106.265    18364.389       26.659        7.631      616.668      168.231        0.074      346.395       24.607      859.928
08/13/2014  16:26:00     -446.288     -265.973       -7.426      234.204      168.096       94.936    54851.540    28256.229     9012.761       18.103        4.606      519.533      119.589        0.053      346.470       24.738      859.900
08/13/2014  16:27:00     -415.324     -248.143       -6.690      180.918      138.656       89.120    32731.335    19225.553     7942.319       14.699        2.995      483.806       83.431        0.030      346.586       24.938      859.886
08/13/2014  16:28:00     -340.068     -153.636       -3.792      220.517      150.741       82.867    48627.654    22722.887     6866.914       10.873        3.911      373.163       89.731        0.058      346.820       25.339      859.894
08/13/2014  16:29:00     -256.596      -69.288        6.029      166.694      148.282       73.739    27786.735    21987.492     5437.510        6.293        2.761      265.786       71.427        0.072      347.126       25.866      859.882
08/13/2014  16:30:00     -591.414     -101.995       -9.494      260.117      170.180      102.456    67660.644    28961.330    10497.249       23.367        5.356      600.144      116.660        0.038      346.904       25.485      859.888
08/13/2014  16:31:00     -306.072      -79.183        7.408      199.907      157.015       80.749    39962.976    24653.566     6520.365        8.556        3.557      316.149       86.415        0.075      346.948       25.559      859.936
08/13/2014  16:32:00     -232.386     -226.690       21.527      202.900      170.773      118.252    41168.388    29163.375    13983.437        9.507        4.216      324.641      117.410        0.131      346.928       25.524      859.933
08/13/2014  16:33:00     -415.096     -355.154      -14.784      208.562      196.352      104.105    43498.286    38554.220    10837.863       19.576        4.645      546.295      104.723        0.037      346.808       25.318      859.920
08/13/2014  16:34:00     -311.111     -122.085       18.814      212.956      177.469      100.068    45350.399    31495.153    10013.585        9.944        4.343      334.208      101.171        0.092      346.900       25.477      859.946
08/13/2014  16:35:00     -528.234     -222.022        6.128      308.353      209.775      108.224    95081.838    44005.411    11712.527       23.955        7.540      572.997      133.220        0.054      346.822       25.342      859.935
08/13/2014  16:36:00     -595.907     -158.660      -29.756      270.389      242.755      113.397    73110.113    58929.825    12858.913       26.300        7.245      616.666      122.458        0.039      346.692       25.118      859.871
08/13/2014  16:37:00     -477.976      -96.704       10.091      303.781      183.701      113.733    92282.653    33745.999    12935.180       18.841        6.948      487.660      131.977        0.073      346.852       25.395      859.927
08/13/2014  16:38:00     -487.184     -355.423       -1.390      313.307      206.007      133.206    98161.274    42438.998    17743.885       26.098        7.917      603.053      165.891        0.076      346.708       25.146      859.970
08/13/2014  16:39:00     -419.804     -254.243        6.972      254.576      166.218      109.523    64809.166    27628.378    11995.369       17.266        5.222      490.790      120.838        0.061      346.588       24.939      859.983
08/13/2014  16:40:00     -480.121     -320.362        8.162      297.420      185.003      116.961    88458.678    34226.202    13679.805       23.476        6.818      577.189      124.810        0.047      346.528       24.836      859.923
08/13/2014  16:41:00     -375.409     -224.580       -2.061      244.196      136.320       77.255    59631.888    18583.243     5968.357       13.776        4.209      437.456       88.939        0.041      346.672       25.084      859.899
08/13/2014  16:42:00     -200.522     -176.632      -16.595      127.910      191.507       74.684    16360.953    36674.909     5577.634        6.514        2.931      267.223       60.746        0.052      346.902       25.479      859.881
08/13/2014  16:43:00     -191.753     -134.318        1.627      169.352      128.915       84.660    28680.157    16619.113     7167.243        5.363        2.623      234.117       95.028        0.165      346.992       25.634      859.911
08/13/2014  16:44:00     -500.352     -356.204        3.425      323.939      275.831      140.285   104936.471    76082.593    19679.828       28.893       10.035      614.194      167.292        0.074      346.716       25.161      859.868
08/13/2014  16:45:00     -491.319     -260.294       -9.502      247.046      245.172      130.785    61031.850    60109.068    17104.800       22.371        6.912      556.010      149.044        0.072      346.798       25.302      859.930
08/13/2014  16:46:00     -255.761     -181.690        9.132      196.421      174.337       81.154    38581.341    30393.469     6585.932        8.702        3.778      313.728       89.206        0.081      346.816       25.333      860.001
08/13/2014  16:47:00     -270.756     -107.864        1.544      186.686      135.256       69.581    34851.478    18294.207     4841.456        7.146        2.899      291.451       71.659        0.060      346.872       25.429      859.967
08/13/2014  16:48:00     -193.474     -202.178       29.916      168.157      277.337       82.592    28276.756    76915.952     6821.475        9.559        5.601      279.836       72.087        0.066      346.794       25.298      859.940
08/13/2014  16:49:00     -562.251     -222.776      -29.014      336.732      210.125      103.557   113388.139    44152.487    10724.144       26.740        8.413      604.777      131.733        0.047      346.609       24.976      859.908
08/13/2014  16:50:00     -639.347     -255.318      -27.029      228.039      223.752       96.931    52001.893    50065.035     9395.596       29.305        5.573      688.442       98.466        0.020      346.476       24.748      859.888
08/13/2014  16:51:00     -291.831     -176.561       -8.984      200.777      173.480       81.094    40311.505    30095.286     6576.261        9.669        3.849      341.085       91.632        0.072      346.676       25.090      859.891
08/13/2014  16:52:00     -396.773     -266.516      -19.649      235.909      194.705      105.437    55653.092    37910.066    11116.961       16.674        5.234      477.974      117.540        0.060      346.687       25.110      859.890
08/13/2014  16:53:00     -364.872     -245.567        4.585      208.296      234.339       92.092    43387.362    54914.805     8481.019       15.010        5.339      439.812       84.264        0.037      346.560       24.891      859.837
08/13/2014  16:54:00     -443.539     -333.892       -9.027      321.468      259.930      138.434   103341.620    67563.660    19163.905       24.914        9.503      555.167      175.808        0.100      346.622       25.000      859.825
08/13/2014  16:55:00     -708.893     -348.601      -26.971      306.746      218.110      112.271    94093.020    47571.992    12604.678       38.949        7.713      789.970      122.321        0.024      346.497       24.784      859.848
08/13/2014  16:56:00     -540.597     -238.677      -24.097      286.642      199.771      109.468    82163.478    39908.447    11983.186       24.190        6.703      590.942      125.748        0.045      346.470       24.738      859.890
08/13/2014  16:57:00     -326.810     -149.906        2.798      194.582      149.967       82.703    37862.003    22490.072     6839.728        9.822        3.360      359.550      101.211        0.079      346.537       24.852      859.902
08/13/2014  16:58:00     -356.903     -196.843       13.182      246.640      195.759      121.538    60831.123    38321.720    14771.368       14.009        5.696      407.587      132.237        0.105      346.571       24.911      859.843
08/13/2014  16:59:00     -545.923     -236.836        2.404      269.110      215.296      112.752    72420.401    46352.487    12713.094       24.278        6.574      595.082      109.933        0.034      346.501       24.790      859.779
08/13/2014  17:00:00     -657.679     -284.440      -19.277      299.670      219.827      111.864    89802.186    48324.012    12513.613       33.220        7.532      716.553      131.787        0.034      346.558       24.887      859.794
08/13/2014  17:01:00     -407.739     -264.733        2.312      300.000      231.295      120.812    89999.876    53497.403    14595.481       19.718        7.905      486.143      150.628        0.096      346.582       24.930      859.756
08/13/2014  17:02:00     -433.702     -178.986       -7.147      246.078      194.856      108.825    60554.556    37968.838    11842.818       16.525        5.518      469.183      113.416        0.058      346.692       25.119      859.785
08/13/2014  17:03:00     -466.750     -262.038       -5.247      296.714      268.903      128.834    88039.037    72308.803    16598.132       23.171        8.847      535.275      152.154        0.081      346.570       24.909      859.807
08/13/2014  17:04:00     -582.149     -257.099      -28.156      307.996      286.128      124.213    94861.304    81869.479    15428.849       29.894        9.608      636.394      125.107        0.039      346.460       24.720      859.806
08/13/2014  17:05:00     -719.193     -244.664      -41.576      237.890      262.872      106.476    56591.726    69101.721    11337.097       35.790        6.852      759.670       96.268        0.016      346.440       24.685      859.812
08/13/2014  17:06:00     -625.293      -98.153      -31.752      258.000      257.920      113.134    66563.810    66522.876    12799.339       27.373        7.294      632.950      122.560        0.037      346.477       24.749      859.845
08/13/2014  17:07:00     -186.683     -125.869        1.447      165.648      202.151       81.360    27439.189    40864.871     6619.464        6.279        3.746      225.152       92.457        0.169      346.594       24.950      859.891
08/13/2014  17:08:00     -334.402     -361.369       -2.234      233.088      205.752       95.141    54330.222    42333.896     9051.855       17.405        5.286      492.354      103.100        0.044      346.559       24.889      859.890
08/13/2014  17:09:00     -371.252     -149.818      -19.644      222.321      242.208       92.431    49426.817    58664.785     8543.543       13.862        5.832      400.342      111.573        0.078      346.589       24.941      859.891
08/13/2014  17:10:00     -273.740      -78.957        7.465      242.866      148.866       83.516    58983.871    22161.055     6974.990        8.465        4.406      284.900      104.134        0.134      346.829       25.355      859.909
08/13/2014  17:11:00     -226.012     -138.557       -3.791      130.581      176.771       74.450    17051.276    31248.043     5542.780        6.206        2.692      265.103       56.398        0.045      346.818       25.335      859.898
08/13/2014  17:12:00     -344.291      -48.968      -10.933      188.836      147.649       78.023    35658.849    21800.336     6087.648        9.229        3.177      347.756       90.243        0.067      346.717       25.162      859.877
08/13/2014  17:13:00     -233.905     -111.217        3.382      184.401      131.695       77.041    34003.562    17343.689     5935.303        6.218        2.864      259.000       82.497        0.101      346.864       25.416      859.913
08/13/2014  17:14:00     -468.489     -236.868      -13.843      226.418      184.404       98.129    51265.015    34004.944     9629.372       18.532        4.745      524.965      113.291        0.047      346.573       24.914      859.927
08/13/2014  17:15:00     -164.028     -240.284        7.754      218.965      150.919       78.147    47945.783    22776.422     6106.964        8.075        3.841      290.932       96.150        0.109      346.713       25.155      859.908
08/13/2014  17:16:00     -283.306     -257.929       -3.984      216.010      267.019       84.165    46660.130    71298.904     7083.795       13.590        6.252      383.131       97.028        0.064      346.604       24.966      859.914
08/13/2014  17:17:00     -580.378     -224.593      -15.683      306.710      209.958      102.520    94071.115    44082.494    10510.436       26.807        7.433      622.318      128.739        0.043      346.442       24.690      859.837
08/13/2014  17:18:00     -564.055     -204.605      -22.120      247.231      181.796      109.214    61123.114    33049.644    11927.663       23.328        5.305      600.018      121.958        0.041      346.396       24.610      859.866
08/13/2014  17:19:00     -384.840     -163.828       -3.622      203.876      186.936       88.949    41565.538    34945.100     7911.900       12.967        4.221      418.261      101.043        0.058      346.466       24.730      859.899
08/13/2014  17:20:00     -405.537     -206.951      -16.674      266.150      250.772      112.273    70835.970    62886.644    12605.175       17.692        7.316      455.290      128.828        0.080      346.569       24.907      859.878
08/13/2014  17:21:00     -257.863     -167.305       -2.891      179.576      137.257       87.603    32247.366    18839.441     7674.287        7.661        2.938      307.382       92.110        0.090      346.521       24.824      859.897
08/13/2014  17:22:00     -152.400      -85.148       19.786      207.121      146.935       81.202    42899.307    21589.927     6593.767        5.096        3.554      174.574       92.813        0.283      346.554       24.881      859.881
08/13/2014  17:23:00     -105.221     -173.271       12.056      132.977      140.914       83.961    17682.862    19856.680     7049.426        4.291        2.229      202.717       67.371        0.110      346.669       25.080      859.843
08/13/2014  17:24:00     -248.049     -314.130        6.743      197.270      218.768      100.180    38915.575    47859.651    10035.989       12.851        4.841      400.257      118.240        0.087      346.704       25.139      859.921
08/13/2014  17:25:00     -466.467     -220.800      -10.572      269.024      192.574      109.290    72373.758    37084.722    11944.266       19.391        6.070      516.086      129.241        0.063      346.527       24.834      859.994
08/13/2014  17:26:00     -143.900     -157.213       12.794      166.632      177.236       90.774    27766.222    31412.682     8239.926        5.649        3.371      213.127       95.597        0.201      346.581       24.929      860.005
08/13/2014  17:27:00     -197.355      -91.404       10.111      151.384       82.357       55.610    22917.030     6782.757     3092.452        4.009        1.640      217.494       51.971        0.057      346.531       24.843      859.949
08/13/2014  17:28:00     -551.399     -436.103      -11.272      334.220      226.728      125.827   111702.888    51405.398    15832.464       33.661        8.947      703.013      135.219        0.037      346.364       24.555      859.949
08/13/2014  17:29:00     -149.164     -290.103       -9.215      164.886      149.666       83.169    27187.362    22399.803     6917.025        8.149        2.825      326.205       49.445        0.023      346.456       24.713      859.949
08/13/2014  17:30:00     -250.311      -86.188        6.321      162.531      148.135       75.123    26416.286    21944.070     5643.489        6.205        2.700      264.734       68.096        0.066      346.553       24.880      859.974
08/13/2014  17:31:00     -307.372     -217.229        6.429      265.314      165.285       97.229    70391.260    27319.022     9453.470       12.441        5.358      376.386      110.063        0.086      346.383       24.587      859.914
08/13/2014  17:32:00     -493.717     -342.756      -13.171      222.275      206.454       99.922    49405.989    42623.455     9984.432       23.169        5.101      601.031      117.196        0.038      346.360       24.549      859.859
08/13/2014  17:33:00     -254.169     -192.437       11.345      210.410      178.701       98.573    44272.456    31934.206     9716.724        9.383        4.296      318.801      107.747        0.114      346.500       24.790      859.851
08/13/2014  17:34:00     -410.079     -325.168        3.849      253.947      205.578      106.967    64489.057    42262.407    11441.868       19.603        5.910      523.353      111.907        0.046      346.386       24.592      859.934
08/13/2014  17:35:00     -177.879     -104.880      -12.337      140.716       86.245       62.830    19801.119     7438.123     3947.638        3.698        1.559      206.496       40.553        0.039      346.533       24.848      859.936
08/13/2014  17:36:00     -147.563     -111.478       -2.339      132.365       85.850       53.329    17520.427     7370.162     2843.967        3.097        1.387      184.939       58.448        0.100      346.543       24.864      859.944
08/13/2014  17:37:00     -238.884     -145.808       -9.099      156.870      103.932       56.200    24608.105    10801.829     3158.407        5.848        1.928      279.867       68.610        0.060      346.525       24.833      859.936
08/13/2014  17:38:00     -348.441     -153.152      -20.140      235.427      147.012       83.582    55426.102    21612.392     6985.930       11.463        4.201      380.613      102.051        0.072      346.454       24.710      859.950
08/13/2014  17:39:00     -213.156     -131.273       -5.676      171.418      124.112       73.764    29384.184    15403.672     5441.151        5.645        2.511      250.335       68.968        0.076      346.483       24.759      859.939
08/13/2014  17:40:00     -313.014     -191.257        4.657      199.598      149.747       77.070    39839.400    22424.207     5939.719       10.138        3.410      366.820       67.804        0.034      346.503       24.792      859.929
08/13/2014  17:41:00     -284.422     -266.180       14.268      222.233      190.619       96.650    49387.708    36335.472     9341.157       12.349        4.753      389.549       86.453        0.049      346.387       24.594      859.952
08/13/2014  17:42:00     -280.865     -275.756       11.527      251.436      200.875       94.130    63220.254    40350.945     8860.456       13.372        5.622      393.607      101.701        0.067      346.249       24.358      859.994
08/13/2014  17:43:00     -191.259     -245.808       27.057      152.273      191.169       93.202    23187.197    36545.449     8686.667        8.306        3.421      311.450       84.319        0.073      346.307       24.456      860.003
08/13/2014  17:44:00     -302.331     -315.255       -4.399      216.240      228.702      107.415    46759.539    52304.796    11537.915       15.068        5.530      436.795      108.608        0.062      346.258       24.371      860.041
08/13/2014  17:45:00     -342.435     -164.997       22.370      213.885      172.776       81.281    45746.889    29851.393     6606.606       11.358        4.110      380.112       85.141        0.050      346.304       24.451      860.020
08/13/2014  17:46:00     -206.114     -177.010       -3.294      166.439      139.836       73.112    27701.824    19554.244     5345.368        6.320        2.630      271.690       50.001        0.034      346.391       24.602      860.095
08/13/2014  17:47:00     -444.196     -137.824      -22.357      315.069      179.548       89.144    99268.405    32237.380     7946.660       17.810        6.973      465.087      112.096        0.058      346.218       24.304      860.009
08/13/2014  17:48:00     -477.962     -177.017      -22.322      229.942      190.610      101.061    52873.313    36332.351    10213.419       17.983        4.971      509.688      110.614        0.047      346.344       24.519      860.020
08/13/2014  17:49:00     -340.859     -152.041       -5.028      214.337      112.031       78.036    45940.502    12550.920     6089.581       10.194        3.229      373.231      100.472        0.072      346.338       24.511      860.031
08/13/2014  17:50:00     -458.549     -221.459       -6.863      274.819      216.096      105.646    75525.215    46697.287    11161.113       19.634        6.669      509.226      128.774        0.064      346.293       24.432      860.008
08/13/2014  17:51:00     -557.164      -82.363      -17.185      258.443      193.706      118.041    66792.527    37521.973    13933.691       21.786        5.912      563.219      134.093        0.057      346.215       24.298      860.023
08/13/2014  17:52:00     -461.969     -247.048        5.945      319.714      223.520      123.635   102216.763    49961.194    15285.625       22.094        8.373      523.878      166.697        0.101      346.164       24.210      860.089
08/13/2014  17:53:00     -227.740     -131.644       24.407      192.654      170.461       85.532    37115.422    29057.076     7315.778        7.163        3.674      263.050      100.369        0.146      346.285       24.421      860.087
08/13/2014  17:54:00     -466.086     -131.632       -8.948      259.027      209.635       97.623    67095.213    43946.773     9530.266       17.758        6.029      484.317      115.996        0.057      346.256       24.370      860.091
08/13/2014  17:55:00     -278.450     -250.911       14.739      207.895      183.312       98.300    43220.352    33603.234     9662.901       11.358        4.324      374.821      102.363        0.075      346.260       24.375      860.168
08/13/2014  17:56:00     -243.603      -92.531       -3.116      182.776      144.997      103.864    33407.149    21024.022    10787.819        6.655        3.261      260.585      111.798        0.184      346.263       24.380      860.160
08/13/2014  17:57:00     -212.132      -80.836       19.636      204.813      204.262       97.329    41948.196    41723.023     9472.899        7.251        4.657      227.012       96.820        0.182      346.262       24.380      860.109
08/13/2014  17:58:00     -203.977     -303.468        3.082      198.924      266.415      100.667    39570.838    70976.962    10133.869       12.717        6.034      365.650       75.531        0.043      346.162       24.208      860.041
08/13/2014  17:59:00     -473.074     -266.348      -23.076      244.896      155.622       80.262    59973.822    24218.162     6441.985       19.294        4.532      542.900       95.588        0.031      346.148       24.183      860.046
08/13/2014  18:00:00     -515.439     -271.861      -39.290      245.705      220.016       96.875    60371.094    48407.140     9384.680       22.962        5.908      582.740      109.114        0.035      346.191       24.256      860.066
08/13/2014  18:01:00     -191.915     -180.162       12.002      247.803      168.306       98.712    61406.537    28326.813     9744.036        8.444        4.974      263.229      119.185        0.205      346.307       24.458      860.095
08/13/2014  18:02:00     -249.551     -237.655       19.285      183.673      225.890      102.198    33735.676    51026.442    10444.389       10.715        4.760      344.610      111.853        0.105      346.271       24.396      860.102
08/13/2014  18:03:00     -265.884     -219.814        2.466      234.535      160.646       93.466    55006.890    25807.252     8735.980       10.427        4.478      344.981      110.082        0.102      346.249       24.357      860.101
08/13/2014  18:04:00     -248.114     -228.014       13.194      190.591      195.805      100.209    36324.761    38339.560    10041.916        9.920        4.235      336.973      115.232        0.117      346.245       24.348      860.067
08/13/2014  18:05:00     -321.118     -263.402       -6.715      199.740      231.958       91.300    39896.022    53804.293     8335.672       13.727        5.102      415.328       82.284        0.039      346.232       24.328      860.071
08/13/2014  18:06:00     -447.725     -260.468      -10.103      251.767      197.406      102.499    63386.460    38969.314    10506.029       19.061        5.643      517.978      122.699        0.056      346.148       24.184      860.004
08/13/2014  18:07:00     -273.261      -91.141        2.382      207.157      106.962       74.022    42913.841    11440.770     5479.190        7.140        2.992      288.059       87.551        0.092      346.258       24.373      860.016
08/13/2014  18:08:00     -296.573     -250.272        3.952      195.614      164.444       72.884    38264.985    27041.816     5312.082       11.060        3.531      388.061       82.714        0.045      346.190       24.254      860.006
08/13/2014  18:09:00     -414.901     -242.401        7.428      300.700      184.643       99.975    90420.649    34093.202     9995.086       18.271        6.725      480.522      129.476        0.073      346.080       24.067      859.981
08/13/2014  18:10:00     -356.044     -229.973      -21.002      282.911      193.174       79.381    80038.869    37316.111     6301.268       15.185        6.183      423.857       81.240        0.037      346.076       24.061      859.911
08/13/2014  18:11:00     -245.093     -193.079       -1.442      140.594      151.365       66.195    19766.586    22911.232     4381.763        7.220        2.353      312.010       67.318        0.047      346.228       24.320      859.981
08/13/2014  18:12:00     -217.082     -208.678       -4.109      170.043      144.539       82.424    28914.684    20891.549     6793.684        7.363        2.830      301.116       79.901        0.070      346.210       24.291      859.981
08/13/2014  18:13:00     -447.138     -242.040      -37.513      251.558      244.678       94.902    63281.182    59867.563     9006.309       19.601        6.608      508.444      104.930        0.043      346.049       24.013      859.933
08/13/2014  18:14:00     -396.227     -172.736       -5.861      207.083      169.481       95.057    42883.516    28723.895     9035.786       13.374        4.032      432.242      104.886        0.059      346.104       24.107      859.887
08/13/2014  18:15:00     -409.242     -160.281      -19.652      272.760      201.864      119.344    74397.806    40748.991    14243.056       16.145        6.469      439.510      136.995        0.097      346.088       24.079      859.792
08/13/2014  18:16:00     -365.251     -249.083        8.061      253.481      229.063      118.011    64252.531    52469.946    13926.613       16.306        6.532      442.098      135.927        0.095      346.061       24.034      859.804
08/13/2014  18:17:00     -330.923     -249.873       -4.254      278.443      196.305      106.773    77530.700    38535.632    11400.407       14.969        6.373      414.664      137.126        0.109      346.129       24.152      859.821
08/13/2014  18:18:00     -440.445      -52.306      -13.935      204.731      202.965       94.274    41914.707    41194.627     8887.542       14.444        4.600      443.540       94.081        0.045      346.124       24.143      859.734
08/13/2014  18:19:00     -724.173     -227.735      -20.460      377.781      224.401      106.031   142718.182    50355.910    11242.676       39.047       10.216      759.137      131.241        0.030      346.064       24.040      859.619
08/13/2014  18:20:00     -714.451     -281.616      -15.321      272.602      285.470      139.110    74311.724    81492.866    19351.566       38.253        8.758      767.950      137.023        0.032      346.047       24.009      859.694
08/13/2014  18:21:00     -550.854     -266.215      -19.090      277.642      257.961      115.783    77085.221    66543.845    13405.810       26.582        7.852      611.809      119.876        0.038      346.009       23.944      859.784
08/13/2014  18:22:00     -480.833     -359.830      -31.204      244.452      235.102      103.432    59756.625    55273.037    10698.254       24.366        6.286      600.565      119.149        0.039      345.950       23.843      859.806
08/13/2014  18:23:00     -503.887     -196.882      -11.892      225.222      206.996       94.384    50725.140    42847.430     8908.294       19.762        5.124      540.984      101.570        0.035      346.022       23.968      859.807
08/13/2014  18:24:00     -229.135     -174.752       10.598      252.483      178.082       75.252    63747.629    31713.087     5662.848        9.212        5.056      288.168       95.833        0.111      346.107       24.112      859.833
08/13/2014  18:25:00     -525.537     -351.813      -38.036      206.016      184.202      105.716    42442.402    33930.383    11175.877       24.446        4.377      632.425      103.047        0.027      346.043       24.004      859.808
08/13/2014  18:26:00     -409.662     -201.456       -9.415      228.101      180.641       89.077    52030.183    32631.330     7934.694       15.053        4.630      456.517      104.457        0.052      346.076       24.060      859.807
08/13/2014  18:27:00     -128.744      -92.996        7.510      122.950      143.216       62.469    15116.612    20510.859     3902.385        3.240        1.976      158.818       67.668        0.182      346.221       24.310      859.815
08/13/2014  18:28:00     -312.187     -244.334        0.297      217.326      194.411       94.223    47230.399    37795.643     8878.065       12.551        4.695      396.434      104.693        0.070      346.100       24.100      859.816
08/13/2014  18:29:00     -328.590     -274.296      -11.098      194.796      160.468      102.336    37945.305    25750.006    10472.678       12.874        3.708      428.031      106.180        0.062      346.099       24.099      859.797
08/13/2014  18:30:00     -298.986     -231.431        2.993      202.381      139.544       83.173    40957.902    19472.511     6917.742       10.514        3.367      378.091       90.135        0.057      346.104       24.108      859.815
08/13/2014  18:31:00     -358.386     -127.650      -12.265      217.305      140.652       84.127    47221.267    19783.028     7077.394       10.947        3.704      380.441       98.297        0.067      346.086       24.078      859.796
08/13/2014  18:32:00     -448.917     -357.940      -33.364      248.851      178.113       94.070    61926.885    31724.129     8849.160       21.661        5.125      574.149       90.927        0.025      346.033       23.985      859.798
08/13/2014  18:33:00     -652.445     -217.104      -33.919      383.899      232.272      124.626   147378.384    53950.253    15531.753       34.537       10.843      687.618      160.636        0.055      345.945       23.836      859.765
08/13/2014  18:34:00     -587.461     -168.756      -35.309      263.908      193.958      117.837    69647.249    37619.659    13885.660       24.797        6.058      611.219      124.089        0.041      345.868       23.703      859.824
08/13/2014  18:35:00     -451.092     -394.029       -5.990      285.270      254.849      112.617    81379.159    64948.136    12682.696       25.886        7.950      598.951      130.300        0.047      345.818       23.617      859.806
08/13/2014  18:36:00     -393.489     -134.841       -5.664      215.426      213.142       99.500    46408.188    45429.578     9900.339       13.737        5.087      415.952       94.181        0.051      345.909       23.773      859.822
08/13/2014  18:37:00     -500.191     -147.413      -28.165      238.865      176.184      104.675    57056.438    31040.830    10956.912       18.586        4.953      521.461      115.587        0.049      345.930       23.810      859.828
08/13/2014  18:38:00     -339.070     -185.930       -0.052      178.661      140.132       73.321    31919.620    19637.028     5375.978       10.322        2.847      386.702       79.469        0.042      346.035       23.990      859.877
08/13/2014  18:39:00     -437.611     -280.028      -10.902      257.374      231.443      121.362    66241.392    53566.072    14728.707       20.226        6.727      519.537      143.980        0.077      345.941       23.830      859.883
08/13/2014  18:40:00     -434.255     -202.695      -18.908      243.430      251.523      105.520    59258.162    63263.826    11134.475       18.181        6.683      479.232      127.112        0.070      345.931       23.811      859.943
08/13/2014  18:41:00     -292.105     -235.985        3.244      250.400      196.902      101.904    62699.959    38770.427    10384.468       12.642        5.593      375.519       84.603        0.051      345.980       23.896      859.954
08/13/2014  18:42:00     -377.108     -260.720      -15.360      166.080      157.869       73.412    27582.559    24922.512     5389.379       13.415        2.895      458.460       78.429        0.029      345.931       23.810      860.019
08/13/2014  18:43:00     -466.713     -280.325       -2.385      197.752      154.689       88.758    39105.978    23928.554     7877.960       18.365        3.546      544.429       89.314        0.027      345.949       23.841      860.036
08/13/2014  18:44:00     -439.784     -261.230       14.460      251.932      177.630      109.990    63469.524    31552.530    12097.843       18.447        5.356      511.518      128.100        0.063      345.872       23.710      859.993
08/13/2014  18:45:00     -554.291      -46.853      -15.859      285.244      173.744      120.408    81363.976    30186.989    14498.049       21.784        6.302      556.268      140.469        0.064      345.871       23.708      859.947
08/13/2014  18:46:00     -496.355      -70.790      -13.325      198.921      244.375      107.314    39569.621    59719.024    11516.364       18.116        5.540      501.377      120.026        0.057      345.872       23.709      859.942
08/13/2014  18:47:00     -520.426     -224.092      -10.930      350.949      201.557      104.508   123164.850    40625.121    10921.992       24.791        8.736      566.622      137.324        0.059      345.842       23.659      859.951
08/13/2014  18:48:00     -493.861     -194.389      -14.257      245.912      206.036      114.374    60472.532    42450.843    13081.476       19.892        5.800      530.741      120.790        0.052      345.859       23.689      859.980
08/13/2014  18:49:00     -558.756     -145.622      -10.372      234.080      220.303      128.354    54793.645    48533.520    16474.848       22.664        5.990      577.421      120.082        0.043      345.849       23.671      859.994
08/13/2014  18:50:00     -375.479     -164.382        0.248      241.403      160.660      108.609    58275.440    25811.518    11795.985       13.193        4.794      409.885      129.073        0.099      345.859       23.688      860.099
08/13/2014  18:51:00     -309.002     -132.952        1.892      186.727      191.256       86.599    34866.886    36578.762     7499.462        9.604        3.947      336.391       95.648        0.081      345.875       23.717      860.145
08/13/2014  18:52:00     -308.344     -178.436       -7.011      181.691      135.484       78.208    33011.640    18355.870     6116.466        9.221        2.874      356.252       85.388        0.057      345.892       23.744      860.216
08/13/2014  18:53:00     -284.355     -105.478      -16.165      140.199      145.737       67.482    19655.674    21239.184     4553.822        6.884        2.272      303.288       69.035        0.052      345.906       23.770      860.223
08/13/2014  18:54:00     -341.325     -162.304        0.060      250.219      231.635      100.748    62609.756    53654.571    10150.168       13.460        6.321      377.949      110.174        0.085      345.822       23.625      860.238
08/13/2014  18:55:00     -511.150     -297.952      -35.337      256.379      166.259       98.454    65730.018    27642.082     9693.194       22.716        5.153      591.650      112.182        0.036      345.686       23.390      860.216
08/13/2014  18:56:00     -328.766     -165.102       -3.788      228.034      159.636       80.003    51999.371    25483.535     6400.453       10.960        4.194      367.894       91.062        0.061      345.793       23.575      860.207
08/13/2014  18:57:00     -424.060     -231.531       -8.335      296.177      202.579      114.399    87720.973    41038.247    13087.035       18.765        7.092      483.150      141.903        0.086      345.765       23.526      860.267
08/13/2014  18:58:00     -601.371     -261.003       -5.316      282.732      181.378      110.714    79937.218    32897.831    12257.544       27.742        6.255      655.569      130.479        0.040      345.696       23.408      860.278
08/13/2014  18:59:00     -293.166     -181.991       12.003      242.666      225.497      111.949    58886.597    50848.957    12532.687       12.072        6.113      345.061      124.724        0.131      345.705       23.423      860.254
08/13/2014  19:00:00     -498.603     -222.535      -28.153      280.893      189.880      129.189    78900.751    36054.412    16689.697       21.526        6.582      546.010      142.239        0.068      345.678       23.377      860.299
08/13/2014  19:01:00     -426.369     -253.961      -16.625      200.230      160.983       88.353    40092.172    25915.514     7806.329       16.017        3.691      496.273      104.788        0.045      345.630       23.292      860.355
08/13/2014  19:02:00     -284.896     -241.583        2.187      196.987      143.735       97.749    38803.900    20659.771     9554.940       10.426        3.451      373.535      110.540        0.088      345.631       23.295      860.331
08/13/2014  19:03:00     -177.152     -127.557        5.957      161.851      134.513       76.785    26195.605    18093.823     5895.956        4.893        2.509      218.297       77.817        0.127      345.718       23.446      860.357
08/13/2014  19:04:00     -468.555      -24.542      -31.405      235.010      172.464       90.483    55229.754    29743.876     8187.106       15.713        4.658      469.198      106.999        0.052      345.659       23.344      860.328
08/13/2014  19:05:00     -401.482     -120.682       -5.503      236.007      196.423       95.333    55699.391    38581.989     9088.458       13.956        5.168      419.228      105.671        0.064      345.673       23.367      860.296
08/13/2014  19:06:00     -559.997     -107.159      -16.749      221.745      234.507       86.703    49170.673    54993.506     7517.467       21.850        5.584      570.157       85.919        0.023      345.621       23.278      860.310
08/13/2014  19:07:00     -380.697     -116.672       -2.750      224.981      195.316       94.041    50616.421    38148.224     8843.669       12.806        4.880      398.174       95.531        0.058      345.672       23.368      860.329
08/13/2014  19:08:00     -296.828     -130.030       -7.087      177.350      156.567       93.749    31453.115    24513.103     8788.952        8.490        3.238      324.059       99.998        0.095      345.694       23.403      860.385
08/13/2014  19:09:00     -422.774     -220.503      -34.430      187.146      157.736       92.572    35023.812    24880.587     8569.503       14.850        3.424      476.822       96.530        0.041      345.601       23.243      860.356
08/13/2014  19:10:00     -291.428     -237.242        0.149      234.300      167.775      104.303    54896.514    28148.472    10879.183       11.755        4.696      375.784      130.793        0.121      345.660       23.344      860.342
08/13/2014  19:11:00     -358.872     -183.013      -15.642      135.060      113.506       72.646    18241.132    12883.540     5277.480        9.946        1.820      402.843       78.378        0.038      345.631       23.295      860.387
08/13/2014  19:12:00     -647.522     -271.085      -29.519      306.396      238.076      110.023    93878.474    56680.182    12105.127       32.812        8.133      701.977      123.994        0.031      345.581       23.210      860.345
08/13/2014  19:13:00     -417.347     -291.584       -6.306      342.298      198.375      129.786   117167.843    39352.564    16844.329       21.627        8.668      509.116      157.791        0.096      345.566       23.184      860.348
08/13/2014  19:14:00     -233.359      -91.395       11.780      153.910      161.794       81.138    23688.168    26177.227     6583.408        5.969        2.822      250.618       90.853        0.131      345.609       23.259      860.348
08/13/2014  19:15:00     -360.800     -192.055      -22.720      219.435      150.659      107.267    48151.805    22698.263    11506.116       12.495        4.118      408.732      119.750        0.086      345.556       23.167      860.360
08/13/2014  19:16:00     -404.376      -48.678       -5.879      224.203      168.253       84.150    50266.771    28309.201     7081.251       12.577        4.283      407.295       87.929        0.047      345.588       23.221      860.345
08/13/2014  19:17:00     -353.328     -210.098      -10.626      187.198      189.814       92.006    35042.925    36029.257     8465.023       12.430        3.977      411.074       94.464        0.053      345.549       23.155      860.327
08/13/2014  19:18:00     -330.514     -176.492       17.231      219.414      227.329       94.433    48142.624    51678.306     8917.644       12.469        5.437      374.685      112.805        0.091      345.551       23.159      860.351
08/13/2014  19:19:00     -385.753     -153.931      -20.750      191.896      201.102       79.604    36824.214    40442.183     6336.853       12.825        4.180      415.331       94.612        0.052      345.553       23.162      860.395
08/13/2014  19:20:00     -367.462     -271.523      -10.037      188.417      157.363       95.354    35500.804    24763.174     9092.387       13.909        3.468      456.895      107.106        0.055      345.523       23.109      860.379
08/13/2014  19:21:00     -409.288     -246.515       -8.970      222.326      146.770       94.536    49428.740    21541.429     8937.088       15.412        3.995      477.794      102.628        0.046      345.508       23.084      860.361
08/13/2014  19:22:00     -547.575     -300.484      -12.031      277.585      202.095      109.467    77053.505    40842.279    11982.941       26.005        6.494      624.603      124.706        0.040      345.479       23.034      860.347
08/13/2014  19:23:00     -389.098     -182.556      -14.898      218.234      142.852       87.135    47626.275    20406.796     7592.446       13.027        3.781      429.796       55.973        0.017      345.531       23.123      860.401
08/13/2014  19:24:00     -409.149      -72.349      -10.417      205.302      147.601      103.640    42148.742    21786.150    10741.196       12.370        3.734      415.496      107.788        0.067      345.508       23.083      860.403
08/13/2014  19:25:00     -289.184     -122.467        6.031      214.341      238.964       91.348    45942.255    57103.662     8344.496       10.500        5.570      314.047      105.511        0.113      345.456       22.996      860.409
08/13/2014  19:26:00     -398.322     -110.385      -19.663      174.108      141.219       69.107    30313.670    19942.782     4775.718       11.312        2.752      413.334       67.774        0.027      345.504       23.077      860.412
08/13/2014  19:27:00     -360.119     -222.335       -4.798      229.942      191.612       83.005    52873.210    36715.096     6889.845       13.779        4.824      423.224      107.877        0.065      345.432       22.955      860.427
08/13/2014  19:28:00     -388.574     -172.288      -11.231      170.361      140.720       71.656    29022.728    19802.086     5134.527       11.737        2.698      425.056       82.495        0.038      345.441       22.969      860.381
08/13/2014  19:29:00     -214.118      -90.905      -10.500      112.121      109.563       56.617    12571.083    12004.010     3205.499        4.100        1.389      232.616       61.566        0.070      345.508       23.085      860.388
08/13/2014  19:30:00     -695.832     -241.953      -42.524      281.636      204.945      108.075    79319.038    42002.526    11680.126       33.874        6.650      736.698      104.132        0.020      345.428       22.946      860.378
08/13/2014  19:31:00     -211.192     -155.089       20.169      209.917      141.210       92.488    44065.203    19940.182     8554.106        7.080        3.628      262.020      113.228        0.187      345.442       22.973      860.407
08/13/2014  19:32:00     -318.558     -256.672       13.917      271.124      174.454       89.642    73508.255    30434.185     8035.652       13.974        5.599      409.097      109.786        0.072      345.408       22.913      860.385
08/13/2014  19:33:00     -471.952     -219.798      -14.012      196.375      153.783       84.741    38562.945    23649.205     7181.011       17.031        3.470      520.625       84.045        0.026      345.356       22.825      860.395
08/13/2014  19:34:00     -414.813     -175.979       -9.442      211.279      140.025       81.573    44638.691    19607.021     6654.167       13.700        3.545      450.597       82.234        0.033      345.348       22.809      860.353
08/13/2014  19:35:00     -307.188     -190.944        7.183      220.541      208.265      111.053    48638.454    43374.267    12332.740       11.759        5.217      361.696      117.388        0.105      345.343       22.801      860.379
08/13/2014  19:36:00     -442.955     -262.726       -4.739      234.057      173.433      107.234    54782.686    30078.992    11499.159       18.079        4.818      515.009      119.902        0.054      345.317       22.756      860.424
08/13/2014  19:37:00     -355.686     -197.462       -5.901      159.915      164.307       79.846    25572.852    26996.854     6375.385       11.223        2.947      406.822       73.630        0.033      345.305       22.738      860.451
08/13/2014  19:38:00     -337.781     -114.141       -9.460      192.516      145.723       80.951    37062.315    21235.100     6553.122        9.602        3.243      356.545       93.875        0.069      345.305       22.736      860.476
08/13/2014  19:39:00     -456.934      -15.473      -18.258      210.427      187.592      104.749    44279.356    35190.690    10972.316       14.988        4.522      457.196      119.489        0.068      345.260       22.660      860.471
08/13/2014  19:40:00     -417.517     -122.303      -12.998      141.075      144.723       72.362    19902.111    20944.757     5236.187       11.776        2.304      435.062       59.029        0.018      345.269       22.674      860.471
08/13/2014  19:41:00     -409.302     -158.527       -5.011      167.952      140.730       79.044    28207.889    19805.000     6247.955       12.346        2.713      438.929       85.706        0.038      345.266       22.670      860.494
08/13/2014  19:42:00     -130.655     -108.749       36.913      216.929      174.432       82.467    47058.209    30426.575     6800.767        5.726        4.214      169.992      110.469        0.422      345.242       22.631      860.526
08/13/2014  19:43:00     -209.399     -105.050        0.110      161.511      167.044       86.873    26085.643    27903.642     7546.899        5.820        3.077      234.272       80.706        0.119      345.248       22.641      860.544
08/13/2014  19:44:00     -458.811     -114.649      -35.524      219.114      143.383       81.074    48010.731    20558.731     6573.052       15.001        3.757      472.919       76.772        0.026      345.224       22.598      860.561
08/13/2014  19:45:00     -325.295      -48.704       -3.808      197.942      140.244       82.191    39180.911    19668.475     6755.358        8.689        3.280      328.921       88.741        0.073      345.241       22.628      860.612
08/13/2014  19:46:00     -328.104     -236.830       -1.628      157.857      165.689       82.904    24918.922    27452.775     6873.123       11.148        2.962      404.648       87.234        0.046      345.191       22.541      860.621
08/13/2014  19:47:00     -223.015      -99.053        4.076      125.799      115.372       61.383    15825.438    13310.799     3767.914        4.623        1.645      244.022       58.865        0.058      345.216       22.584      860.592
08/13/2014  19:48:00     -190.508      -84.587        6.460      173.071      114.899       72.856    29953.484    13201.672     5307.927        4.597        2.423      208.443       65.382        0.098      345.193       22.545      860.594
08/13/2014  19:49:00     -207.180     -131.535        6.496      171.003      123.301       74.661    29241.970    15203.178     5574.228        5.513        2.501      245.408       90.610        0.136      345.123       22.425      860.597
08/13/2014  19:50:00     -398.623     -103.271      -22.818      189.172      115.269       69.130    35786.005    13287.039     4778.962       11.196        2.693      411.783       83.550        0.041      345.097       22.380      860.593
08/13/2014  19:51:00     -240.134     -116.093        1.224      181.312      154.856       74.114    32874.061    23980.403     5492.938        6.673        3.117      266.724       88.791        0.111      345.114       22.411      860.588
08/13/2014  19:52:00     -365.595      -83.478       -9.461      294.699      176.044       94.128    86847.416    30991.549     8860.169       13.368        6.335      375.004      115.133        0.094      345.054       22.309      860.590
08/13/2014  19:53:00     -448.941     -121.932      -26.795      159.829      102.644       59.747    25545.174    10535.736     3569.701       12.838        1.983      465.204       53.439        0.013      345.023       22.256      860.575
08/13/2014  19:54:00     -594.373      -89.724      -50.308      228.796      126.998       90.162    52347.483    16128.526     8129.097       22.022        3.830      601.107      116.459        0.038      345.015       22.240      860.570
08/13/2014  19:55:00     -381.804     -156.971       -5.348      206.981      216.802       80.425    42841.036    47003.156     6468.175       13.336        4.816      412.812       93.368        0.051      344.996       22.207      860.594
08/13/2014  19:56:00     -455.020      -70.181      -24.636      177.011      123.657       77.721    31333.013    15291.082     6040.570       13.261        2.633      460.401       80.776        0.031      344.958       22.143      860.620
08/13/2014  19:57:00     -359.649      -99.716       -6.747      146.577      124.497       67.650    21484.804    15499.564     4576.580        9.044        2.078      373.216       74.081        0.039      344.963       22.151      860.659
08/13/2014  19:58:00     -365.896      -66.861      -16.024      141.787      115.512       64.824    20103.445    13343.024     4202.109        8.812        1.882      371.955       64.866        0.030      344.942       22.115      860.671
08/13/2014  19:59:00     -248.419      -83.617      -12.789      104.809       84.398       50.447    10984.984     7122.954     2544.858        4.476        1.033      262.114       50.991        0.038      344.945       22.120      860.679
08/13/2014  20:00:00     -240.548      -21.373       -6.338      177.699      112.839       67.420    31577.026    12732.572     4545.511        5.360        2.443      241.496       69.138        0.082      344.962       22.149      860.681
08/13/2014  20:01:00     -365.482     -119.693      -11.598      169.811      103.199       78.968    28835.711    10650.002     6235.896        9.687        2.286      384.582       83.431        0.047      344.881       22.011      860.695
08/13/2014  20:02:00     -494.147      -47.981      -27.274      209.281      159.321       75.878    43798.689    25383.315     5757.450       16.107        3.747      496.471       93.367        0.035      344.914       22.067      860.692
08/13/2014  20:03:00     -329.090     -126.263       -9.863      151.542      128.261       64.591    22964.932    16450.994     4171.978        8.396        2.179      352.481       68.853        0.038      344.915       22.070      860.702
08/13/2014  20:04:00     -420.404     -102.099      -37.953      186.125      172.584       80.689    34642.370    29785.117     6510.678       12.976        3.547      432.625       90.812        0.044      344.884       22.016      860.704
08/13/2014  20:05:00     -425.451      -78.222      -12.564      191.714      143.684       83.228    36754.182    20644.987     6926.954       12.579        3.216      432.582       91.255        0.045      344.869       21.991      860.724
08/13/2014  20:06:00     -388.987     -105.184      -12.686      204.620      151.534       72.519    41869.266    22962.499     5258.971       11.630        3.505      402.957       81.357        0.041      344.870       21.993      860.763
08/13/2014  20:07:00     -296.693      -51.064       -5.632      127.056      170.467       66.919    16143.164    29058.946     4478.091        7.016        2.484      301.056       68.339        0.052      344.877       22.005      860.791
08/13/2014  20:08:00     -207.992     -153.395        5.956      136.134      108.445       62.009    18532.416    11760.268     3845.090        5.048        1.707      258.439       54.709        0.045      344.898       22.042      860.797
08/13/2014  20:09:00     -270.878     -166.772        4.650      192.880      137.289       78.774    37202.607    18848.360     6205.396        8.172        3.113      318.100       95.046        0.089      344.886       22.020      860.812
08/13/2014  20:10:00     -455.322     -226.710      -21.537      221.273      159.791      103.148    48961.669    25533.127    10639.447       17.214        4.257      508.641      110.367        0.047      344.914       22.066      860.828
08/13/2014  20:11:00     -272.474     -162.456       -7.831      146.350      121.536       69.303    21418.424    14771.121     4802.843        7.084        2.050      317.229       59.871        0.036      344.912       22.065      860.846
08/13/2014  20:12:00     -203.584      -86.752        4.805      184.356      124.300       68.337    33987.207    15450.425     4669.880        5.154        2.705      221.298       92.027        0.173      344.889       22.025      860.864
08/13/2014  20:13:00     -321.493     -113.963        3.148      172.337      123.546       67.631    29700.075    15263.568     4573.950        8.294        2.477      341.094       76.545        0.050      344.829       21.921      860.888
08/13/2014  20:14:00     -226.686     -162.242       -6.209      146.396      136.623       74.491    21431.654    18665.904     5548.858        6.169        2.282      278.763       57.681        0.043      344.847       21.954      860.914
08/13/2014  20:15:00     -375.948     -199.248        1.511      215.334      156.127       89.672    46368.636    24375.607     8041.076       12.990        3.939      425.484      107.834        0.064      344.877       22.006      860.949
08/13/2014  20:16:00     -316.199     -225.617       11.470      222.664      153.942       88.258    49579.283    23698.233     7789.532       11.603        4.053      388.439      108.507        0.078      344.864       21.981      860.939
08/13/2014  20:17:00     -235.640      -99.038        9.090      204.029      114.504       75.055    41627.735    13111.086     5633.201        6.288        3.019      255.606       88.470        0.120      344.858       21.973      860.987
08/13/2014  20:18:00     -337.083      -92.971      -19.221      166.109      128.597       74.500    27592.322    16537.181     5550.263        8.615        2.484      349.669       77.735        0.049      344.817       21.901      861.016
08/13/2014  20:19:00     -487.280      -68.110      -23.432      159.623      110.240       71.479    25479.538    12152.877     5109.186       14.268        2.137      492.017       72.022        0.021      344.766       21.813      861.020
08/13/2014  20:20:00     -426.192     -132.385       -6.417      146.211      147.317       60.287    21377.761    21702.266     3634.464       12.295        2.336      446.279       55.903        0.016      344.740       21.770      861.038
08/13/2014  20:21:00     -514.414      -56.894      -45.958      161.725      140.638       88.047    26154.907    19779.031     7752.296       16.182        2.684      517.550       81.771        0.025      344.724       21.741      861.076
08/13/2014  20:22:00     -367.672      -29.685      -31.767      171.372      148.476       69.943    29368.220    22045.163     4892.041        9.668        2.815      368.869       77.088        0.044      344.737       21.764      861.102
08/13/2014  20:23:00     -439.189      -49.088      -34.309      140.925      127.820       68.340    19859.755    16338.058     4670.399       11.866        2.043      441.924       64.881        0.022      344.738       21.764      861.099
08/13/2014  20:24:00     -303.949     -175.356        2.061      194.652      117.407       79.493    37889.553    13784.436     6319.117        9.055        2.900      350.906       94.780        0.073      344.721       21.737      861.070
08/13/2014  20:25:00     -410.482     -110.545      -17.940      200.767      138.569       87.376    40307.492    19201.343     7634.522       12.408        3.357      425.106       99.038        0.054      344.698       21.698      861.071
08/13/2014  20:26:00     -436.857      -97.687      -27.084      157.587      124.282       77.479    24833.519    15446.077     6003.057       12.369        2.314      447.646       77.388        0.030      344.688       21.680      861.111
08/13/2014  20:27:00     -436.931      -70.437      -23.468      170.951      174.963       69.564    29224.319    30612.116     4839.199       13.054        3.234      442.572       77.259        0.030      344.674       21.656      861.112
08/13/2014  20:28:00     -415.742     -140.595       -9.847      124.930      147.286       77.890    15607.502    21693.033     6066.853       11.803        2.168      438.872       68.298        0.024      344.660       21.632      861.152
08/13/2014  20:29:00     -503.513     -122.356      -21.646      174.769      141.103       69.888    30544.111    19909.966     4884.264       16.214        2.767      518.166       64.949        0.016      344.661       21.634      861.166
08/13/2014  20:30:00     -477.745      -99.319       -8.686      149.625      106.276       75.952    22387.564    11294.541     5768.730       13.881        1.973      487.959       70.735        0.021      344.616       21.558      861.188
08/13/2014  20:31:00     -412.388      -79.418      -39.028      143.155      149.156       58.667    20493.490    22247.551     3441.765       11.203        2.309      419.965       54.456        0.017      344.620       21.566      861.201
08/13/2014  20:32:00     -261.346        0.822      -10.375      109.258      101.748       64.672    11937.407    10352.687     4182.491        4.744        1.324      261.348       62.497        0.057      344.624       21.571      861.206
08/13/2014  20:33:00     -271.942     -109.330      -13.601      127.777       93.042       60.651    16326.929     8656.847     3678.584        5.737        1.433      293.096       58.231        0.039      344.591       21.514      861.206
08/13/2014  20:34:00     -300.720      -77.460      -13.522      134.054      116.175       59.583    17970.396    13496.582     3550.078        6.581        1.751      310.536       59.530        0.037      344.546       21.438      861.219
08/13/2014  20:35:00     -484.005      -79.094      -22.633      138.590      124.312       66.443    19207.142    15453.367     4414.730       14.004        1.954      490.425       66.780        0.019      344.565       21.470      861.236
08/13/2014  20:36:00     -440.635       -5.066      -36.884      145.637       95.229       69.215    21210.191     9068.522     4790.678       11.530        1.753      440.664       69.202        0.025      344.537       21.423      861.257
08/13/2014  20:37:00     -361.660      -59.591      -20.881      117.819      137.835       57.541    13881.363    18998.350     3310.957        8.548        1.810      366.536       53.618        0.021      344.522       21.397      861.261
08/13/2014  20:38:00     -394.267      -37.094      -16.838      119.632      113.081       64.190    14311.737    12787.317     4120.416        9.416        1.561      396.008       66.124        0.028      344.498       21.355      861.277
08/13/2014  20:39:00     -350.726     -123.378      -21.987      132.543      153.510       67.640    17567.584    23565.224     4575.184        9.220        2.285      371.795       62.516        0.028      344.481       21.327      861.274
08/13/2014  20:40:00     -377.914     -118.346      -22.146      138.356      102.286       58.264    19142.521    10462.374     3394.721        9.515        1.650      396.011       65.540        0.027      344.465       21.299      861.273
08/13/2014  20:41:00     -305.468     -104.133        4.917      123.621       98.145       56.466    15282.072     9632.393     3188.428        6.614        1.405      322.730       61.785        0.037      344.446       21.266      861.275
08/13/2014  20:42:00     -356.143      -41.062      -15.417      126.635      121.450       77.814    16036.498    14750.038     6055.057        8.279        1.842      358.502       79.661        0.049      344.426       21.231      861.290
08/13/2014  20:43:00     -464.505      -61.686      -21.509      142.924      115.011       70.137    20427.228    13227.625     4919.141       12.930        1.929      468.583       65.347        0.019      344.443       21.262      861.297
08/13/2014  20:44:00     -299.655     -133.296       -0.048      196.098      155.601       74.752    38454.550    24211.703     5587.927        8.789        3.413      327.965       75.165        0.053      344.424       21.229      861.301
08/13/2014  20:45:00     -349.002      -20.623      -18.901      113.319       97.785       58.801    12841.087     9561.983     3457.604        7.422        1.293      349.611       56.765        0.026      344.412       21.207      861.305
08/13/2014  20:46:00     -291.428       -7.246      -22.651      149.437       95.681       58.904    22331.324     9154.764     3469.631        6.022        1.748      291.518       68.468        0.055      344.384       21.162      861.300
08/13/2014  20:47:00     -323.956      -61.540       -9.407      151.447      121.442       69.827    22936.151    14748.194     4875.769        7.568        2.128      329.749       73.588        0.050      344.390       21.170      861.303
08/13/2014  20:48:00     -463.011      -91.955      -18.295      252.946      139.249       92.425    63981.551    19390.247     8542.436       15.752        4.596      472.054      107.285        0.052      344.406       21.199      861.304
08/13/2014  20:49:00     -299.996     -127.745       -1.863      180.107      122.716       89.247    32438.541    15059.282     7965.112        8.088        2.773      326.062      105.641        0.105      344.401       21.190      861.321
08/13/2014  20:50:00     -328.046      -57.372      -12.516      138.969       99.936       74.551    19312.414     9987.283     5557.796        7.295        1.743      333.025       67.724        0.041      344.410       21.205      861.351
08/13/2014  20:51:00     -418.222     -114.524      -10.040      194.275      157.061       80.842    37742.850    24668.144     6535.419       12.852        3.447      433.619       85.473        0.039      344.410       21.206      861.353
08/13/2014  20:52:00     -486.876      -35.345      -20.745      176.159      128.801       73.949    31032.002    16589.793     5468.448       14.590        2.655      488.157       71.875        0.022      344.343       21.090      861.329
08/13/2014  20:53:00     -379.196      -86.533       -0.831      171.601      137.045       65.201    29446.792    18781.405     4251.210       10.187        2.624      388.944       68.528        0.031      344.320       21.053      861.330
08/13/2014  20:54:00     -381.376      -42.448      -11.383      164.838      134.107       65.975    27171.479    17984.624     4352.696        9.843        2.475      383.731       78.747        0.042      344.319       21.048      861.335
08/13/2014  20:55:00     -319.804     -103.544       -6.850      162.440      129.613       73.450    26386.697    16799.492     5394.868        8.080        2.429      336.148       81.785        0.059      344.321       21.054      861.345
08/13/2014  20:56:00     -263.252      -26.059       -1.613      166.018      106.347       66.016    27561.838    11309.781     4358.106        5.660        2.161      264.538       78.258        0.088      344.305       21.027      861.354
08/13/2014  20:57:00     -324.727      -43.963       -9.500      139.831      113.630       65.896    19552.585    12911.781     4342.334        7.213        1.840      327.690       71.679        0.048      344.306       21.027      861.335
08/13/2014  20:58:00     -343.739      -60.571      -13.310      218.770      132.359       84.065    47860.221    17518.996     7066.979        9.721        3.622      349.034      101.999        0.085      344.325       21.060      861.305
08/13/2014  20:59:00     -413.016      -60.508      -17.154      204.756      121.282       86.742    41924.976    14709.352     7524.138       11.934        3.208      417.425       92.808        0.049      344.307       21.030      861.285
08/13/2014  21:00:00     -488.252      -43.273      -16.334      175.205      161.561       78.169    30696.851    26102.006     6110.374       15.171        3.145      490.166       76.705        0.024      344.285       20.992      861.296
08/13/2014  21:01:00     -379.136      -55.633       -9.763      218.092      145.196       81.558    47564.034    21082.013     6651.644       11.110        3.765      383.196      101.380        0.070      344.234       20.906      861.310
08/13/2014  21:02:00     -319.835      -97.024        2.885      186.005      149.774       81.640    34597.882    22432.357     6665.045        8.769        3.185      334.228       92.946        0.077      344.264       20.959      861.349
08/13/2014  21:03:00     -340.667     -107.375      -20.830      149.339      178.971       85.516    22302.270    32030.538     7313.052        9.482        3.082      357.188       80.699        0.051      344.292       21.003      861.357
08/13/2014  21:04:00     -312.129      -76.741       -0.368      147.746      118.498       72.593    21828.830    14041.834     5269.782        7.222        2.057      321.425       77.127        0.058      344.274       20.975      861.355
08/13/2014  21:05:00     -384.067     -126.383       -6.816      199.692      153.034       79.732    39876.943    23419.509     6357.149       11.658        3.483      404.327       90.866        0.051      344.277       20.978      861.321
08/13/2014  21:06:00     -425.401      -53.828      -20.308      150.324      116.289       77.152    22597.383    13523.173     5952.385       11.317        2.104      428.793       74.623        0.030      344.257       20.945      861.322
08/13/2014  21:07:00     -413.126      -70.850       -3.353      164.192      147.327       83.742    26958.934    21705.262     7012.785       11.568        2.784      419.157       92.997        0.049      344.180       20.813      861.367
08/13/2014  21:08:00     -297.977      -91.563       10.996      171.509      120.743       77.064    29415.341    14578.808     5938.815        7.360        2.497      311.727       86.578        0.077      344.208       20.862      861.431
08/13/2014  21:09:00     -284.103      -38.424      -15.917      145.714       85.353       66.990    21232.659     7285.053     4487.666        5.772        1.650      286.690       69.813        0.059      344.236       20.909      861.466
08/13/2014  21:10:00     -277.503      -80.074      -13.298      156.316      107.165       59.797    24434.831    11484.436     3575.659        6.154        1.975      288.825       62.216        0.046      344.255       20.942      861.493
08/13/2014  21:11:00     -207.159      -32.829       -4.362       86.031       76.907       44.723     7401.392     5914.762     2000.175        2.966        0.766      209.744       33.193        0.025      344.240       20.916      861.485
08/13/2014  21:12:00     -333.693      -78.837       -9.024      208.666      124.050       74.190    43541.391    15388.497     5504.109        9.103        3.222      342.880       70.931        0.043      344.204       20.853      861.462
08/13/2014  21:13:00     -396.170     -235.818       -6.701      244.437      186.545      106.070    59749.204    34799.203    11250.800       15.918        5.290      461.043      129.278        0.079      344.203       20.851      861.458
08/13/2014  21:14:00     -371.998      -90.119       -8.606      174.985      128.376       80.335    30619.891    16480.349     6453.751       10.006        2.678      382.758       86.924        0.052      344.195       20.838      861.472
08/13/2014  21:15:00     -426.975      -88.998      -17.294      165.543      163.075       66.012    27404.427    26593.352     4357.588       12.443        2.918      436.151       67.704        0.024      344.179       20.810      861.435
08/13/2014  21:16:00     -343.344     -129.012      -19.668      155.987      166.607       76.607    24332.065    27757.919     5868.701        9.643        2.898      366.783       83.850        0.052      344.152       20.765      861.406
08/13/2014  21:17:00     -303.657      -97.911       -3.563      136.581      101.381       60.926    18654.329    10278.018     3711.980        6.722        1.632      319.052       55.033        0.030      344.138       20.741      861.428
08/13/2014  21:18:00     -306.589      -45.385      -15.061      155.491      117.590       62.603    24177.426    13827.355     3919.177        6.910        2.096      309.930       73.958        0.057      344.119       20.709      861.446
08/13/2014  21:19:00     -450.449      -96.683       -8.990      178.069      134.028       81.562    31708.417    17963.587     6652.331       13.432        2.816      460.708       87.051        0.036      344.112       20.695      861.454
08/13/2014  21:20:00     -425.413      -28.712      -24.305      183.594      153.598       82.381    33706.764    23592.218     6786.563       12.323        3.204      426.381       84.548        0.039      344.073       20.630      861.453
08/13/2014  21:21:00     -460.208      -52.598      -38.325      174.599      131.618       71.860    30484.671    17323.323     5163.906       13.449        2.649      463.204       80.744        0.030      344.098       20.671      861.469
08/13/2014  21:22:00     -450.434     -137.550      -14.122      168.880      145.333       78.046    28520.516    21121.824     6091.256       13.886        2.787      470.968       74.392        0.025      344.115       20.702      861.458
08/13/2014  21:23:00     -418.633     -102.575       -7.957      188.281      120.133       83.267    35449.591    14431.967     6933.418       12.132        2.841      431.016       89.324        0.043      344.097       20.673      861.497
08/13/2014  21:24:00     -374.132      -31.259      -10.973      145.053      114.942       75.639    21040.436    13211.661     5721.279        9.051        1.999      375.435       79.959        0.045      344.067       20.619      861.573
08/13/2014  21:25:00     -466.730      -32.828      -41.770      129.894      163.808       67.361    16872.561    26832.923     4537.506       13.444        2.412      467.883       62.853        0.018      344.082       20.646      861.550
08/13/2014  21:26:00     -424.739      -62.084       -8.923      180.896      139.181       78.401    32723.249    19371.289     6146.681       12.128        2.912      429.253       91.274        0.045      344.055       20.600      861.541
08/13/2014  21:27:00     -378.056      -85.049      -24.620      165.165      110.083       76.631    27279.391    12118.342     5872.263        9.801        2.263      387.504       91.013        0.055      344.057       20.602      861.533
08/13/2014  21:28:00     -421.234      -55.484      -31.162      183.668      126.565       67.955    33733.985    16018.600     4617.935       11.792        2.719      424.872       74.419        0.031      344.039       20.572      861.529
08/13/2014  21:29:00     -498.682     -136.454      -13.530      226.102      135.478       82.445    51122.285    18354.387     6797.135       17.186        3.814      517.014       93.397        0.033      344.061       20.609      861.501
08/13/2014  21:30:00     -428.256     -106.097      -11.383      202.436      147.101       90.029    40980.188    21638.690     8105.257       13.274        3.536      441.202       96.965        0.048      344.046       20.583      861.503
08/13/2014  21:31:00     -380.300      -71.513      -20.354      127.934      125.057       73.696    16367.015    15639.248     5431.126        9.379        1.872      386.965       72.185        0.035      344.024       20.546      861.551
08/13/2014  21:32:00     -337.053     -101.956       -5.243      171.763      163.186       74.199    29502.466    26629.668     5505.505        9.282        3.082      352.136       75.208        0.046      344.022       20.543      861.554
08/13/2014  21:33:00     -429.777     -142.229       -1.466      189.172      150.454       84.881    35786.226    22636.416     7204.715       13.527        3.281      452.700       87.059        0.037      344.027       20.551      861.546
08/13/2014  21:34:00     -259.152      -92.273        0.603      164.095      116.128       62.822    26927.157    13485.616     3946.649        6.001        2.218      275.090       66.577        0.059      344.034       20.564      861.580
08/13/2014  21:35:00     -387.156      -37.636      -39.377      181.575      162.870       72.682    32969.323    26526.741     5282.648       10.880        3.239      388.981       70.946        0.033      344.051       20.592      861.598
08/13/2014  21:36:00     -385.334     -112.036      -14.121      181.934      151.431       79.598    33100.132    22931.209     6335.798       11.179        3.118      401.291       84.865        0.045      344.051       20.593      861.617
08/13/2014  21:37:00     -232.024      -45.233      -10.577      152.228      104.084       50.682    23173.422    10833.508     2568.668        4.628        1.829      236.392       61.193        0.067      344.026       20.550      861.597
08/13/2014  21:38:00     -253.303      -43.258        5.743      107.311      100.852       55.265    11515.573    10171.204     3054.194        4.540        1.237      256.970       55.156        0.046      344.000       20.505      861.599
08/13/2014  21:39:00     -494.055      -56.882      -15.318      195.338      140.469       88.425    38157.115    19731.500     7819.031       15.662        3.285      497.318      100.318        0.041      343.969       20.450      861.600
08/13/2014  21:40:00     -477.711      -78.562      -29.394      125.178      125.792       69.960    15669.518    15823.533     4894.446       13.581        1.819      484.127       67.245        0.019      343.960       20.437      861.586
08/13/2014  21:41:00     -294.735      -79.547       -2.929      183.354      167.105       90.634    33618.670    27923.998     8214.547        8.147        3.488      305.281       89.027        0.085      343.982       20.473      861.564
08/13/2014  21:42:00     -470.826     -134.725      -23.602      178.691      135.333       87.797    31930.633    18314.964     7708.253       14.916        2.898      489.722       85.237        0.030      344.000       20.504      861.575
08/13/2014  21:43:00     -479.602     -139.964      -44.162      182.319      125.293       84.199    33240.085    15698.362     7089.508       15.378        2.801      499.608       72.245        0.021      343.989       20.486      861.566
08/13/2014  21:44:00     -506.516     -132.598      -24.413      248.429      133.205       80.961    61716.976    17743.491     6554.715       18.036        4.301      523.585      107.210        0.042      343.985       20.479      861.579
08/13/2014  21:45:00     -511.844      -22.279      -45.260      197.865      131.877       83.794    39150.731    17391.450     7021.363       16.403        3.178      512.329       85.558        0.028      343.977       20.465      861.571
08/13/2014  21:46:00     -489.081      -38.005      -41.207      171.967      139.365       71.433    29572.605    19422.587     5102.626       14.821        2.705      490.556       77.507        0.025      343.948       20.416      861.565
08/13/2014  21:47:00     -396.119      -89.525      -10.839      202.248      162.809       76.518    40904.134    26506.865     5855.037       11.914        3.663      406.109       82.826        0.042      343.920       20.369      861.590
08/13/2014  21:48:00     -487.094     -121.129      -21.263      183.066      153.358       82.086    33512.982    23518.696     6738.159       15.806        3.188      501.929       81.660        0.026      343.925       20.377      861.589
08/13/2014  21:49:00     -390.893      -81.087      -13.703      125.952      104.055       59.976    15863.867    10827.503     3597.074        9.492        1.514      399.215       60.370        0.023      343.888       20.313      861.597
08/13/2014  21:50:00     -435.496      -66.904       -8.080      164.285      102.239       74.487    26989.635    10452.711     5548.284       11.859        2.150      440.605       81.080        0.034      343.881       20.301      861.605
08/13/2014  21:51:00     -348.304      -78.326        1.419      179.453      118.428       71.436    32203.305    14025.175     5103.044        8.938        2.567      357.002       88.870        0.062      343.852       20.254      861.629
08/13/2014  21:52:00     -387.884      -86.057      -14.036      160.127      124.665       73.940    25640.695    15541.410     5467.074       10.234        2.332      397.316       75.697        0.036      343.873       20.287      861.621
08/13/2014  21:53:00     -342.873     -114.055       -8.402      159.958       90.898       68.651    25586.470     8262.506     4712.959        8.459        1.928      361.346       78.154        0.047      343.869       20.283      861.631
08/13/2014  21:54:00     -306.066      -41.781      -10.050      132.587      104.949       67.909    17579.343    11014.292     4611.667        6.436        1.660      308.905       72.635        0.055      343.864       20.272      861.642
08/13/2014  21:55:00     -409.079      -87.585      -15.133      145.579      144.289       75.328    21193.152    20819.226     5674.302       11.146        2.384      418.350       71.277        0.029      343.844       20.240      861.651
08/13/2014  21:56:00     -330.726      -65.315       10.174      136.094      107.115       70.657    18521.599    11473.557     4992.474        7.436        1.749      337.114       71.503        0.045      343.819       20.197      861.664
08/13/2014  21:57:00     -344.805      -41.411       -4.832      135.334      101.788       55.328    18315.404    10360.727     3061.135        7.618        1.587      347.283       56.183        0.026      343.830       20.214      861.673
08/13/2014  21:58:00     -392.209      -75.653      -11.307      150.758      103.318       66.906    22728.094    10674.650     4476.355        9.877        1.894      399.439       69.440        0.030      343.818       20.195      861.671
08/13/2014  21:59:00     -372.380      -59.426       -9.977      136.709      132.959       75.993    18689.404    17678.117     5774.890        9.221        2.107      377.092       72.075        0.037      343.803       20.169      861.673
08/13/2014  22:00:00     -378.061      -48.245      -12.437      124.681      139.831       70.527    15545.417    19552.774     4974.019        9.273        2.004      381.127       59.299        0.024      343.806       20.174      861.697
08/13/2014  22:01:00     -413.226      -67.542      -23.548      160.329      129.498       83.518    25705.468    16769.784     6975.277       11.265        2.473      418.710       87.861        0.044      343.793       20.153      861.706
08/13/2014  22:02:00     -360.790      -79.916      -13.670      151.393      126.662       74.115    22919.942    16043.293     5493.085        9.059        2.223      369.535       84.999        0.053      343.804       20.170      861.736
08/13/2014  22:03:00     -302.712      -22.440       -6.458      139.980      118.332       63.901    19594.392    14002.516     4083.320        6.492        1.884      303.543       65.444        0.046      343.788       20.145      861.758
08/13/2014  22:04:00     -228.926      -44.014      -10.335       93.314      103.892       55.412     8707.553    10793.607     3070.516        3.851        1.129      233.119       51.321        0.048      343.762       20.099      861.767
08/13/2014  22:05:00     -327.975     -114.937      -34.435      118.482      104.344       62.344    14038.096    10887.588     3886.825        7.538        1.441      347.531       69.602        0.040      343.771       20.115      861.757
08/13/2014  22:06:00     -337.150      -56.986      -11.690      147.188      110.359       68.818    21664.246    12179.165     4735.890        7.781        1.929      341.932       81.160        0.056      343.748       20.075      861.761
08/13/2014  22:07:00     -279.235      -32.859      -11.133      149.946      100.443       59.585    22483.748    10088.879     3550.395        5.764        1.806      281.162       61.607        0.048      343.746       20.071      861.760
08/13/2014  22:08:00     -309.929      -93.054      -12.132      171.432      115.347       53.130    29388.879    13304.947     2822.792        7.518        2.276      323.597       58.263        0.032      343.743       20.066      861.761
08/13/2014  22:09:00     -345.165      -50.171      -22.036      148.389      123.203       63.401    22019.272    15178.914     4019.640        8.167        2.061      348.793       70.700        0.041      343.738       20.055      861.761
08/13/2014  22:10:00     -358.731      -49.591        2.800      162.737      124.824       74.017    26483.411    15581.010     5478.524        8.934        2.377      362.143       78.409        0.047      343.735       20.052      861.779
08/13/2014  22:11:00     -319.882      -84.979      -12.256      156.169       77.368       61.247    24388.722     5985.774     3751.235        7.190        1.706      330.978       65.933        0.040      343.719       20.026      861.773
08/13/2014  22:12:00     -274.625      -10.179       -1.558      106.134      119.223       44.677    11264.344    14214.011     1996.061        5.149        1.374      274.814       37.567        0.019      343.724       20.034      861.762
08/13/2014  22:13:00     -211.715      -47.106      -10.410      112.254       95.030       47.494    12600.987     9030.636     2255.641        3.551        1.194      216.892       53.732        0.061      343.726       20.038      861.754
08/13/2014  22:14:00     -386.699      -11.500      -25.685      130.985      129.886       64.657    17157.120    16870.417     4180.474        9.426        1.910      386.870       71.311        0.034      343.715       20.017      861.754
08/13/2014  22:15:00     -288.898      -56.416       -6.579      112.270       89.428       52.680    12604.664     7997.284     2775.207        5.503        1.169      294.355       58.034        0.039      343.681       19.959      861.764
08/13/2014  22:16:00     -253.645      -57.467       -5.429      115.302      104.009       58.163    13294.557    10817.778     3382.923        4.758        1.375      260.073       54.761        0.044      343.674       19.949      861.751
08/13/2014  22:17:00     -292.277      -55.794       -4.823      133.179       99.232       63.249    17736.596     9847.043     4000.447        6.007        1.579      297.555       68.184        0.053      343.669       19.939      861.735
08/13/2014  22:18:00     -357.942      -65.140      -20.569      116.040       96.511       62.578    13465.319     9314.424     3915.998        7.974        1.335      363.821       68.460        0.035      343.669       19.940      861.705
08/13/2014  22:19:00     -437.200      -29.484      -45.403      116.531      103.230       60.130    13579.393    10656.435     3615.669       11.096        1.393      438.193       57.189        0.017      343.645       19.898      861.686
08/13/2014  22:20:00     -324.351      -83.536      -10.566       95.425       96.829       55.052     9106.001     9375.950     3030.707        6.690        1.076      334.936       56.919        0.029      343.605       19.830      861.691
08/13/2014  22:21:00     -406.120      -43.830      -22.459      122.601      110.807       60.599    15031.073    12278.121     3672.296        9.916        1.549      408.478       69.383        0.029      343.601       19.825      861.702
08/13/2014  22:22:00     -358.936      -80.131      -18.244      117.066       90.774       54.245    13704.482     8239.840     2942.490        8.023        1.244      367.772       52.439        0.020      343.594       19.812      861.686
08/13/2014  22:23:00     -265.672      -95.763       -9.425      138.390       95.311       58.190    19151.711     9084.177     3386.028        5.573        1.581      282.404       60.099        0.045      343.602       19.826      861.677
08/13/2014  22:24:00     -327.278      -75.029      -17.369      123.576      119.507       59.676    15271.080    14281.806     3561.228        7.307        1.656      335.768       52.157        0.024      343.612       19.842      861.690
08/13/2014  22:25:00     -351.021      -62.054      -16.157      139.199      106.514       65.747    19376.267    11345.254     4322.666        8.118        1.752      356.464       68.792        0.037      343.592       19.809      861.704
08/13/2014  22:26:00     -340.351      -52.758      -13.588      131.215      101.915       57.398    17217.492    10386.671     3294.530        7.485        1.545      344.415       62.179        0.033      343.583       19.794      861.716
08/13/2014  22:27:00     -260.061      -78.233      -12.628      125.772       86.963       46.574    15818.702     7562.604     2169.153        4.973        1.278      271.574       43.583        0.026      343.570       19.771      861.719
08/13/2014  22:28:00     -298.354      -73.959        0.715      102.373       76.304       57.915    10480.186     5822.367     3354.114        5.707        0.983      307.384       58.352        0.036      343.540       19.721      861.722
08/13/2014  22:29:00     -336.713      -29.933      -21.425      127.790       88.384       61.749    16330.359     7811.804     3812.922        7.134        1.398      338.041       71.845        0.045      343.551       19.740      861.704
08/13/2014  22:30:00     -354.812      -91.208      -19.022      112.135      115.158       51.368    12574.347    13261.445     2638.668        8.152        1.424      366.348       40.434        0.012      343.524       19.692      861.675
08/13/2014  22:31:00     -304.923      -65.519      -21.388      114.935      121.026       56.511    13210.035    14647.366     3193.496        6.438        1.553      311.883       49.238        0.025      343.508       19.667      861.676
08/13/2014  22:32:00     -345.904      -24.832      -41.302       89.163       68.812       47.463     7950.002     4735.049     2252.753        6.845        0.747      346.794       43.965        0.016      343.510       19.668      861.686
08/13/2014  22:33:00     -311.387      -94.807      -22.292       86.100       90.136       49.677     7413.275     8124.449     2467.806        6.222        0.900      325.500       47.536        0.021      343.488       19.632      861.686
08/13/2014  22:34:00     -262.348      -78.041      -23.083      136.552       80.792       47.763    18646.489     6527.273     2281.344        5.145        1.373      273.710       58.107        0.045      343.462       19.589      861.691
08/13/2014  22:35:00     -318.815      -30.174      -24.398      107.163       72.586       52.266    11483.829     5268.713     2731.742        6.131        0.974      320.239       53.830        0.028      343.383       19.452      861.698
08/13/2014  22:36:00     -299.959      -59.974      -25.558      111.408       59.763       46.262    12411.752     3571.568     2140.172        5.617        0.906      305.896       53.631        0.031      343.371       19.433      861.700
08/13/2014  22:37:00     -314.277      -77.588      -21.308       89.852       83.698       49.355     8073.296     7005.409     2435.944        6.138        0.876      323.713       51.615        0.025      343.342       19.382      861.697
08/13/2014  22:38:00     -363.957      -55.528      -30.746      135.313       83.083       59.245    18309.546     6902.725     3509.930        8.260        1.436      368.169       66.401        0.033      343.330       19.362      861.678
08/13/2014  22:39:00     -300.031      -87.902      -25.127      102.804       96.129       49.115    10568.577     9240.863     2412.278        6.029        1.111      312.642       43.138        0.019      343.307       19.325      861.670
08/13/2014  22:40:00     -373.244      -18.720      -36.677       86.190       70.845       49.349     7428.646     5018.988     2435.275        7.794        0.744      373.713       47.574        0.016      343.279       19.273      861.672
08/13/2014  22:41:00     -374.794      -69.593      -35.828      130.402       80.916       55.781    17004.681     6547.326     3111.533        8.663        1.333      381.201       64.201        0.028      343.254       19.231      861.665
08/13/2014  22:42:00     -386.693      -53.375      -26.114       89.497      106.967       57.308     8009.701    11442.024     3284.151        8.789        1.137      390.359       54.718        0.020      343.246       19.218      861.681
08/13/2014  22:43:00     -459.949      -60.781      -54.794       91.006       75.123       46.853     8282.091     5643.409     2195.221       11.718        0.806      463.948       35.304        0.006      343.231       19.194      861.689
08/13/2014  22:44:00     -366.143      -85.789      -37.990       86.590       83.749       52.317     7497.773     7013.873     2737.073        8.005        0.862      376.059       39.447        0.011      343.226       19.184      861.686
08/13/2014  22:45:00     -365.565      -72.591      -24.933      100.065       88.833       53.336    10012.920     7891.384     2844.728        8.013        1.037      372.703       50.657        0.018      343.239       19.207      861.684
08/13/2014  22:46:00     -311.932      -64.321      -24.888       96.870       89.698       52.042     9383.772     8045.694     2708.397        6.109        1.007      318.494       49.232        0.024      343.228       19.188      861.692
08/13/2014  22:47:00     -353.593      -21.708      -27.082       97.818       70.284       51.791     9568.371     4939.783     2682.333        7.171        0.860      354.259       52.582        0.022      343.217       19.170      861.697
08/13/2014  22:48:00     -386.065      -52.404      -44.579       84.488      100.190       52.246     7138.187    10038.019     2729.607        8.684        0.995      389.606       38.495        0.010      343.230       19.191      861.673
08/13/2014  22:49:00     -357.178      -94.241      -25.708      121.838       92.814       60.630    14844.605     8614.375     3676.045        8.212        1.357      369.402       63.629        0.030      343.236       19.202      861.666
08/13/2014  22:50:00     -370.686     -120.535      -19.571      117.219      116.274       65.980    13740.301    13519.726     4353.381        9.196        1.581      389.791       60.595        0.024      343.217       19.168      861.676
08/13/2014  22:51:00     -425.528      -48.795      -25.633      118.741      103.850       56.705    14099.376    10784.728     3215.471       10.610        1.405      428.317       56.961        0.018      343.235       19.200      861.695
08/13/2014  22:52:00     -368.724     -114.612      -25.644       94.640       82.550       51.914     8956.674     6814.496     2695.107        8.410        0.923      386.126       49.041        0.016      343.231       19.194      861.704
08/13/2014  22:53:00     -362.801      -56.778      -23.680      128.257       87.275       61.999    16449.862     7616.899     3843.824        8.165        1.396      367.217       71.823        0.038      343.220       19.175      861.739
08/13/2014  22:54:00     -355.800     -107.617      -11.614      114.424       89.066       50.917    13092.759     7932.727     2592.508        8.096        1.181      371.719       45.744        0.015      343.216       19.168      861.741
08/13/2014  22:55:00     -251.395     -124.756       -4.986      117.735       80.046       52.183    13861.583     6407.321     2723.081        5.089        1.150      280.649       52.339        0.035      343.218       19.172      861.733
08/13/2014  22:56:00     -282.247      -74.339      -10.013       98.805       87.805       49.669     9762.506     7709.735     2467.033        5.261        0.997      291.872       38.611        0.017      343.223       19.180      861.732
08/13/2014  22:57:00     -373.411     -118.009      -33.292       92.574       77.809       59.778     8569.915     6054.166     3573.436        8.633        0.910      391.615       55.396        0.020      343.214       19.163      861.735
08/13/2014  22:58:00     -375.767      -46.320      -35.932       71.618       84.696       47.312     5129.142     7173.413     2238.393        7.959        0.727      378.611       46.650        0.015      343.195       19.130      861.735
08/13/2014  22:59:00     -388.677      -32.625      -36.552      110.959       95.401       60.094    12311.851     9101.259     3611.304        8.924        1.251      390.044       58.727        0.023      343.183       19.110      861.737
08/13/2014  23:00:00     -311.617      -46.297      -23.067      109.405      112.274       51.528    11969.374    12605.366     2655.109        6.350        1.361      315.037       58.494        0.034      343.166       19.081      861.741
08/13/2014  23:01:00     -322.745      -71.423      -20.142       90.971       92.411       55.363     8275.730     8539.800     3065.108        6.477        0.994      330.553       50.497        0.023      343.195       19.132      861.719
08/13/2014  23:02:00     -296.798      -46.988      -13.206      129.795       96.729       60.955    16846.638     9356.579     3715.465        6.019        1.496      300.494       64.752        0.046      343.155       19.063      861.737
08/13/2014  23:03:00     -391.372      -77.965      -29.692      115.728       90.165       53.087    13393.025     8129.638     2818.180        9.223        1.217      399.062       54.591        0.019      343.147       19.048      861.772
08/13/2014  23:04:00     -403.665       -6.539      -50.806       85.111       59.924       37.793     7243.939     3590.846     1428.321        8.891        0.613      403.718       33.146        0.007      343.135       19.030      861.778
08/13/2014  23:05:00     -321.877      -72.304      -28.552      101.464       79.976       43.508    10294.981     6396.127     1892.908        6.411        0.929      329.898       46.362        0.020      343.124       19.010      861.801
08/13/2014  23:06:00     -345.247      -76.899      -28.818       75.960       76.452       50.437     5769.939     5844.977     2543.924        7.005        0.708      353.708       43.114        0.015      343.136       19.031      861.821
08/13/2014  23:07:00     -236.574      -46.116      -14.764       71.308       58.166       42.779     5084.807     3383.314     1830.042        3.430        0.515      241.027       33.372        0.019      343.091       18.954      861.834
08/13/2014  23:08:00     -267.766      -50.730      -15.709       77.099       69.552       40.980     5944.263     4837.479     1679.373        4.349        0.623      272.529       37.423        0.019      343.081       18.938      861.841
08/13/2014  23:09:00     -239.611      -30.607      -15.283      108.825       88.482       53.020    11842.884     7829.008     2811.105        4.053        1.124      241.557       49.162        0.041      343.071       18.922      861.849
08/13/2014  23:10:00     -253.096      -67.240       -0.914       89.818       76.805       46.158     8067.244     5899.073     2130.592        4.234        0.805      261.876       41.675        0.025      343.055       18.894      861.833
08/13/2014  23:11:00     -254.480      -31.979      -25.420      116.449       89.633       48.447    13560.276     8034.094     2347.106        4.518        1.197      256.482       53.526        0.044      343.048       18.882      861.824
08/13/2014  23:12:00     -359.262      -74.755      -26.439       87.640       85.757       49.758     7680.762     7354.188     2475.902        7.643        0.876      366.957       32.572        0.008      343.067       18.912      861.815
08/13/2014  23:13:00     -240.678      -80.443       -5.040      107.096      101.301       54.133    11469.532    10261.910     2930.376        4.454        1.233      253.765       45.616        0.032      343.056       18.895      861.812
08/13/2014  23:14:00     -313.265      -84.482      -35.368       78.606       93.423       51.541     6178.890     8727.940     2656.439        6.204        0.878      324.457       41.067        0.016      343.099       18.966      861.780
08/13/2014  23:15:00     -324.142      -50.565      -24.570       75.718       87.801       55.469     5733.204     7709.011     3076.764        6.237        0.826      328.063       48.465        0.022      343.098       18.966      861.762
08/13/2014  23:16:00     -299.242     -127.287      -15.623       90.457       88.914       46.449     8182.409     7905.677     2157.482        6.212        0.912      325.189       34.893        0.012      343.089       18.951      861.752
08/13/2014  23:17:00     -337.139      -54.334      -29.687       92.303       78.781       55.260     8519.802     6206.475     3053.621        6.763        0.889      341.489       49.699        0.021      343.117       18.998      861.752
08/13/2014  23:18:00     -336.562     -105.417      -28.783       95.992       80.370       45.251     9214.501     6459.332     2047.609        7.146        0.886      352.685       46.850        0.018      343.135       19.029      861.741
08/13/2014  23:19:00     -348.965      -65.990      -29.852      124.973       95.452       65.426    15618.198     9111.074     4280.583        7.801        1.450      355.150       66.914        0.035      343.151       19.055      861.748
08/13/2014  23:20:00     -256.911      -70.195      -10.086      119.601       96.826       60.878    14304.483     9375.360     3706.121        4.920        1.369      266.328       61.880        0.054      343.153       19.060      861.753
08/13/2014  23:21:00     -237.791      -57.479       -3.653      116.394       99.071       52.839    13547.639     9815.033     2791.948        4.300        1.308      244.639       51.187        0.044      343.159       19.069      861.754
08/13/2014  23:22:00     -289.156      -46.467      -20.187      129.311      103.460       57.552    16721.362    10704.042     3312.265        5.845        1.537      292.865       52.806        0.033      343.163       19.076      861.755
08/13/2014  23:23:00     -286.291      -84.227       -9.213       95.631       99.371       50.770     9145.308     9874.543     2577.577        5.537        1.080      298.423       52.193        0.031      343.138       19.033      861.754
08/13/2014  23:24:00     -306.881      -14.875      -29.534      153.557       95.531       58.109    23579.833     9126.171     3376.697        6.567        1.804      307.241       65.125        0.045      343.111       18.991      861.752
08/13/2014  23:25:00     -322.912      -46.641      -21.807      131.596       91.070       58.109    17317.514     8293.696     3376.632        6.795        1.449      326.263       59.065        0.033      343.125       19.012      861.740
08/13/2014  23:26:00     -214.794       -9.221        7.752      148.623      108.939       56.674    22088.821    11867.736     3211.907        4.172        1.858      214.991       69.754        0.105      343.116       18.998      861.742
08/13/2014  23:27:00     -249.757      -94.763       -7.945      114.965       98.372       60.941    13217.060     9676.975     3713.770        4.901        1.330      267.130       54.853        0.042      343.138       19.034      861.753
08/13/2014  23:28:00     -242.806      -48.486       -5.142       87.967      110.156       44.043     7738.108    12134.244     1939.790        4.157        1.091      247.600       41.822        0.029      343.134       19.028      861.756
08/13/2014  23:29:00     -241.625      -34.960      -11.296       94.533       83.106       47.112     8936.548     6906.556     2219.533        3.889        0.903      244.141       41.978        0.030      343.145       19.046      861.745
08/13/2014  23:30:00     -278.831      -40.389      -11.835       96.613       73.031       48.189     9334.016     5333.582     2322.208        4.825        0.849      281.741       40.993        0.021      343.125       19.011      861.745
08/13/2014  23:31:00     -317.842      -38.409       -7.970      149.089       79.038       57.763    22227.461     6246.952     3336.573        6.718        1.591      320.155       63.510        0.039      343.142       19.043      861.754
08/13/2014  23:32:00     -342.713      -57.824      -25.600      120.466       83.589       54.948    14512.095     6987.112     3019.282        7.298        1.226      347.556       56.213        0.026      343.178       19.104      861.754
08/13/2014  23:33:00     -251.941      -75.453       -8.070       95.791       83.791       49.639     9175.971     7020.946     2464.065        4.394        0.933      262.998       51.420        0.038      343.159       19.071      861.771
08/13/2014  23:34:00     -157.860      -37.107       -7.263       80.376       95.853       47.680     6460.319     9187.793     2273.380        2.213        0.896      162.163       40.949        0.064      343.131       19.025      861.785
08/13/2014  23:35:00     -276.488      -91.481      -15.666       81.060       92.623       46.407     6570.743     8578.946     2153.647        5.118        0.865      291.229       40.467        0.019      343.173       19.093      861.798
08/13/2014  23:36:00     -332.407      -74.151      -20.548      100.818      105.960       51.570    10164.252    11227.500     2659.482        7.023        1.203      340.577       46.230        0.018      343.210       19.155      861.815
08/13/2014  23:37:00     -261.528      -71.592       -5.851       99.493       82.339       45.000     9898.869     6779.750     2024.990        4.613        0.935      271.150       43.522        0.026      343.165       19.081      861.817
08/13/2014  23:38:00     -207.450      -54.070       -8.809      104.779       84.858       46.578    10978.577     7200.798     2169.506        3.319        1.017      214.381       42.083        0.039      343.172       19.092      861.819
08/13/2014  23:39:00     -217.225      -49.682      -10.044       57.740       46.820       28.755     3333.930     2192.078      826.835        2.805        0.318      222.835       25.570        0.013      343.124       19.011      861.814
08/13/2014  23:40:00     -189.493      -63.999      -26.545       65.734       48.951       38.526     4321.007     2396.243     1484.222        2.445        0.410      200.009       36.280        0.033      343.123       19.012      861.802
08/13/2014  23:41:00     -225.362      -45.453      -31.072       73.486       66.635       43.406     5400.179     4440.217     1884.084        3.277        0.586      229.901       35.883        0.024      343.110       18.987      861.812
08/13/2014  23:42:00     -171.113      -34.921       -3.692       89.718       61.719       44.942     8049.382     3809.225     2019.786        2.219        0.694      174.640       46.829        0.072      343.056       18.896      861.823
08/13/2014  23:43:00     -154.294      -73.038        9.509       77.858       62.139       38.916     6061.814     3861.238     1514.450        2.033        0.572      170.708       44.021        0.066      343.046       18.881      861.830
08/13/2014  23:44:00     -234.500       -7.823      -10.271       92.433       56.227       37.730     8543.837     3161.495     1423.560        3.414        0.656      234.631       42.108        0.032      343.088       18.950      861.837
08/13/2014  23:45:00     -156.123      -22.931       -9.418       73.832       79.784       37.438     5451.105     6365.544     1401.610        1.910        0.661      157.798       36.041        0.052      343.070       18.921      861.834
08/13/2014  23:46:00     -158.421      -42.136        4.732      108.001       61.519       46.039    11664.201     3784.542     2119.544        2.223        0.878      163.928       52.666        0.103      343.044       18.876      861.828
08/13/2014  23:47:00     -205.901        7.828       -8.428       67.970       76.079       42.617     4619.954     5788.071     1816.225        2.737        0.611      206.050       43.537        0.045      343.080       18.936      861.827
08/13/2014  23:48:00     -237.091     -108.919      -17.329       60.042       75.048       39.359     3605.065     5632.202     1549.107        3.958        0.539      260.912       25.098        0.009      343.045       18.874      861.835
08/13/2014  23:49:00     -151.535      -46.545      -12.954       92.752       68.890       44.648     8602.963     4745.805     1993.440        2.032        0.767      158.523       49.489        0.097      343.021       18.838      861.864
08/13/2014  23:50:00     -220.663      -37.388      -16.034       81.580       79.609       28.871     6655.341     6337.588      833.512        3.208        0.691      223.808       25.504        0.013      343.036       18.861      861.868
08/13/2014  23:51:00     -161.569      -35.590      -14.562      104.754       74.392       41.244    10973.409     5534.202     1701.047        2.289        0.910      165.443       34.797        0.044      343.021       18.837      861.866
08/13/2014  23:52:00     -135.816      -42.957       -2.771       94.649       68.401       35.800     8958.386     4678.732     1281.615        1.761        0.746      142.447       32.007        0.050      343.001       18.804      861.852
08/13/2014  23:53:00     -264.763      -42.690      -17.446       82.687       85.209       50.277     6837.220     7260.572     2527.736        4.442        0.831      268.183       42.159        0.025      343.035       18.860      861.852
08/13/2014  23:54:00     -322.492      -44.739      -19.951      122.661       90.125       55.409    15045.821     8122.598     3070.158        6.631        1.312      325.580       62.194        0.036      343.070       18.919      861.847
08/13/2014  23:55:00     -288.013      -71.318      -12.222       76.205       69.209       42.996     5807.200     4789.854     1848.685        5.031        0.622      296.712       39.117        0.017      343.060       18.901      861.857
08/13/2014  23:56:00     -151.919      -26.103       -5.782       96.178       71.153       46.608     9250.199     5062.682     2172.315        2.014        0.824      154.145       51.067        0.110      343.052       18.890      861.863
08/13/2014  23:57:00     -285.750      -59.580      -14.899      103.618       82.976       46.891    10736.588     6885.083     2198.780        5.262        0.991      291.895       48.019        0.027      343.139       19.035      861.870
08/13/2014  23:58:00     -229.799      -70.126       -4.552       66.863       94.710       47.565     4470.681     8969.915     2262.449        3.672        0.785      240.261       36.728        0.023      343.102       18.973      861.888
08/13/2014  23:59:00     -265.119      -26.657      -15.980       84.365       67.450       44.544     7117.508     4549.460     1984.195        4.245        0.683      266.456       43.346        0.026      343.128       19.017      861.895
